[[{"header":{"parameterUnit":"m.s-1","parameterCategory":1,"la1":30.6,"la2":29.2853,"lo1":-89.7004,"lo2":-87.6739,"dy":0.0162,"dx":0.0183,"nx":112,"ny":82,"refTime":"2023-08-28T06:00:00:Z","depth":0,"parameterNumber":2,"parameterNumberName":"U-component_of_WINDS"},"data":[0.0,0.0,0.0,0.0,0.0,0.0,0.0,0.0,0.0,0.0,0.0,0.0,0.0,0.0,0.0,0.0,0.0,0.0,0.0,0.0,0.0,0.0,0.0,0.0,0.0,0.0,0.0,0.0,0.0,0.0,0.0,0.0,0.0,0.0,0.0,0.0,0.0,0.0,0.0,0.0,0.0,0.0,0.0,0.0,0.0,0.0,0.0,0.0,0.0,0.0,0.0,0.0,0.0,0.0,0.0,0.0,0.0,0.0,0.0,0.0,0.0,0.0,0.0,0.0,0.0,0.0,0.0,0.0,0.0,0.0,0.0,0.0,0.0,0.0,0.0,0.0,0.0,0.0,0.0,0.0,0.0,0.0,0.0,0.0,0.0,0.0,0.0,0.0,0.0,0.0,-2.9315,-2.961,-2.9592,-2.9609,-2.9799,-2.9344,-2.911,-2.9191,0.0,0.0,0.0,0.0,0.0,0.0,0.0,0.0,0.0,0.0,0.0,0.0,0.0,0.0,0.0,0.0,0.0,0.0,0.0,0.0,0.0,0.0,0.0,0.0,0.0,0.0,0.0,0.0,0.0,0.0,0.0,0.0,0.0,0.0,0.0,0.0,0.0,0.0,0.0,0.0,0.0,0.0,0.0,0.0,0.0,0.0,0.0,0.0,0.0,0.0,0.0,0.0,0.0,0.0,0.0,0.0,0.0,0.0,0.0,0.0,0.0,0.0,0.0,0.0,0.0,0.0,0.0,0.0,0.0,0.0,0.0,0.0,0.0,0.0,0.0,0.0,0.0,0.0,0.0,0.0,0.0,0.0,0.0,0.0,0.0,0.0,0.0,0.0,0.0,0.0,0.0,0.0,0.0,0.0,0.0,0.0,0.0,0.0,0.0,0.0,0.0,0.0,0.0,0.0,-2.9467,-3.0186,-2.9948,-3.0148,-3.1107,-3.0073,-2.9546,-3.0075,0.0,0.0,0.0,0.0,0.0,0.0,0.0,0.0,0.0,0.0,0.0,0.0,0.0,0.0,0.0,0.0,0.0,0.0,0.0,0.0,0.0,0.0,0.0,0.0,0.0,0.0,0.0,0.0,0.0,0.0,0.0,0.0,0.0,0.0,0.0,0.0,0.0,0.0,0.0,0.0,0.0,0.0,0.0,0.0,0.0,0.0,0.0,0.0,0.0,0.0,0.0,0.0,0.0,0.0,0.0,0.0,0.0,0.0,0.0,0.0,0.0,0.0,0.0,0.0,0.0,0.0,0.0,0.0,0.0,0.0,0.0,0.0,0.0,0.0,0.0,0.0,0.0,0.0,0.0,0.0,0.0,0.0,0.0,0.0,0.0,0.0,0.0,0.0,0.0,0.0,0.0,0.0,0.0,0.0,0.0,0.0,0.0,0.0,0.0,0.0,0.0,0.0,0.0,-3.0154,-3.0447,-3.0499,-3.0421,-3.0555,-3.1083,-3.0125,-2.9636,-2.9897,-2.8456,0.0,0.0,0.0,0.0,0.0,0.0,0.0,0.0,0.0,0.0,0.0,0.0,0.0,0.0,0.0,0.0,0.0,0.0,0.0,0.0,0.0,0.0,0.0,0.0,0.0,0.0,0.0,0.0,0.0,0.0,0.0,0.0,0.0,0.0,0.0,0.0,0.0,0.0,0.0,0.0,0.0,0.0,0.0,0.0,0.0,0.0,0.0,0.0,0.0,0.0,0.0,0.0,0.0,0.0,0.0,0.0,0.0,0.0,0.0,0.0,0.0,0.0,0.0,0.0,0.0,0.0,0.0,0.0,0.0,0.0,0.0,0.0,0.0,0.0,0.0,0.0,0.0,0.0,0.0,0.0,0.0,0.0,0.0,0.0,0.0,0.0,0.0,0.0,0.0,0.0,0.0,0.0,0.0,0.0,0.0,0.0,0.0,0.0,0.0,0.0,0.0,0.0,-3.0638,-3.0962,-3.0605,-3.0567,-3.0584,-3.0563,-2.9913,-2.9496,-2.9473,-2.8614,0.0,0.0,0.0,0.0,0.0,0.0,0.0,0.0,0.0,0.0,0.0,0.0,0.0,0.0,0.0,0.0,0.0,0.0,0.0,0.0,0.0,0.0,0.0,0.0,0.0,0.0,0.0,0.0,0.0,0.0,0.0,0.0,0.0,0.0,0.0,0.0,0.0,0.0,0.0,0.0,0.0,0.0,0.0,0.0,0.0,0.0,0.0,0.0,0.0,0.0,0.0,0.0,0.0,0.0,0.0,0.0,0.0,0.0,0.0,0.0,0.0,0.0,0.0,0.0,0.0,0.0,0.0,0.0,0.0,0.0,0.0,0.0,0.0,0.0,0.0,0.0,0.0,0.0,0.0,0.0,0.0,0.0,0.0,0.0,0.0,0.0,0.0,0.0,0.0,0.0,0.0,0.0,0.0,0.0,0.0,0.0,0.0,0.0,0.0,0.0,0.0,0.0,-3.014,-3.0075,-3.046,-3.0175,-2.994,-2.9881,-2.9489,-2.9196,-2.9143,-2.8654,0.0,0.0,0.0,0.0,0.0,0.0,0.0,0.0,0.0,0.0,0.0,0.0,0.0,0.0,0.0,0.0,0.0,0.0,0.0,0.0,0.0,0.0,0.0,0.0,0.0,0.0,0.0,0.0,0.0,0.0,0.0,0.0,0.0,0.0,0.0,0.0,0.0,0.0,0.0,0.0,0.0,0.0,0.0,0.0,0.0,0.0,0.0,0.0,0.0,0.0,0.0,0.0,0.0,0.0,0.0,0.0,0.0,0.0,0.0,0.0,0.0,0.0,0.0,0.0,0.0,0.0,0.0,0.0,0.0,0.0,0.0,0.0,0.0,0.0,0.0,0.0,0.0,0.0,0.0,0.0,0.0,0.0,0.0,0.0,0.0,0.0,0.0,0.0,0.0,0.0,0.0,0.0,0.0,0.0,0.0,0.0,0.0,0.0,0.0,0.0,0.0,0.0,-2.9903,-2.9859,0.0,-2.9667,-2.94,-2.9371,-2.8967,-2.87,-2.8653,0.0,0.0,0.0,0.0,0.0,0.0,0.0,0.0,0.0,0.0,0.0,0.0,0.0,0.0,0.0,0.0,0.0,0.0,0.0,0.0,0.0,0.0,0.0,0.0,0.0,0.0,0.0,0.0,0.0,0.0,0.0,0.0,0.0,0.0,0.0,0.0,0.0,0.0,0.0,0.0,0.0,0.0,0.0,0.0,0.0,0.0,0.0,0.0,0.0,0.0,0.0,0.0,0.0,0.0,0.0,0.0,0.0,0.0,0.0,0.0,0.0,0.0,0.0,0.0,0.0,0.0,0.0,0.0,0.0,0.0,0.0,0.0,0.0,0.0,0.0,0.0,0.0,0.0,0.0,0.0,0.0,0.0,0.0,0.0,0.0,0.0,0.0,0.0,0.0,0.0,0.0,0.0,0.0,0.0,0.0,0.0,0.0,0.0,0.0,0.0,0.0,0.0,-2.9506,-2.9572,-2.9572,0.0,-2.928,-2.9044,-2.8897,-2.8573,-2.8411,-2.8411,0.0,0.0,0.0,0.0,0.0,0.0,0.0,0.0,0.0,0.0,0.0,0.0,0.0,0.0,0.0,0.0,0.0,0.0,0.0,0.0,0.0,0.0,0.0,0.0,0.0,0.0,0.0,0.0,0.0,0.0,0.0,0.0,0.0,0.0,0.0,0.0,0.0,0.0,0.0,0.0,0.0,0.0,0.0,0.0,0.0,0.0,0.0,0.0,0.0,0.0,0.0,0.0,0.0,0.0,0.0,0.0,0.0,0.0,0.0,0.0,0.0,0.0,0.0,0.0,0.0,0.0,0.0,0.0,0.0,0.0,0.0,0.0,0.0,0.0,0.0,0.0,0.0,0.0,0.0,0.0,0.0,0.0,0.0,0.0,0.0,0.0,0.0,0.0,0.0,0.0,0.0,0.0,0.0,0.0,0.0,0.0,0.0,0.0,0.0,0.0,0.0,0.0,-2.9044,-2.9097,-2.9097,-2.9097,-2.9113,-2.8881,-2.8444,-2.8411,-2.8411,0.0,0.0,0.0,0.0,0.0,0.0,0.0,0.0,0.0,0.0,0.0,0.0,0.0,0.0,0.0,0.0,0.0,0.0,0.0,0.0,0.0,0.0,0.0,0.0,0.0,0.0,0.0,0.0,0.0,0.0,0.0,0.0,0.0,0.0,0.0,0.0,0.0,0.0,0.0,0.0,0.0,0.0,0.0,0.0,0.0,0.0,0.0,0.0,0.0,0.0,0.0,0.0,0.0,0.0,0.0,0.0,0.0,0.0,0.0,0.0,0.0,0.0,0.0,0.0,0.0,0.0,0.0,0.0,0.0,0.0,0.0,0.0,0.0,0.0,0.0,0.0,0.0,0.0,0.0,0.0,0.0,0.0,0.0,0.0,0.0,0.0,0.0,0.0,0.0,0.0,0.0,0.0,0.0,0.0,0.0,0.0,0.0,0.0,0.0,0.0,0.0,0.0,0.0,-2.9483,-2.9013,-2.8724,-2.9067,-2.8803,-2.8549,-2.8396,-2.8411,-2.8411,-2.8411,0.0,0.0,0.0,0.0,0.0,0.0,0.0,0.0,0.0,0.0,0.0,0.0,0.0,0.0,0.0,0.0,0.0,0.0,0.0,0.0,0.0,0.0,0.0,0.0,0.0,0.0,0.0,0.0,0.0,0.0,0.0,0.0,0.0,0.0,0.0,0.0,0.0,0.0,0.0,0.0,0.0,0.0,0.0,0.0,0.0,0.0,0.0,0.0,0.0,0.0,0.0,0.0,0.0,0.0,0.0,0.0,0.0,0.0,0.0,0.0,0.0,0.0,0.0,0.0,0.0,0.0,0.0,0.0,0.0,0.0,0.0,0.0,0.0,0.0,0.0,0.0,0.0,0.0,0.0,0.0,0.0,0.0,0.0,0.0,0.0,0.0,0.0,0.0,0.0,0.0,0.0,0.0,0.0,0.0,0.0,0.0,0.0,0.0,0.0,0.0,0.0,0.0,-2.9175,-2.8763,-2.8517,-2.8779,-2.8573,-2.8411,-2.8411,-2.8411,-2.8411,-2.8411,0.0,0.0,0.0,0.0,0.0,0.0,0.0,0.0,0.0,0.0,0.0,0.0,0.0,0.0,0.0,0.0,0.0,0.0,0.0,0.0,0.0,0.0,0.0,0.0,0.0,0.0,0.0,0.0,0.0,0.0,0.0,0.0,0.0,0.0,0.0,0.0,0.0,0.0,0.0,0.0,0.0,0.0,0.0,0.0,0.0,0.0,0.0,0.0,0.0,0.0,0.0,0.0,0.0,0.0,0.0,0.0,0.0,0.0,0.0,0.0,0.0,0.0,0.0,0.0,0.0,0.0,0.0,0.0,0.0,0.0,0.0,0.0,0.0,0.0,0.0,0.0,0.0,0.0,0.0,0.0,0.0,0.0,0.0,0.0,0.0,0.0,0.0,0.0,0.0,0.0,0.0,0.0,0.0,0.0,0.0,0.0,0.0,0.0,0.0,0.0,0.0,0.0,-2.8411,-2.8387,-2.8387,-2.8411,-2.8411,-2.8411,-2.8411,-2.8411,-2.8411,-2.8411,0.0,0.0,0.0,0.0,0.0,0.0,0.0,0.0,0.0,0.0,0.0,0.0,0.0,0.0,0.0,0.0,0.0,0.0,0.0,0.0,0.0,0.0,0.0,0.0,0.0,0.0,0.0,0.0,0.0,0.0,0.0,0.0,0.0,0.0,0.0,0.0,0.0,0.0,0.0,0.0,0.0,0.0,0.0,0.0,0.0,0.0,0.0,0.0,0.0,0.0,0.0,0.0,0.0,0.0,0.0,0.0,0.0,0.0,0.0,0.0,-2.76,0.0,0.0,0.0,0.0,0.0,0.0,0.0,0.0,0.0,0.0,0.0,0.0,0.0,0.0,0.0,0.0,0.0,0.0,0.0,0.0,0.0,0.0,0.0,0.0,0.0,0.0,0.0,0.0,0.0,0.0,0.0,0.0,0.0,0.0,0.0,0.0,0.0,0.0,0.0,0.0,0.0,-2.8387,-2.8323,-2.8275,-2.8387,-2.8411,-2.8411,-2.8411,-2.8411,-2.8411,-2.8411,-2.8411,0.0,0.0,0.0,0.0,0.0,0.0,0.0,0.0,0.0,0.0,0.0,0.0,0.0,0.0,0.0,0.0,0.0,0.0,0.0,0.0,0.0,0.0,0.0,0.0,0.0,0.0,0.0,0.0,0.0,0.0,0.0,0.0,0.0,0.0,0.0,0.0,0.0,0.0,0.0,0.0,0.0,0.0,0.0,0.0,0.0,0.0,0.0,0.0,0.0,0.0,0.0,0.0,0.0,0.0,0.0,0.0,0.0,0.0,0.0,0.0,-2.76,0.0,0.0,0.0,0.0,0.0,0.0,0.0,0.0,0.0,0.0,0.0,0.0,0.0,0.0,0.0,0.0,0.0,0.0,0.0,0.0,0.0,0.0,0.0,0.0,0.0,0.0,0.0,0.0,0.0,0.0,0.0,0.0,0.0,0.0,0.0,0.0,0.0,0.0,0.0,0.0,-2.8299,-2.8201,-2.8128,-2.8217,-2.8217,-2.8226,-2.8299,-2.8299,-2.8323,-2.8411,-2.8348,0.0,0.0,0.0,0.0,0.0,0.0,0.0,0.0,0.0,0.0,0.0,0.0,0.0,0.0,0.0,0.0,0.0,0.0,0.0,0.0,0.0,0.0,0.0,0.0,0.0,0.0,0.0,0.0,0.0,0.0,0.0,0.0,0.0,0.0,0.0,0.0,0.0,0.0,0.0,0.0,0.0,0.0,0.0,0.0,0.0,0.0,0.0,0.0,0.0,0.0,0.0,0.0,0.0,-2.7779,-2.7916,-2.8158,-2.7785,-2.7795,-2.8158,-2.7785,-2.76,-2.76,-2.76,0.0,0.0,0.0,0.0,0.0,0.0,0.0,0.0,0.0,0.0,0.0,0.0,0.0,0.0,0.0,0.0,0.0,0.0,0.0,0.0,0.0,0.0,0.0,0.0,-2.76,-2.76,-2.76,0.0,0.0,0.0,0.0,0.0,0.0,0.0,0.0,0.0,0.0,0.0,-2.8162,-2.8054,-2.7955,-2.7995,-2.7995,-2.8054,-2.8177,-2.8162,-2.8226,-2.8323,-2.825,-2.8186,0.0,0.0,0.0,0.0,0.0,0.0,0.0,0.0,0.0,0.0,0.0,0.0,0.0,0.0,0.0,0.0,0.0,0.0,0.0,0.0,0.0,0.0,0.0,0.0,0.0,0.0,0.0,0.0,0.0,0.0,0.0,0.0,-2.9577,-2.9487,0.0,0.0,0.0,0.0,0.0,0.0,0.0,0.0,0.0,0.0,0.0,0.0,0.0,-2.9352,-2.9352,-2.9352,-2.9052,-2.8472,-2.8472,-2.8195,-2.7685,-2.7625,-2.7635,-2.7685,-2.7625,0.0,-2.76,-2.76,0.0,0.0,0.0,0.0,0.0,0.0,0.0,0.0,0.0,0.0,0.0,0.0,0.0,0.0,0.0,0.0,0.0,0.0,0.0,0.0,0.0,0.0,-2.76,-2.76,-2.76,-2.76,0.0,-2.76,-2.76,-2.76,-2.7625,0.0,0.0,0.0,0.0,0.0,0.0,0.0,-2.8005,-2.7905,-2.788,-2.798,-2.7995,-2.802,-2.8029,-2.8029,-2.8029,-2.8044,-2.8152,-2.8137,-2.8029,-2.8137,0.0,0.0,0.0,0.0,0.0,0.0,0.0,0.0,0.0,0.0,0.0,0.0,0.0,0.0,0.0,0.0,0.0,0.0,0.0,0.0,0.0,0.0,0.0,0.0,0.0,0.0,0.0,0.0,0.0,-3.0342,-3.0103,-3.0103,-2.9816,-2.9606,0.0,0.0,0.0,0.0,0.0,0.0,0.0,0.0,0.0,-2.9606,-2.9883,-3.0053,-3.0053,-3.0351,-3.0197,-2.9611,-2.9611,-2.9433,-2.9108,-2.8839,-2.8865,-2.9093,-2.8839,-2.8723,-2.8678,-2.7899,-2.76,-2.76,0.0,0.0,0.0,0.0,-2.76,-2.76,-2.76,-2.76,-2.76,-2.76,0.0,0.0,0.0,0.0,0.0,0.0,0.0,0.0,0.0,0.0,-2.76,-2.76,-2.76,-2.76,-2.76,-2.76,-2.76,0.0,-2.76,-2.7625,-2.7675,0.0,0.0,0.0,0.0,-2.7815,-2.788,-2.7765,-2.77,-2.7765,-2.779,-2.7815,-2.788,-2.7905,-2.793,-2.7995,-2.7965,-2.794,-2.7905,-2.794,-2.7989,0.0,0.0,0.0,0.0,0.0,0.0,0.0,0.0,0.0,0.0,0.0,0.0,0.0,0.0,0.0,0.0,0.0,0.0,0.0,0.0,0.0,0.0,0.0,0.0,0.0,0.0,0.0,0.0,-3.1062,-3.0776,-3.0776,-3.0357,-3.0088,0.0,0.0,0.0,0.0,0.0,0.0,-3.0088,-3.0238,-3.0238,-3.0088,-3.0753,-3.1052,-3.0911,-3.1448,-3.1445,-3.0866,-3.0866,-3.0747,-3.0515,-3.0042,-2.9989,-3.0299,-2.9818,-2.9606,-2.9532,-2.8528,-2.8109,-2.8109,-2.8109,-2.8109,-2.8109,-2.8109,-2.8109,-2.8109,-2.8109,-2.8109,-2.8109,-2.8109,-2.8109,-2.8109,-2.8109,0.0,0.0,0.0,0.0,-2.8109,-2.8109,-2.8109,-2.8109,-2.8109,-2.8109,-2.8109,-2.8109,-2.8109,-2.8004,0.0,-2.76,-2.76,-2.76,0.0,0.0,0.0,0.0,-2.7765,-2.7765,-2.765,-2.76,-2.76,-2.76,-2.765,-2.774,-2.7765,-2.779,-2.7905,-2.784,-2.779,-2.7765,-2.779,-2.779,-2.779,0.0,0.0,0.0,0.0,0.0,0.0,0.0,0.0,0.0,0.0,0.0,0.0,0.0,0.0,0.0,0.0,0.0,0.0,0.0,0.0,0.0,0.0,0.0,0.0,0.0,0.0,0.0,0.0,0.0,-3.1451,-3.1421,0.0,0.0,0.0,0.0,-3.1406,-3.1406,-3.1406,-3.1406,-3.1944,-3.2,-3.1435,-3.2489,-3.2812,-3.229,-3.2839,-3.2782,-3.2108,-3.2108,-3.1785,-3.1153,-3.0602,-3.0371,-3.0361,-2.9845,-2.9606,-2.9606,-2.9532,-2.9502,-2.9502,-2.9502,-2.9502,-2.9502,-2.9502,-2.9502,-2.9502,-2.9502,-2.9502,-2.9502,-2.9502,-2.9502,-2.9502,-2.9502,-2.9502,0.0,0.0,-2.9502,-2.9502,-2.9502,-2.9502,-2.9502,-2.9502,-2.9502,-2.9502,-2.9502,-2.9502,-2.9127,0.0,-2.76,-2.76,-2.76,0.0,-2.7625,-2.7625,-2.7625,-2.7625,-2.7625,-2.76,-2.76,-2.76,-2.76,-2.76,-2.7625,-2.7625,-2.7625,-2.7625,-2.774,-2.774,-2.7625,-2.774,-2.779,-2.779,-2.7815,0.0,0.0,0.0,0.0,0.0,0.0,0.0,0.0,0.0,0.0,0.0,0.0,0.0,0.0,0.0,0.0,0.0,0.0,0.0,0.0,0.0,0.0,0.0,0.0,0.0,0.0,0.0,0.0,-3.1511,-3.1511,0.0,-3.1511,-3.1511,-3.1511,-3.1511,-3.1511,-3.1511,-3.1511,-3.1697,-3.171,-3.1511,-3.2272,-3.2586,-3.2398,-3.3308,-3.3451,-3.2845,-3.3237,-3.3083,-3.2481,-3.23,-3.2196,-3.217,-3.1632,-3.139,-3.1363,-3.099,-3.0342,-2.9606,-2.9606,-2.9606,-2.9606,-2.9606,-2.9606,-2.9606,-2.9606,-2.9606,-2.9606,-2.9606,-2.9606,-2.9606,-2.9606,-2.9606,-2.9606,-2.9606,-2.9606,-2.9606,-2.9606,-2.9606,-2.9502,-2.9056,-2.8951,-2.8831,-2.8408,-2.8319,-2.8169,-2.769,-2.7959,-2.8124,-2.7675,-2.76,-2.76,-2.76,-2.76,-2.7764,-2.8173,-2.8233,-2.8423,-2.8843,-2.8487,-2.8233,-2.8233,-2.7854,-2.76,-2.76,-2.765,-2.765,-2.76,-2.765,-2.7675,-2.7675,-2.7675,-2.7675,0.0,0.0,0.0,0.0,0.0,0.0,0.0,0.0,0.0,0.0,0.0,0.0,0.0,0.0,0.0,0.0,0.0,0.0,0.0,0.0,0.0,0.0,0.0,0.0,0.0,0.0,-3.1511,-3.1511,-3.1511,-3.1511,-3.1511,-3.1511,-3.1511,-3.1511,-3.1511,-3.1511,-3.1511,-3.1697,-3.1726,-3.1511,-3.2465,-3.2873,-3.2668,-3.379,-3.4168,-3.3783,-3.4168,-3.4168,-3.3783,-3.3578,-3.3381,-3.3198,-3.2815,-3.2465,-3.2079,-3.1881,-3.1185,-3.0238,-3.0238,-3.0238,-3.0238,-3.0238,-3.0238,-3.0238,-3.0238,-3.0238,-3.0238,-3.0238,-3.0238,-3.0238,-3.0238,-3.0073,-2.9894,-2.9894,-2.9771,-2.9606,-2.9606,-2.9606,-2.9502,-2.9026,-2.8936,-2.8801,-2.8378,-2.8274,-2.8214,-2.7989,-2.8124,-2.8113,-2.7675,-2.76,-2.76,-2.76,-2.76,-2.7839,-2.8502,-2.8607,-2.8861,-2.9532,-2.919,-2.8936,-2.8936,-2.8543,-2.8184,-2.7959,-2.7944,-2.7839,-2.76,-2.76,-2.76,-2.76,-2.76,-2.76,-2.76,0.0,0.0,0.0,0.0,0.0,0.0,0.0,0.0,0.0,0.0,0.0,0.0,0.0,0.0,0.0,0.0,0.0,0.0,0.0,0.0,0.0,0.0,0.0,-3.1467,-3.1511,-3.1511,-3.1539,-3.1496,-3.1511,-3.1524,-3.1511,-3.1511,-3.1511,-3.1511,-3.1511,-3.1511,-3.2064,-3.2135,-3.1583,-3.3224,-3.3838,-3.3288,-3.4382,-3.4941,-3.4941,-3.4965,-3.4965,-3.4941,-3.4439,-3.388,-3.3314,-3.3282,-3.2629,-3.167,-3.2219,-3.2064,-3.1553,-3.1496,-3.1511,-3.1511,-3.1481,-3.1466,-3.1451,-3.1451,-3.1451,-3.1451,-3.1451,-3.1451,-3.1451,-3.1451,-3.0972,-3.0477,-3.0477,-3.0043,-2.9606,-2.9606,-2.9606,-2.9606,-2.9577,-2.9577,-2.9577,-2.9577,-2.9577,-2.937,-2.8742,-2.8124,-2.7645,-2.76,-2.76,-2.76,-2.76,-2.76,0.0,-2.8502,-2.8622,-2.8891,-2.9577,-2.9636,-2.9636,-2.9636,-2.9621,-2.9295,-2.8637,-2.8607,-2.8293,-2.763,-2.76,-2.76,-2.76,-2.76,-2.76,-2.76,0.0,0.0,0.0,0.0,0.0,0.0,0.0,0.0,0.0,0.0,0.0,0.0,0.0,0.0,0.0,0.0,0.0,0.0,0.0,0.0,0.0,-3.1467,-3.1467,-3.1511,-3.1511,-3.1668,-3.2092,-3.1768,-3.1668,-3.2092,-3.1754,-3.1511,-3.1511,-3.1511,-3.1511,-3.1511,-3.2064,-3.2573,-3.2922,-3.3799,-3.4425,-3.4797,-3.5495,-3.5834,-3.585,-3.6298,-3.6506,-3.6506,-3.6339,-3.6171,-3.5969,-3.4988,-3.4382,-3.4059,-3.3271,-3.2879,-3.2652,-3.1809,-3.1511,-3.1451,-3.0943,-3.0507,-3.0118,-3.0118,-3.0118,-3.0118,-3.0118,-3.0118,-3.0118,-3.0118,-2.9983,-2.9834,-2.9834,-2.9741,-2.9606,-2.9606,-2.9606,-2.9487,-2.8981,-2.8861,-2.8861,-2.8861,-2.8861,-2.8951,-2.9277,-2.9187,-2.8738,-2.7764,-2.76,-2.76,-2.76,-2.76,0.0,-2.8502,-2.9011,-2.9549,-3.0178,-3.0253,-3.0253,-3.0253,-2.9834,-2.9295,-2.8637,-2.8607,-2.8293,-2.763,-2.76,-2.76,-2.76,-2.76,-2.76,0.0,0.0,0.0,0.0,0.0,0.0,0.0,0.0,0.0,0.0,0.0,0.0,0.0,0.0,0.0,0.0,0.0,0.0,0.0,0.0,0.0,0.0,-3.1752,-3.1866,-3.2173,-3.1781,-3.164,-3.1994,-3.1726,-3.164,-3.1994,-3.1697,-3.1511,-3.1511,-3.201,-3.2219,-3.1943,-3.2778,-3.3328,-3.348,-3.431,-3.4928,-3.534,-3.6173,-3.66,-3.6584,-3.6916,-3.7102,-3.7102,-3.7102,-3.6959,-3.6687,-3.6175,-3.5678,-3.515,-3.4324,-3.3863,0.0,0.0,0.0,0.0,0.0,-3.0717,-3.0402,-3.0402,-3.0402,-3.0402,-3.0402,-3.0402,-3.0402,-3.0402,-3.0193,-2.9968,-2.9968,-2.9774,-2.9606,-2.9606,-2.9606,-2.9517,-2.9101,-2.9011,-2.9011,-2.9011,-2.9011,-2.9131,-2.9532,-2.9606,0.0,-2.8573,-2.8438,-2.8438,-2.8438,-2.8438,-2.8678,-2.931,-2.9729,-3.0223,-3.0838,-3.0913,-3.0913,-3.0913,-3.0612,0.0,0.0,0.0,-2.8603,-2.763,-2.76,0.0,0.0,0.0,-2.76,-2.76,-2.76,0.0,0.0,-2.765,-2.7675,0.0,0.0,0.0,0.0,0.0,0.0,0.0,0.0,0.0,0.0,0.0,0.0,0.0,0.0,0.0,0.0,-3.2196,-3.2345,-3.3029,-3.2201,-3.1582,-3.1682,-3.1582,-3.1524,-3.1582,-3.1686,-3.1687,-3.1615,-3.2839,-3.3291,-3.2646,0.0,0.0,0.0,0.0,-3.5665,-3.5745,-3.681,-3.735,-3.735,-3.735,-3.735,-3.735,-3.735,-3.7044,-3.657,-3.703,-3.6643,-3.5696,-3.5421,-3.4977,-3.4259,-3.292,-3.2391,-3.2302,-3.1634,-3.1389,-3.1357,-3.1315,0.0,0.0,-3.1286,-3.1286,-3.1286,-3.1286,-3.0881,-3.0402,-3.0402,-2.9998,-2.9606,-2.9606,-2.9606,-2.9606,-2.9606,-2.9606,-2.9636,-2.9696,-2.9711,-2.9726,-2.9789,-2.9804,-2.9804,-2.9804,-2.9711,-2.9606,-2.9606,-2.9606,-2.9774,-3.0328,-3.0462,-3.0746,-3.1316,0.0,0.0,-3.1511,-3.1511,-3.1212,-3.0552,-2.9849,-2.8963,-2.7764,-2.7645,-2.76,-2.76,-2.76,-2.76,-2.76,-2.76,-2.76,-2.76,-2.76,-2.76,0.0,0.0,0.0,0.0,0.0,0.0,0.0,0.0,0.0,0.0,0.0,0.0,0.0,0.0,0.0,-3.3755,-3.2915,-3.2328,-3.2542,-3.2132,-3.2089,-3.2799,-3.2048,-3.1697,-3.2176,-3.2749,-3.2886,-3.2347,-3.3494,-3.3964,-3.3335,-3.4452,-3.5338,-3.5817,-3.7009,-3.7912,-3.8514,-3.8762,-3.8884,-3.8884,0.0,0.0,-3.8884,-3.8884,-3.8815,-3.8659,-3.8193,-3.785,-3.7627,-3.6964,-3.6009,-3.478,-3.3084,-3.2326,-3.2102,-3.1076,-3.0646,-3.0551,-3.0129,-2.9968,-2.9968,-2.9968,-2.9968,-2.9968,-2.9968,-2.9864,0.0,-2.9786,-2.9696,-2.9606,-2.9606,-2.9606,-2.9606,-2.9606,-2.9606,-2.9714,-3.0223,-3.0328,-3.0492,-3.1017,-3.1122,-3.1122,-3.1122,-3.0283,-2.9606,-2.9606,-2.9606,-2.9651,-2.9771,-3.0193,-3.0552,-3.0687,-3.1182,-3.1511,-3.1511,-3.1511,-3.1212,-3.0552,-2.943,-2.8682,-2.8412,-2.7899,-2.76,-2.76,-2.76,-2.76,-2.76,-2.76,-2.76,-2.76,-2.76,-2.76,0.0,0.0,0.0,0.0,0.0,0.0,0.0,0.0,0.0,0.0,0.0,-3.4665,-3.4997,0.0,-3.5243,-3.4972,-3.4304,-3.3854,-3.3987,-3.2977,-3.2245,-3.2342,-3.2619,-3.2721,-3.2452,-3.3362,-3.3703,-3.3066,-3.4477,-3.5112,-3.4486,-3.5949,-3.6829,-3.6891,-3.7792,-3.8428,-3.8799,-3.9121,-3.9299,-3.9299,-3.9299,-3.9299,-3.9299,-3.9299,-3.9299,-3.9282,-3.8907,-3.8742,-3.8692,-3.7963,-3.6852,-3.5475,-3.4317,-3.322,-3.2193,-3.1311,-3.0975,-3.0922,-3.0648,-3.0552,-3.0552,-3.0552,-3.0552,-3.0552,-3.0552,-3.0552,-3.0552,-3.0552,-3.0552,-3.0552,-3.0552,-3.0552,-3.0552,-3.0552,-3.0552,-3.0642,-3.0956,-3.0987,-3.1092,-3.1436,-3.1511,-3.1511,-3.1511,-3.0957,-3.0552,-3.0552,-3.0552,-3.0552,-3.0552,-3.0821,-3.0987,-3.0987,-3.1301,-3.1511,-3.1511,-3.1511,-3.1212,-3.0552,-2.9909,-2.9265,-2.8622,-2.8263,-2.7944,-2.76,-2.76,-2.76,-2.76,-2.76,-2.76,-2.76,-2.76,-2.76,0.0,0.0,0.0,0.0,0.0,0.0,0.0,-3.4562,-3.4949,-3.5769,-3.572,-3.5681,-3.6201,-3.6387,-3.634,-3.5975,-3.5558,-3.5285,-3.5296,-3.405,-3.2777,-3.1944,-3.2995,-3.3599,-3.3106,-3.4095,-3.4597,-3.4106,-3.5732,-3.6487,-3.5809,-3.7387,-3.808,-3.7605,-3.8181,-3.849,-3.849,-3.9023,-3.9299,-3.9299,-3.9299,-3.9299,-3.9299,-3.9299,-3.9299,-3.9299,-3.9299,-3.9299,-3.9249,-3.8659,-3.7564,-3.6276,-3.5713,-3.4397,-3.2683,-3.1951,-3.1777,-3.1834,-3.1569,-3.1511,-3.1511,-3.1511,-3.1511,-3.1511,-3.1511,-3.1511,-3.1511,-3.1511,-3.1511,-3.1511,-3.1511,-3.1511,-3.1511,-3.1511,-3.1511,-3.1511,-3.1511,-3.1511,-3.1511,-3.1511,-3.1511,-3.1511,-3.1511,-3.1511,-3.1511,-3.1511,-3.1511,-3.1511,-3.1511,-3.1511,-3.1511,-3.1511,-3.1511,-3.1511,-3.1511,-3.1511,-3.1271,-3.0746,-3.0567,-2.9998,-2.8846,-2.8667,-2.8278,-2.76,-2.76,-2.76,-2.76,-2.76,-2.76,-2.76,-2.76,-2.76,-3.2919,-3.3659,-3.3993,-3.3605,-3.3935,-3.4407,0.0,-3.4558,-3.51,-3.6477,-3.6753,-3.6905,-3.7555,-3.7318,-3.6875,-3.6483,-3.5736,-3.4986,-3.4373,-3.4826,-3.4691,-3.3184,-3.2811,-3.3326,-3.493,-3.5748,-3.6159,-3.6072,-3.7338,-3.7825,-3.7214,-3.7889,-3.8278,-3.8193,-3.8843,-3.9175,-3.9175,-3.9272,-3.9299,-3.9299,-3.9299,-3.9299,-3.9299,-3.9299,-3.9299,-3.9299,-3.9299,-3.9299,-3.9299,-3.9216,-3.8345,-3.7019,-3.6501,-3.5383,-3.3943,-3.2795,-3.2745,-3.3043,-3.1892,-3.1511,-3.1511,-3.1511,-3.1511,-3.1511,-3.1511,-3.1511,-3.1511,-3.1511,-3.1511,-3.1511,-3.1511,-3.1511,-3.1511,-3.1511,-3.1511,-3.1511,-3.1511,-3.1511,-3.1511,-3.1511,-3.1511,-3.1511,-3.1511,-3.1511,-3.1511,-3.1511,-3.1511,-3.1511,-3.1511,-3.1511,-3.1511,-3.1511,-3.1511,-3.1511,-3.1511,-3.1511,-3.1466,-3.1391,-3.0823,-3.0193,-2.9532,-2.8906,-2.8278,-2.76,-2.76,-2.76,-2.76,-2.76,-2.76,-2.76,-2.76,-2.76,-3.3339,-3.3935,-3.4356,-3.4095,-3.4211,-3.4394,-3.4387,-3.4629,-3.5151,-3.6368,-3.6615,-3.6845,-3.7576,-3.737,-3.7111,-3.715,-3.6379,-3.5845,-3.5991,-3.5319,-3.5031,-3.5702,-3.4668,-3.4258,-3.5203,-3.6195,-3.6692,-3.6409,-3.6824,-3.7011,-3.6845,-3.7413,-3.778,-3.778,-3.8395,-3.8535,-3.8197,-3.8942,-3.9104,-3.8717,-3.9104,-3.9299,-3.9299,-3.9299,-3.9299,-3.9299,-3.9299,-3.9299,-3.9299,-3.9299,-3.8526,-3.7291,-3.7089,-3.6178,-3.4832,-3.3561,-3.3246,-3.3335,-3.2406,-3.2079,-3.2019,-3.163,-3.1511,-3.1511,-3.1511,-3.1511,-3.1511,-3.1511,-3.1511,-3.1511,-3.1511,-3.1511,-3.1511,-3.1511,-3.1511,-3.1511,-3.1511,-3.1511,-3.1511,-3.1511,-3.1511,-3.1511,-3.1511,-3.1511,-3.1511,-3.1511,-3.1511,-3.1511,-3.1511,-3.1511,-3.1511,-3.1511,-3.1511,-3.1511,-3.1511,-3.1511,-3.1511,-3.1511,-3.1241,-3.0778,-3.0148,-2.9849,-2.922,-2.8188,-2.8173,-2.8004,-2.76,-2.76,-2.76,-2.76,-2.76,-2.76,-3.3751,-3.4066,-3.4414,-3.4414,-3.4414,-3.4414,-3.4414,-3.4635,-3.5118,-3.5977,-3.6212,-3.6477,-3.7189,-3.7025,-3.6814,-3.695,-3.6492,-3.6243,-3.6616,-3.5768,-3.563,-3.6933,-3.6227,-3.563,-3.56,-3.6473,-3.7011,-3.6875,-3.6616,-3.6523,-3.6662,-3.7131,-3.7399,-3.7399,-3.7994,-3.7994,-3.7399,-3.8495,-3.8772,-3.8322,-3.8799,-3.9023,-3.9023,-3.9023,-3.9121,-3.9299,-3.9299,-3.9218,-3.9023,-3.9023,-3.8282,-3.7131,-3.7131,-3.6461,-3.5385,-3.4412,-3.3918,-3.3664,-3.3021,-3.2781,-3.2677,-3.1989,-3.178,-3.1735,-3.1497,-3.1438,-3.1453,-3.1395,-3.1395,-3.1395,-3.1395,-3.1395,-3.1395,-3.1395,-3.1395,-3.1395,-3.1395,-3.1395,-3.1395,-3.1453,-3.1438,-3.1467,-3.1511,-3.1511,-3.1511,-3.1511,-3.1511,-3.1511,-3.1511,-3.1511,-3.1511,-3.1511,-3.1511,-3.1511,-3.1511,-3.1511,-3.1511,-3.1511,-3.1511,-3.1197,-3.0537,-3.0507,-2.9998,-2.8891,-2.8697,-2.8353,-2.7884,-2.769,-2.76,-2.76,-2.76,-2.76,-3.437,-3.4399,-3.4414,-3.4414,-3.4414,-3.4414,-3.4414,-3.4563,-3.4868,-3.5514,-3.577,-3.6055,-3.6554,-3.6259,-3.5849,-3.5529,-3.5721,-3.564,-3.4883,-3.6337,-3.7054,-3.5896,-3.6798,-3.7277,0.0,-3.6783,-3.7221,-3.7985,-3.7429,-3.7145,-3.737,-3.7399,-3.7399,-3.7399,-3.7994,-3.7994,-3.7399,-3.8023,-3.8306,-3.8306,-3.8306,-3.8351,-3.8351,-3.8351,-3.8689,-3.9299,-3.9299,-3.8925,-3.8351,-3.8351,-3.7589,-3.643,-3.643,-3.6053,-3.5504,-3.5459,-3.5026,-3.4384,-3.3694,-3.3469,-3.3365,-3.2706,-3.2452,-3.2333,-3.1529,-3.1307,-3.1292,-3.1132,-3.1102,-3.1102,-3.1102,-3.1102,-3.1102,-3.1102,-3.1102,-3.1102,-3.1102,-3.1102,-3.1132,-3.1292,-3.1307,-3.1351,-3.1467,-3.1511,-3.1511,-3.1511,-3.1511,-3.1511,-3.1511,-3.1511,-3.1511,-3.1511,-3.1511,-3.1511,-3.1511,-3.1511,-3.1511,-3.1511,-3.1511,-3.1197,-3.0537,-3.0507,-3.0208,-2.9592,-2.8921,-2.8592,-2.8562,-2.7929,-2.76,-2.76,-2.76,-2.76,-3.4414,-3.4414,-3.4414,-3.4414,-3.4414,-3.4414,-3.4414,-3.4563,-3.4883,-3.5544,-3.5785,-3.5913,-3.6008,-3.5944,-3.5785,-3.5464,-3.5689,-3.5881,-3.5849,-3.6523,-3.6799,-3.6244,-3.6538,0.0,0.0,0.0,0.0,-3.6799,-3.6102,-3.58,-3.6116,-3.6148,-3.6148,-3.6148,-3.7161,-3.7383,-3.6753,-3.8226,-3.8745,-3.8306,-3.8306,-3.8306,-3.8306,-3.8306,-3.8435,-3.8645,-3.8645,-3.8507,-3.8278,-3.7879,-3.7191,-3.6399,-3.6399,-3.6022,-3.5472,-3.5359,-3.5145,-3.488,-3.4209,-3.3971,-3.3835,-3.3072,-3.2834,-3.2715,-3.1973,-3.1767,-3.1678,-3.1235,-3.1117,-3.1117,-3.1117,-3.1117,-3.1117,-3.1117,-3.1117,-3.1117,-3.1117,-3.1117,-3.1102,-3.1161,-3.1161,-3.119,-3.122,-3.1292,-3.1409,-3.1511,-3.1511,-3.1511,-3.1511,-3.1511,-3.1511,-3.1511,-3.1511,-3.1511,-3.1511,-3.1511,-3.1511,-3.1511,-3.1511,-3.1406,-3.1167,-3.1152,-3.0866,-3.0208,-2.9983,-2.9445,-2.8607,-2.8368,-2.8034,-2.76,-2.76,-2.76,-3.4414,-3.4414,-3.4414,-3.4414,-3.4414,-3.4414,-3.4414,-3.4481,-3.4716,-3.5151,-3.5365,-3.5429,-3.5267,-3.5544,-3.5672,-3.5121,-3.54,-3.5817,-3.6009,-3.6368,-3.6554,-3.6415,-3.6415,-3.6322,0.0,0.0,0.0,-3.5975,-3.5282,-3.4949,-3.5261,-3.5294,-3.5326,-3.5392,-3.643,-3.6784,-3.6399,-3.7883,-3.8507,-3.8306,-3.808,-3.821,-3.8662,-3.8407,-3.8435,-3.8662,-3.8662,-3.8535,-3.825,-3.7648,-3.7011,-3.6368,-3.6086,-3.5735,-3.5359,-3.518,-3.5082,-3.5041,-3.4611,-3.4448,-3.4327,-3.3596,-3.3357,-3.3225,-3.2483,-3.2247,-3.2115,-3.1438,-3.1232,-3.1174,-3.0984,-3.0925,-3.0925,-3.0925,-3.0925,-3.0925,-3.0925,-3.0925,-3.0955,-3.0984,-3.0984,-3.1014,-3.1087,-3.1205,-3.1322,-3.1409,-3.1467,-3.1511,-3.1511,-3.1511,-3.1511,-3.1511,-3.1511,-3.1511,-3.1511,-3.1511,-3.1511,-3.1511,-3.1511,-3.1511,-3.1511,-3.1511,-3.1301,-3.0881,-3.0627,-3.0103,-2.928,-2.9056,-2.8607,-2.7959,-2.7959,-2.7839,-3.4414,-3.4414,-3.4414,-3.4414,-3.4414,-3.4414,-3.4414,-3.4414,-3.4414,-3.4414,-3.4563,-3.4631,-3.4448,-3.5118,-3.5429,-3.4601,-3.5055,-3.5497,-3.5464,-3.6024,-3.6415,-3.6353,-3.6353,-3.6072,-3.54,0.0,0.0,-3.5559,0.0,-3.475,-3.4902,-3.4902,-3.5001,-3.518,-3.5831,-3.6258,-3.6399,-3.7071,-3.7706,-3.8278,-3.7677,-3.801,-3.9175,-3.859,-3.8618,-3.9202,-3.9245,-3.8898,-3.825,-3.7648,-3.7011,-3.6368,-3.5557,-3.5246,-3.5213,-3.4968,-3.4902,-3.4902,-3.4868,-3.4902,-3.4798,-3.4227,-3.4021,-3.3871,-3.3018,-3.275,-3.2587,-3.1789,-3.1538,-3.1424,-3.0816,-3.0656,-3.0641,-3.0612,-3.0598,-3.0598,-3.0598,-3.0598,-3.0642,-3.0762,-3.0791,-3.0851,-3.1043,-3.1176,-3.1292,-3.1292,-3.1409,-3.1467,-3.1511,-3.1511,-3.1511,-3.1511,-3.1511,-3.1511,-3.1511,-3.1511,-3.1511,-3.1511,-3.1511,-3.1511,-3.1511,-3.1511,-3.1511,-3.1511,-3.0896,-3.0537,-3.0507,-2.9924,-2.9295,-2.8652,-2.8622,-2.8248,-3.4534,-3.4414,-3.4414,-3.4414,-3.4414,-3.4414,-3.4414,-3.4414,-3.4448,-3.4597,-3.4563,-3.4515,-3.4597,-3.5216,-3.5591,-3.5219,-3.6259,-3.6906,-3.6244,-3.6707,-3.6768,-3.577,-3.5642,-3.54,-3.4721,-3.4501,0.0,0.0,-3.4716,-3.475,-3.4902,-3.4902,-3.4935,-3.4968,-3.5623,-3.6054,-3.6258,-3.7011,-3.7706,-3.8278,-3.7677,-3.7576,-3.7895,-3.8165,-3.8153,-3.7895,-3.8367,-3.8463,-3.825,-3.7648,-3.7221,-3.686,-3.618,-3.5847,-3.564,-3.5001,-3.475,-3.4716,-3.4582,-3.4616,-3.4687,-3.4393,-3.4301,-3.4185,-3.3511,-3.3289,-3.3143,-3.244,-3.2234,-3.2075,-3.1453,-3.1279,-3.1163,-3.0714,-3.0598,-3.0598,-3.0598,-3.0598,-3.0598,-3.0642,-3.0642,-3.0702,-3.0851,-3.091,-3.0969,-3.1132,-3.119,-3.1278,-3.1467,-3.1511,-3.1511,-3.1511,-3.1511,-3.1511,-3.1511,-3.1511,-3.1511,-3.1511,-3.1511,-3.1511,-3.1511,-3.1511,-3.1511,-3.1511,-3.1331,-3.0987,-3.0507,-3.0342,-2.9939,-2.9325,-2.8831,-2.8502,-3.4601,-3.4414,-3.4414,-3.4414,-3.4414,-3.4414,-3.4414,-3.4414,-3.4414,-3.4563,-3.4481,-3.4414,-3.4563,-3.5118,-3.5447,-3.5037,-3.6196,-3.6952,-3.6477,-3.6738,-3.6677,-3.5929,-3.5578,-3.5154,-3.4481,-3.4414,-3.4414,0.0,-3.4481,-3.4616,-3.4668,-3.4668,-3.4702,-3.4817,-3.5184,-3.5623,-3.6196,-3.6569,-3.7145,-3.7908,-3.7191,-3.7041,-3.7429,-3.8023,-3.8124,-3.7822,0.0,-3.8562,-3.8266,-3.7867,-3.731,-3.6662,-3.618,-3.572,-3.5314,-3.4783,-3.4563,-3.4563,-3.4448,-3.4481,-3.4563,-3.4448,-3.4414,-3.4356,-3.3993,-3.3877,-3.3746,-3.3108,-3.2933,-3.2788,-3.2121,-3.1712,-3.1424,-3.1076,-3.0801,-3.0598,-3.0598,-3.0598,-3.0598,-3.0598,-3.0598,-3.0612,-3.0702,-3.0762,-3.0821,-3.0955,-3.1043,-3.1132,-3.1307,-3.1336,-3.1336,-3.1336,-3.1336,-3.1366,-3.1409,-3.1409,-3.1438,-3.1511,-3.1511,-3.1511,-3.1511,-3.1511,-3.1511,-3.1511,-3.1511,-3.1316,-3.0956,-3.0956,-3.0612,-2.9983,-2.9609,-2.9295,-3.4691,-3.4481,-3.4414,-3.4414,-3.4481,-3.4501,-3.4414,-3.4481,-3.4501,-3.4414,-3.4414,-3.4414,-3.4414,-3.4938,-3.5219,-3.462,-3.5642,-3.6508,-3.6415,-3.6415,-3.6384,-3.6291,-3.5674,-3.5023,-3.4448,-3.4414,-3.4414,-3.4414,-3.4414,-3.4414,-3.4414,-3.4414,-3.4481,-3.4664,-3.4698,-3.5115,-3.5975,-3.5832,-3.6244,-3.7191,-3.6492,-3.6523,-3.7205,-3.7908,-3.8193,-3.8137,-3.8816,-3.8772,-3.8222,-3.8026,-3.7266,-3.6227,-3.5847,-3.5314,-3.475,-3.4515,-3.4414,-3.4414,-3.4414,-3.4414,-3.4414,-3.4414,-3.4414,-3.4414,-3.4414,-3.4414,-3.4298,-3.3779,-3.3634,-3.3474,-3.2803,-3.2208,-3.1729,-3.1524,-3.1105,-3.0714,-3.0627,-3.0598,-3.0598,-3.0598,-3.0598,-3.0598,-3.0598,-3.0702,-3.0762,-3.0762,-3.0925,-3.1014,-3.1014,-3.1087,-3.1117,-3.1117,-3.1117,-3.1132,-3.1263,-3.1263,-3.1322,-3.1467,-3.1467,-3.1467,-3.1511,-3.1511,-3.1511,-3.1511,-3.1511,-3.1511,-3.1511,-3.1511,-3.1168,-3.0486,-3.0397,-3.0041,-3.525,-3.4806,-3.4414,-3.4414,-3.482,-3.5088,-3.4534,-3.4839,-3.5055,-3.4501,-3.4414,-3.4414,-3.4414,-3.4938,-3.5367,-3.5252,-3.6337,-3.7027,-3.6477,-3.6415,-3.6197,-3.5642,-3.499,-3.4534,-3.4414,-3.4414,0.0,0.0,-3.4414,-3.4414,-3.4414,-3.4414,-3.4414,-3.4448,-3.4597,-3.4798,-3.4949,-3.5034,-3.5447,-3.6165,-3.6008,-3.6039,-3.6181,-3.7368,-3.7618,-3.7191,-3.7793,0.0,-3.7835,-3.7263,-3.6828,-3.6477,-3.585,-3.5482,-3.5219,-3.4635,-3.4414,-3.4414,-3.4414,-3.4414,-3.4414,-3.4414,-3.4414,-3.4414,-3.4414,-3.4414,-3.4385,-3.4283,-3.424,-3.4109,-3.3503,-3.3242,-3.2861,-3.1772,-3.1438,-3.1221,-3.0714,-3.0598,-3.0598,-3.0598,-3.0598,-3.0598,-3.0598,-3.0612,-3.0642,-3.0642,-3.0672,-3.0702,-3.0702,-3.0925,-3.1117,-3.1117,-3.1117,-3.1117,-3.1132,-3.1132,-3.119,-3.1322,-3.1322,-3.138,-3.1511,-3.1511,-3.1511,-3.1511,-3.1511,-3.1511,-3.1511,-3.1511,-3.116,-3.0498,-2.993,-2.9319,-3.5366,-3.4905,-3.4414,-3.4414,-3.4635,-3.4787,-3.4467,-3.4668,-3.4787,-3.4481,-3.4414,-3.4414,-3.4414,-3.4654,-3.4872,-3.4872,-3.5992,-3.6768,-3.6446,-3.6415,-3.6291,-3.5946,-3.5023,-3.4414,-3.4414,-3.4414,-3.4414,-3.4414,-3.4414,-3.4414,-3.4414,-3.4414,-3.4414,-3.4414,-3.4481,-3.4597,-3.4698,-3.465,-3.4887,-3.5397,-3.5299,-3.5299,-3.5415,-3.6384,-3.6661,-3.6399,-3.701,-3.7084,-3.6814,-3.6737,-3.6275,-3.5593,-3.5514,-3.5237,-3.4839,-3.4501,-3.4414,-3.4414,-3.4414,-3.4414,-3.4414,-3.4414,-3.4414,-3.4414,-3.4414,-3.4414,-3.4414,-3.4414,-3.4414,-3.4341,-3.4037,-3.375,-3.3256,-3.2266,-3.1526,-3.0945,-3.067,-3.0598,-3.0598,-3.0598,-3.0598,-3.0598,-3.0598,-3.0598,-3.0598,-3.0598,-3.0598,-3.0598,-3.0598,-3.0732,-3.0821,-3.0821,-3.0821,-3.0866,-3.0955,-3.0955,-3.1014,-3.119,-3.119,-3.1278,-3.138,-3.1336,-3.1366,-3.1511,-3.1438,-3.1438,-3.1511,-3.1161,-3.0807,-3.048,-2.9802,-2.9312,-3.5543,-3.5252,-3.4754,-3.4481,-3.4635,-3.4754,-3.4481,-3.4501,-3.4568,-3.4448,-3.4414,-3.4414,-3.4414,-3.4414,-3.4414,-3.4414,-3.54,-3.6197,-3.6197,-3.6197,-3.6197,-3.6197,-3.5121,-3.4414,-3.4414,-3.4414,0.0,-3.4414,-3.4414,-3.4414,-3.4414,-3.4414,-3.4414,-3.4414,-3.4414,-3.4481,-3.4631,-3.4481,-3.4534,-3.4802,-3.4683,-3.4683,-3.4835,-3.5479,-3.5785,-3.5817,-3.6306,-3.6213,-3.5817,-3.604,-3.5529,-3.465,-3.5037,-3.4872,-3.4414,-3.4414,-3.4414,-3.4414,-3.4414,-3.4414,-3.4414,-3.4414,-3.4414,-3.4414,-3.4414,-3.4414,-3.4414,-3.4414,-3.4414,-3.4414,-3.4414,-3.4051,-3.3503,-3.2701,-3.1627,-3.0772,-3.0641,-3.0598,-3.0598,-3.0598,-3.0598,-3.0598,-3.0598,-3.0598,-3.0598,-3.0598,-3.0598,-3.0598,-3.0598,-3.0598,-3.0598,-3.0598,-3.0598,-3.0642,-3.0762,-3.0762,-3.0821,-3.1014,-3.1043,-3.1102,-3.1263,-3.1161,-3.1205,-3.1424,-3.1322,-3.1322,-3.1424,-3.0718,-3.0329,-3.0178,-2.9473,-2.9129,-3.6122,-3.6259,-3.5914,-3.4687,-3.5302,-3.5882,-3.4687,-3.4872,-3.5154,-3.4534,-3.4414,-3.4414,-3.4414,-3.4414,-3.4414,-3.4414,-3.499,-3.5482,-3.5482,-3.5482,-3.5482,-3.5482,-3.4839,-3.4414,-3.4414,-3.4414,-3.4414,-3.4414,-3.4414,-3.4414,-3.4414,-3.4414,-3.4414,-3.4414,-3.4414,-3.4414,-3.4414,-3.4414,-3.4414,-3.4448,-3.4448,-3.4448,-3.4481,-3.5154,-3.5464,-3.5464,-3.5482,-3.5497,0.0,-3.4839,-3.4534,-3.4414,-3.4481,-3.4433,-3.4414,-3.4414,-3.4414,-3.4414,-3.4414,-3.4414,-3.4414,-3.4414,-3.4414,-3.4414,-3.4414,-3.4414,-3.4414,-3.4414,-3.4414,-3.4414,-3.4414,-3.437,-3.4022,-3.2771,-3.193,-3.1279,-3.0728,-3.0598,-3.0598,-3.0598,-3.0598,-3.0598,-3.0598,-3.0598,-3.0598,-3.0598,-3.0598,-3.0598,-3.0598,-3.0598,-3.0598,-3.0598,-3.0598,-3.0598,-3.0612,-3.0612,-3.0672,-3.0821,-3.0821,-3.0925,-3.1102,-3.1117,-3.1117,-3.1146,-3.1102,-3.1102,-3.1146,-3.0404,-2.9721,-2.9129,-2.846,-2.7901,-3.6198,-3.6103,-3.5578,-3.462,-3.482,-3.507,-3.4534,-3.4601,-3.4721,-3.4448,-3.4414,-3.4414,-3.4414,-3.4414,-3.4414,-3.4414,-3.4971,-3.54,-3.54,-3.54,-3.54,-3.54,-3.482,-3.4414,0.0,0.0,-3.4414,-3.4414,-3.4414,-3.4414,-3.4414,-3.4414,-3.4414,-3.4414,-3.4414,-3.4414,-3.4414,-3.4414,-3.4414,-3.4414,-3.4414,-3.4414,-3.4414,-3.4687,-3.482,-3.482,-3.482,-3.482,0.0,-3.4501,-3.4414,-3.4414,-3.4414,-3.4414,-3.4414,-3.4414,-3.4414,-3.4414,-3.4414,-3.4414,-3.4414,-3.4414,-3.4414,-3.4414,-3.4414,-3.4414,-3.4414,-3.4414,-3.4414,-3.4414,-3.4414,-3.4124,-3.3616,-3.273,-3.1973,-3.1337,-3.0743,-3.0598,-3.0598,-3.0598,-3.0598,-3.0598,-3.0598,-3.0598,-3.0598,-3.0598,-3.0598,-3.0598,-3.0598,-3.0598,-3.0598,-3.0598,-3.0598,-3.0598,-3.0598,-3.0598,-3.0612,-3.0672,-3.0672,-3.0762,-3.0925,-3.0821,-3.0895,-3.1117,-3.0984,-3.0747,-3.0448,-2.9735,-2.9066,-2.8363,-2.7716,-2.7289,-3.6198,-3.6197,-3.5785,-3.4905,-3.4687,-3.4687,-3.4687,-3.4534,-3.4414,-3.4414,-3.4414,-3.4414,-3.4414,-3.4414,-3.4414,-3.4414,-3.482,-3.5172,-3.5367,-3.5252,-3.5187,-3.5367,-3.482,-3.4414,-3.4414,-3.4414,-3.4414,-3.4414,-3.4414,-3.4414,-3.4414,-3.4414,-3.4414,-3.4414,-3.4414,-3.4414,-3.4414,-3.4414,-3.4414,-3.4414,-3.4414,-3.4414,-3.4414,-3.4414,-3.4414,-3.4414,-3.4414,-3.4414,0.0,-3.4414,-3.4414,-3.4414,-3.4414,-3.4414,-3.4414,-3.4414,-3.4414,-3.4414,-3.4414,-3.4414,-3.4414,-3.4414,-3.4414,-3.4414,-3.4414,-3.4414,-3.4414,-3.4414,-3.4414,-3.4414,-3.4414,-3.408,-3.3543,-3.2716,-3.2133,-3.1584,-3.0786,-3.0598,-3.0598,-3.0598,-3.0598,-3.0598,-3.0598,-3.0598,-3.0598,-3.0598,-3.0598,-3.0598,-3.0598,-3.0598,-3.0598,-3.0598,-3.0598,-3.0598,-3.0598,-3.0598,-3.0598,-3.0598,-3.0598,-3.0642,-3.0732,-3.0642,-3.0702,-3.0955,-3.0612,-3.0251,-2.9872,-2.9002,-2.8298,-2.7835,-2.7154,-2.6875,-3.6213,-3.6875,-3.7072,-3.5706,-3.54,-3.54,-3.54,-3.4872,-3.4414,-3.4414,-3.4414,-3.4414,-3.4414,-3.4414,-3.4414,-3.4414,-3.4414,-3.4635,-3.5302,-3.4839,-3.4668,-3.5335,-3.482,-3.4414,-3.4414,-3.4414,-3.4414,-3.4414,-3.4414,0.0,-3.4414,-3.4414,-3.4414,-3.4414,-3.4414,-3.4414,-3.4414,-3.4414,-3.4414,-3.4414,-3.4414,-3.4414,-3.4414,-3.4414,-3.4414,-3.4414,-3.4414,-3.4414,0.0,-3.4414,-3.4414,-3.4414,-3.4414,-3.4414,-3.4414,-3.4414,-3.4414,-3.4414,-3.4414,-3.4414,-3.4414,-3.4414,-3.4414,-3.4414,-3.4414,-3.4414,-3.4414,-3.4414,-3.4414,-3.4414,-3.4414,-3.4414,-3.408,-3.2785,-3.2481,-3.215,-3.0888,-3.0598,-3.0598,-3.0598,-3.0598,-3.0598,-3.0598,-3.0598,-3.0598,-3.0598,-3.0598,-3.0598,-3.0598,-3.0598,-3.0598,-3.0598,-3.0598,-3.0598,-3.0598,-3.0598,-3.0598,-3.0598,-3.0598,-3.0598,-3.0598,-3.0598,-3.0598,-3.0598,-2.9931,-2.9623,-2.9591,-2.8195,-2.7517,-2.7484,-2.6816,-2.6589,-3.6261,-3.6516,-3.6508,-3.561,-3.507,-3.4721,-3.4721,-3.4568,-3.4414,-3.4414,-3.4414,-3.4414,-3.4414,-3.4414,-3.4414,-3.4414,-3.4414,-3.4467,-3.4687,-3.4534,-3.4481,-3.4687,-3.4534,-3.4414,0.0,0.0,-3.4414,-3.4414,-3.4414,-3.4414,-3.4414,-3.4414,-3.4414,-3.4414,-3.4414,-3.4414,-3.4414,-3.4414,-3.4414,-3.4414,-3.4414,-3.4414,-3.4414,-3.4414,-3.4414,-3.4414,-3.4414,-3.4414,-3.4414,-3.4414,-3.4414,-3.4414,-3.4414,-3.4414,-3.4414,-3.4414,-3.4414,-3.4414,-3.4414,-3.4414,-3.4414,-3.4414,-3.4414,-3.4414,-3.4414,-3.4414,-3.4414,-3.4414,-3.4414,-3.4414,-3.4414,-3.4414,-3.4196,-3.3369,-3.2832,-3.2249,-3.1409,-3.0872,-3.0598,-3.0598,-3.0598,-3.0598,-3.0598,-3.0598,-3.0598,-3.0598,-3.0598,-3.0598,-3.0598,-3.0598,-3.0598,-3.0598,-3.0598,-3.0598,-3.0598,-3.0598,-3.0598,-3.0598,-3.0598,-3.0598,-3.0598,-3.0598,-3.0387,-2.9931,-2.9716,-2.9139,-2.8163,-2.7703,-2.7263,-2.6816,-2.6589,-2.6521,-3.6216,-3.6344,-3.6291,-3.5882,-3.5088,-3.4481,-3.4721,-3.4601,-3.4414,-3.4414,-3.4414,-3.4414,-3.4414,-3.4414,-3.4414,-3.4414,-3.4414,-3.4414,-3.4414,-3.4414,-3.4414,-3.4414,-3.4414,0.0,0.0,-3.4414,-3.4414,-3.4414,-3.4414,-3.4414,-3.4414,-3.4414,-3.4414,-3.4414,-3.4414,-3.4414,-3.4414,-3.4414,-3.4414,-3.4414,-3.4414,-3.4414,-3.4414,-3.4414,-3.4414,-3.4414,-3.4414,-3.4414,0.0,-3.4414,-3.4414,-3.4414,-3.4414,-3.4414,-3.4414,-3.4414,-3.4414,-3.4414,-3.4414,-3.4414,-3.4414,-3.4414,-3.4414,-3.4414,-3.4414,-3.4414,-3.4414,-3.4414,-3.4414,-3.4414,-3.4414,-3.4414,-3.4254,-3.3649,-3.2977,-3.2338,-3.1625,-3.1032,-3.0598,-3.0598,-3.0598,-3.0598,-3.0598,-3.0598,-3.0598,-3.0598,-3.0598,-3.0598,-3.0598,-3.0598,-3.0598,-3.0598,-3.0598,-3.0598,-3.0598,-3.0598,-3.0598,-3.0598,-3.0598,-3.0598,-3.0598,-3.0598,-3.0282,-2.9623,-2.9328,-2.8634,-2.7517,-2.7263,-2.6905,-2.6499,-2.6499,-2.6499,0.0,-3.6296,-3.6322,-3.6399,-3.54,-3.4568,-3.5187,-3.4839,0.0,-3.4414,-3.4414,-3.4414,-3.4414,-3.4414,-3.4414,-3.4414,-3.4414,-3.4414,-3.4414,-3.4414,-3.4414,-3.4414,-3.4414,0.0,-3.4414,-3.4414,-3.4414,-3.4414,-3.4414,-3.4414,-3.4414,-3.4414,-3.4414,-3.4414,-3.4414,-3.4414,-3.4414,-3.4414,-3.4414,-3.4414,-3.4414,-3.4414,-3.4414,-3.4414,-3.4414,0.0,-3.4414,-3.4414,-3.4414,-3.4414,-3.4414,-3.4414,-3.4414,-3.4414,-3.4414,-3.4414,-3.4414,-3.4414,-3.4414,-3.4414,-3.4414,-3.4414,-3.4414,-3.4414,-3.4414,-3.4414,-3.4414,-3.4414,-3.4414,-3.4414,-3.4414,-3.4414,-3.4254,-3.3649,-3.2977,-3.2338,-3.1625,-3.1032,-3.0598,-3.0598,-3.0598,-3.0598,-3.0598,-3.0598,-3.0598,-3.0598,-3.0598,-3.0598,-3.0598,-3.0598,-3.0598,-3.0598,-3.0598,-3.0598,-3.0598,-3.0598,-3.0598,-3.0598,-3.0598,-3.0598,-3.0598,-3.0538,-3.0221,-2.9515,-2.8762,-2.8051,-2.7417,-2.6816,-2.6499,-2.6499,-2.6499,-2.6499,-3.6168,0.0,-3.5692,-3.6245,-3.54,-3.4448,0.0,-3.4501,-3.4414,-3.4414,-3.4414,-3.4414,-3.4414,-3.4414,-3.4414,-3.4414,-3.4414,-3.4414,-3.4414,-3.4414,-3.4414,-3.4414,-3.4414,-3.4414,-3.4414,-3.4414,-3.4414,-3.4414,-3.4414,-3.4414,-3.4414,-3.4414,-3.4414,-3.4414,-3.4414,-3.4414,-3.4414,-3.4414,-3.4414,-3.4414,-3.4414,-3.4414,-3.4414,-3.4414,-3.4414,-3.4414,-3.4414,-3.4414,-3.4414,-3.4414,-3.4414,-3.4414,-3.4414,-3.4414,-3.4414,-3.4414,-3.4414,-3.4414,-3.4414,-3.4414,-3.4414,-3.4414,-3.4414,-3.4414,-3.4414,-3.4414,-3.4414,-3.4414,-3.4414,-3.4414,-3.4414,-3.4414,-3.4254,-3.3649,-3.2977,-3.2338,-3.1625,-3.1032,-3.0598,-3.0598,-3.0598,-3.0598,-3.0598,-3.0598,-3.0598,-3.0598,-3.0598,-3.0598,-3.0598,-3.0598,-3.0598,-3.0598,-3.0598,-3.0598,-3.0598,-3.0598,-3.0598,-3.0598,-3.0598,-3.0598,-3.0598,-3.0099,-2.9515,-2.8762,-2.7584,-2.6871,-2.6714,-2.6589,-2.6499,-2.6499,-2.6499,-2.6499,-3.5662,-3.582,-3.5852,-3.6292,-3.561,-3.4787,-3.4481,-3.4414,-3.4414,-3.4414,-3.4414,-3.4414,-3.4414,-3.4414,-3.4414,-3.4414,-3.4414,-3.4414,-3.4414,-3.4414,-3.4414,-3.4414,-3.4414,-3.4414,0.0,-3.4414,-3.4414,-3.4414,-3.4414,-3.4414,-3.4414,-3.4414,-3.4414,-3.4414,-3.4414,-3.4414,-3.4414,-3.4414,-3.4414,-3.4414,-3.4414,-3.4414,-3.4414,-3.4414,-3.4414,-3.4414,-3.4414,-3.4414,-3.4414,-3.4414,-3.4414,-3.4414,-3.4414,-3.4414,-3.4414,-3.4414,-3.4414,-3.4414,-3.4414,-3.4414,-3.4414,-3.4414,-3.4414,-3.4414,-3.4414,-3.4414,-3.4414,-3.4414,-3.4414,-3.4414,-3.4414,-3.4414,-3.4254,-3.3649,-3.2977,-3.2338,-3.1625,-3.1032,-3.0598,-3.0598,-3.0598,-3.0598,-3.0598,-3.0598,-3.0598,-3.0598,-3.0598,-3.0598,-3.0598,-3.0598,-3.0598,-3.0598,-3.0598,-3.0598,-3.0598,-3.0598,-3.0598,-3.0598,-3.0598,-3.0447,-3.016,-2.9777,-2.9093,-2.8051,-2.704,-2.6499,-2.6499,-2.6499,-2.6499,-2.6499,-2.6499,-2.6499,-3.5119,-3.5609,-3.6012,-3.6183,-3.5806,-3.5204,-3.4568,-3.4414,-3.4414,-3.4414,-3.4414,-3.4414,-3.4414,-3.4414,-3.4414,-3.4414,-3.4414,-3.4414,-3.4414,-3.4414,-3.4414,-3.4414,-3.4414,0.0,-3.4414,-3.4414,-3.4414,-3.4414,-3.4414,-3.4414,-3.4414,-3.4414,-3.4414,-3.4414,-3.4414,-3.4414,-3.4414,-3.4414,-3.4414,-3.4414,-3.4414,-3.4414,-3.4414,-3.4414,-3.4414,-3.4414,0.0,0.0,-3.4414,-3.4414,-3.4414,-3.4414,-3.4414,-3.4414,-3.4414,-3.4414,-3.4414,-3.4414,-3.4414,-3.4414,-3.4414,-3.4414,-3.4414,-3.4414,-3.4414,-3.4414,-3.4414,-3.4414,-3.4414,-3.4414,-3.4414,-3.4414,-3.4225,-3.3532,-3.2904,-3.2278,-3.154,-3.0945,-3.0598,-3.0598,-3.0598,-3.0598,-3.0598,-3.0598,-3.0598,-3.0598,-3.0598,-3.0598,-3.0598,-3.0598,-3.0598,-3.0598,-3.0598,-3.0598,-3.0598,-3.0507,-3.0477,-3.0598,-3.0598,-3.0251,-2.9453,-2.9328,-2.868,-2.7384,-2.6782,-2.6499,-2.6499,-2.6499,-2.6499,-2.6499,-2.6499,-2.6499,-3.5322,-3.5063,-3.4766,-3.5318,-3.5426,-3.5204,-3.4568,-3.4414,-3.4414,-3.4414,-3.4414,-3.4414,-3.4414,-3.4414,-3.4414,-3.4414,-3.4414,-3.4414,0.0,0.0,-3.4414,-3.4414,0.0,-3.4414,-3.4414,-3.4414,-3.4414,-3.4414,-3.4414,-3.4414,-3.4414,-3.4414,-3.4414,-3.4414,-3.4414,-3.4414,-3.4414,-3.4414,-3.4414,-3.4414,-3.4414,-3.4414,-3.4414,-3.4414,-3.4414,-3.4414,0.0,-3.4414,-3.4414,-3.4414,-3.4414,-3.4414,-3.4414,-3.4414,-3.4414,-3.4414,-3.4414,-3.4414,-3.4414,-3.4414,-3.4414,-3.4414,-3.4414,-3.4414,-3.4414,-3.4414,-3.4414,-3.4414,-3.4414,-3.4414,-3.4414,-3.4414,-3.4109,-3.2933,-3.2553,-3.2193,-3.0974,-3.067,-3.0598,-3.0598,-3.0598,-3.0598,-3.0598,-3.0598,-3.0598,-3.0598,-3.0598,-3.0598,-3.0598,-3.0598,-3.0598,-3.0598,-3.0598,-3.0598,-3.0598,-3.0068,-3.0007,-3.0568,-3.0598,-3.0023,-2.873,-2.8117,-2.7451,-2.6692,-2.6555,-2.6499,-2.6499,-2.6499,-2.6499,-2.6499,-2.6499,-2.6499,-3.4857,-3.4938,-3.4942,-3.4767,-3.479,-3.4701,-3.4043,-3.4167,-3.4414,-3.4414,-3.4414,-3.4414,-3.4414,-3.4414,-3.4414,-3.4414,-3.4414,-3.4414,-3.4414,-3.4414,-3.4414,0.0,0.0,-3.4414,-3.4414,-3.4414,-3.4414,-3.4414,-3.4414,-3.4414,-3.4414,-3.4414,-3.4414,-3.4414,-3.4414,-3.4414,-3.4414,-3.4414,-3.4414,-3.4414,-3.4414,-3.4414,-3.4414,-3.4414,-3.4414,-3.4414,0.0,-3.4414,-3.4414,-3.4414,-3.4414,-3.4414,-3.4414,-3.4414,-3.4414,-3.4414,-3.4414,-3.4414,-3.4414,-3.4414,-3.4414,-3.4414,-3.4414,-3.4414,-3.4414,-3.4414,-3.4414,-3.4414,-3.4414,-3.4414,-3.4414,-3.4167,-3.3674,-3.2745,-3.2205,-3.1714,-3.0816,-3.0598,-3.0598,-3.0598,-3.0598,-3.0598,-3.0598,-3.0598,-3.0598,-3.0598,-3.0598,-3.0598,-3.0598,-3.0598,-3.0598,-3.0598,-3.0598,-3.0447,-3.0099,-2.9777,-2.9546,-2.947,-2.947,-2.9016,-2.7986,-2.7317,-2.6816,-2.6499,-2.6499,-2.6499,-2.6499,-2.6499,-2.6499,-2.6499,-2.6499,-2.6499,-3.4472,-3.4741,-3.492,-3.4181,-3.4432,-3.4603,-3.3691,-3.3966,-3.4368,-3.423,-3.4196,-3.424,-3.4385,-3.4414,-3.4414,-3.4414,-3.4414,-3.4414,-3.4414,-3.4414,-3.4414,-3.4414,-3.4414,-3.4414,-3.4414,-3.4414,-3.4414,-3.4414,-3.4414,-3.4414,-3.4414,-3.4414,-3.4414,-3.4414,-3.4346,-3.4346,-3.4414,-3.4346,-3.4346,-3.4414,-3.4414,-3.4414,-3.4414,-3.4414,-3.4414,-3.4414,-3.4414,-3.4414,-3.4414,-3.4414,-3.4414,-3.4414,-3.4414,-3.4414,-3.4414,-3.4414,-3.4414,-3.4414,-3.4414,-3.4414,-3.4414,-3.4414,-3.4414,-3.4414,-3.4414,-3.4414,-3.4414,-3.4414,-3.4312,-3.4196,-3.4196,-3.3833,-3.33,-3.2469,-3.1857,-3.1337,-3.0743,-3.0598,-3.0598,-3.0598,-3.0598,-3.0598,-3.0598,-3.0598,-3.0598,-3.0598,-3.0598,-3.0598,-3.0598,-3.0598,-3.0598,-3.0598,-3.0598,-3.0251,-2.9421,-2.9345,-2.8967,-2.8084,-2.8182,-2.8051,-2.7517,-2.685,-2.6499,-2.6499,-2.6499,-2.6499,-2.6499,-2.6499,-2.6499,-2.6499,-2.6499,-2.6499,-3.4667,-3.4134,-3.3549,-3.3471,-3.4822,-3.5673,-3.3818,-3.3931,-3.425,-3.3678,-3.3561,-3.375,-3.4312,-3.4414,-3.4414,-3.4414,-3.4414,-3.4414,-3.4414,0.0,-3.4414,-3.4414,-3.4414,-3.4414,-3.4414,-3.4414,-3.4414,-3.4414,-3.4414,-3.4414,-3.4414,-3.4414,-3.4414,-3.4414,-3.423,-3.4196,-3.4414,-3.4196,-3.423,-3.4414,-3.4414,-3.4414,-3.4414,-3.4414,-3.4414,-3.4414,-3.4414,-3.4414,-3.4414,-3.4414,-3.4414,-3.4414,-3.4414,-3.4414,-3.4414,-3.4414,-3.4414,-3.4414,-3.4414,-3.4414,-3.4414,-3.4414,-3.4414,-3.4414,-3.4414,-3.4414,-3.4414,-3.4414,-3.3993,-3.3561,-3.3561,-3.3532,-3.3184,-3.1888,-3.1524,-3.1337,-3.0743,-3.0598,-3.0598,-3.0598,-3.0598,-3.0598,-3.0598,-3.0598,-3.0598,-3.0598,-3.0598,-3.0598,-3.0598,-3.0598,-3.0598,-3.0598,-3.0598,-3.0054,-2.8684,-2.8588,-2.8019,-2.6714,-2.7229,-2.7537,-2.7517,-2.685,-2.6499,-2.6499,-2.6499,-2.6499,-2.6499,-2.6499,-2.6499,-2.6499,-2.6499,-2.6499,-3.4618,-3.4333,-3.4027,-3.3892,-3.4721,-3.5122,-3.3229,-3.3304,-3.3731,-3.3532,-3.3184,-3.3079,-3.3703,-3.3819,-3.3949,-3.4356,-3.4414,-3.4283,-3.3877,-3.4167,-3.4269,-3.3862,-3.4167,-3.4414,-3.4414,-3.4414,-3.4414,-3.4414,-3.4414,-3.4414,-3.4414,-3.4414,-3.4414,-3.4414,-3.4346,-3.4312,-3.4414,-3.4312,-3.4312,-3.4414,-3.4414,-3.4414,-3.4414,-3.4414,-3.4414,-3.4414,-3.4414,-3.4414,-3.4414,-3.4414,-3.4414,-3.4414,-3.4414,-3.4414,-3.4414,-3.4414,-3.4414,-3.4414,-3.4414,-3.4414,-3.4414,-3.4414,-3.4414,-3.4414,-3.4414,-3.4414,-3.4327,-3.3935,-3.3692,-3.3503,-3.3503,-3.2893,-3.2135,-3.1642,-3.1221,-3.0872,-3.0656,-3.0598,-3.0598,-3.0598,-3.0598,-3.0598,-3.0598,-3.0598,-3.0598,-3.0598,-3.0598,-3.0598,-3.0598,-3.0598,-3.0598,-3.0598,-3.0221,-2.9577,-2.8588,-2.8117,-2.7484,-2.6555,-2.7129,-2.7317,-2.6905,-2.6624,-2.6499,-2.6499,-2.6499,-2.6499,-2.6499,-2.6499,-2.6499,-2.6499,-2.6499,-2.6499,-3.4618,-3.4497,-3.4399,-3.4201,-3.4524,-3.4424,-3.2776,-3.2914,-3.3306,-3.2937,-3.2672,-3.2643,-3.3093,-3.3166,-3.3311,0.0,-3.3819,-3.3659,-3.3224,-3.3543,-3.3732,-3.3532,-3.3848,-3.4196,-3.4385,-3.4414,-3.4414,-3.4414,-3.4414,-3.4414,-3.4414,-3.4414,-3.4414,-3.4414,-3.4346,-3.4346,-3.4414,-3.4346,-3.4312,-3.4312,-3.4312,-3.4346,-3.4414,-3.4414,-3.4414,-3.4414,-3.4414,-3.4414,-3.4414,-3.4414,-3.4414,-3.4414,-3.4414,-3.4414,-3.438,-3.4346,-3.4346,-3.438,-3.4293,-3.4278,-3.4312,-3.4244,-3.4244,-3.4244,-3.4244,-3.41,-3.384,-3.3421,-3.305,-3.2731,-3.2731,-3.213,-3.1437,-3.1264,-3.0887,-3.0598,-3.0598,-3.0598,-3.0598,-3.0598,-3.0598,-3.0598,-3.0598,-3.0598,-3.0598,-3.0598,-3.0598,-3.0598,-3.0598,-3.0598,-3.0568,-3.0507,-2.9701,-2.8935,-2.8409,-2.7504,-2.6803,-2.6349,-2.6735,-2.6837,-2.6499,-2.6499,-2.6499,-2.6499,-2.6499,-2.6499,-2.6499,-2.643,-2.643,-2.6499,-2.6361,-2.6327,-3.4691,-3.4497,-3.43,-3.43,-3.4201,-3.3806,-3.2656,-3.2918,-3.3037,-3.1728,-3.2002,-3.2481,-3.2481,-3.2481,0.0,-3.2481,-3.2481,-3.2481,-3.2481,-3.2481,-3.2745,-3.3402,-3.3489,-3.3736,-3.4327,-3.4399,-3.4399,-3.4399,-3.4414,-3.4414,-3.4414,-3.4414,-3.4414,-3.4414,-3.4196,-3.421,-3.438,-3.4196,-3.4094,-3.4094,-3.4094,-3.4196,-3.438,-3.438,-3.4414,-3.4414,-3.4414,-3.4414,-3.4414,-3.4414,-3.4414,-3.4414,-3.4414,-3.4414,-3.438,-3.4162,-3.423,-3.4346,-3.402,-3.3985,-3.4074,-3.3951,-3.3896,-3.3882,-3.3882,-3.3425,-3.2897,-3.2882,-3.2029,-3.1117,-3.1103,-3.1277,-3.1321,-3.0727,-3.0612,-3.0612,-3.0612,-3.0612,-3.0612,-3.0612,-3.0612,-3.0612,-3.0612,-3.0612,-3.0612,-3.0612,-3.0612,-3.0612,-3.0612,-3.0598,-3.0507,-3.0312,-2.9016,-2.8149,-2.7986,-2.6722,-2.591,-2.591,-2.591,-2.6084,-2.6499,-2.6487,-2.6487,-2.6487,-2.6499,-2.6499,-2.6499,-2.6305,-2.6305,-2.6499,-2.6084,-2.6027,-3.457,-3.4423,-3.4275,-3.4176,-3.4126,-3.3908,-3.3135,-3.2808,-3.2338,-3.1114,-3.1366,-3.1785,-3.1785,-3.1785,0.0,-3.2408,-3.2481,-3.2353,-3.1857,-3.2191,-3.2411,-3.2135,-3.2513,-3.2875,-3.3064,-3.3485,-3.3779,-3.3779,-3.4167,-3.4414,-3.4414,-3.4414,-3.4346,-3.4196,-3.4128,-3.4074,-3.4054,-3.3985,-3.3951,-3.3951,-3.3951,-3.3985,-3.4054,-3.4054,-3.4108,-3.4196,-3.4196,-3.4264,-3.4414,-3.4414,-3.4414,-3.4414,-3.4414,-3.4414,-3.438,-3.4162,-3.4128,-3.4162,-3.3951,-3.3931,-3.3951,-3.3917,-3.3582,-3.3211,-3.3211,-3.2754,-3.2168,-3.1758,-3.1371,-3.0971,-3.0511,-3.0444,-3.0463,-3.0307,-3.0264,-3.0264,-3.0264,-3.0264,-3.0264,-3.0264,-3.0264,-3.0264,-3.0264,-3.0264,-3.0264,-3.0264,-3.0264,-3.0264,-3.0264,-2.9808,-2.9456,-2.9393,-2.8588,-2.7822,-2.7258,-2.6833,-2.638,-2.5945,-2.591,-2.5945,-2.6084,-2.6084,-2.6084,-2.6084,-2.6236,-2.6305,-2.6305,-2.6236,-2.6305,-2.6499,-2.6084,-2.6027,-3.4448,-3.4325,-3.4201,-3.4126,-3.4101,-3.3958,-3.3329,-3.2598,-3.1823,-3.1117,-3.1054,-3.1134,-3.1134,-3.1134,0.0,-3.1685,-3.1743,-3.1598,-3.1192,-3.1496,-3.1685,-3.154,-3.1843,-3.2191,-3.2466,-3.2861,-3.3093,-3.3093,-3.3441,-3.3659,-3.3659,-3.3659,-3.356,-3.3379,-3.3379,-3.3327,-3.3139,-3.3139,-3.3106,-3.3024,-3.3024,-3.3004,-3.2965,-3.3599,-3.3951,-3.404,-3.4094,-3.4196,-3.4414,-3.4414,-3.4414,-3.438,-3.4312,-3.4264,-3.423,-3.4005,-3.3937,-3.3971,-3.3744,-3.3553,-3.3408,-3.334,-3.288,-3.2354,-3.2354,-3.1914,-3.1332,-3.0949,-3.0679,-3.0395,-3.0026,-2.9896,-2.9927,-3.008,-3.008,-3.008,-3.008,-3.008,-3.008,-3.008,-3.008,-3.008,-3.008,-3.008,-3.008,-3.008,-3.008,-3.008,-3.008,-2.9453,-2.8971,-2.8921,-2.8038,-2.7245,-2.6731,-2.6424,-2.6092,-2.5676,-2.5641,-2.5641,-2.5641,-2.584,-2.591,-2.591,-2.6015,-2.6097,-2.6097,-2.598,-2.6084,-2.6258,-2.5863,-2.5758,-3.4349,-3.4226,-3.4101,-3.4101,-3.4101,-3.3958,-3.3423,-3.2391,-3.1566,-3.1508,-3.1029,-3.0598,-3.0598,-3.0598,-3.0598,-3.0598,-3.0598,-3.0598,-3.0598,-3.0598,-3.0816,-3.1366,-3.1438,-3.1671,-3.228,-3.2365,-3.2394,-3.2394,-3.2452,-3.2481,-3.2481,-3.2481,-3.2417,-3.2288,-3.2288,-3.2177,-3.195,-3.195,-3.1852,-3.1674,-3.1674,-3.1622,-3.156,-3.2993,-3.3691,-3.3711,-3.3867,-3.4023,-3.4172,-3.4172,-3.4172,-3.4172,-3.3989,-3.3921,-3.3853,-3.3559,-3.3539,-3.3656,-3.3262,-3.2895,-3.2566,-3.2396,-3.1907,-3.1401,-3.1401,-3.0951,-3.0413,-3.0413,-3.0038,-2.9571,-2.9509,-2.9509,-2.9571,-2.982,-2.9958,-3.005,-3.005,-3.005,-3.005,-3.005,-3.005,-3.005,-3.005,-3.005,-3.0019,-2.9943,-2.9943,-2.9913,-2.9882,-2.9219,-2.873,-2.8597,-2.7311,-2.6445,-2.6311,-2.5687,-2.5312,-2.5312,-2.5312,-2.5312,-2.5312,-2.5653,-2.584,-2.584,-2.5863,-2.5875,-2.5875,-2.5688,-2.5688,-2.5875,-2.55,-2.5418,-3.4472,-3.4275,-3.4101,-3.4101,-3.4101,-3.4075,-3.3933,-3.3018,-3.2076,-3.1595,-3.1029,-3.0598,-3.0598,-3.0598,-3.0598,-3.0598,-3.0598,-3.0598,-3.0598,-3.0598,-3.0656,-3.0786,-3.0801,-3.0859,-3.1004,-3.1438,-3.1729,-3.1729,-3.2191,-3.2481,-3.2481,-3.2481,-3.2384,-3.208,-3.2047,-3.1931,-3.1617,-3.1617,-3.1584,-3.1551,-3.1551,-3.1518,-3.1499,-3.1866,-3.2065,-3.2184,-3.2382,-3.2481,-3.2514,-3.2514,-3.2514,-3.2514,-3.2481,-3.2448,-3.2415,-3.2184,-3.2151,-3.2165,-3.1946,-3.1828,-3.1763,-3.1729,-3.126,-3.0726,-3.0726,-3.0291,-2.9799,-2.9799,-2.9715,-2.9477,-2.8871,-2.8744,-2.8602,-2.8176,-2.8899,-2.971,-2.971,-2.971,-2.971,-2.971,-2.971,-2.971,-2.971,-2.971,-2.9526,-2.8935,-2.8826,-2.8634,-2.8143,-2.7404,-2.6934,-2.6913,-2.6126,-2.5581,-2.5546,-2.5382,-2.5312,-2.5312,-2.5312,-2.5312,-2.5312,-2.5382,-2.5418,-2.5418,-2.5571,-2.5641,-2.5641,-2.5606,-2.5688,-2.5875,-2.55,-2.5418,-3.4423,-3.425,-3.4101,-3.4101,-3.4101,-3.4101,-3.4101,-3.3413,-3.268,-3.2364,-3.1637,-3.094,-3.0657,-3.0836,-3.0955,-3.0657,-3.0598,-3.0598,-3.0598,-3.0598,-3.0598,-3.0598,-3.0598,-3.0598,-3.0598,-3.0872,-3.1061,-3.1061,-3.1395,-3.1584,-3.1584,-3.149,-3.1334,-3.1082,-3.1005,-3.0814,-3.0586,-3.0586,-3.0586,-3.0586,-3.0586,-3.0586,-3.0614,-3.1218,-3.157,-3.1707,-3.1805,-3.1917,-3.2015,-3.2015,-3.2015,-3.1982,-3.1885,-3.1838,-3.1852,-3.1669,-3.1589,-3.1603,-3.1518,-3.1288,-3.1021,-3.1021,-3.06,-3.0048,-3.0048,-2.9606,-2.9075,-2.9075,-2.8821,-2.85,-2.813,-2.8019,-2.792,-2.7571,-2.8306,-2.8994,-2.8675,-2.8867,-2.8994,-2.8675,-2.8578,-2.8578,-2.8578,-2.8578,-2.8468,-2.8084,-2.8019,-2.7887,-2.7537,-2.6858,-2.638,-2.638,-2.5721,-2.5312,-2.5312,-2.5312,-2.5312,-2.5312,-2.5312,-2.5312,-2.5312,-2.5312,-2.5312,-2.5312,-2.5382,-2.5465,-2.5465,-2.5465,-2.55,-2.5606,-2.5382,-2.5347,-3.4374,-3.4226,-3.4101,-3.4101,-3.4101,-3.4101,-3.4101,-3.3646,-3.3182,-3.3182,-3.2281,-3.1379,-3.097,-3.1146,-3.1234,-3.0836,-3.0657,-3.0598,-3.0598,-3.0598,-3.0598,-3.0598,-3.0598,-3.0598,-3.0598,-3.0598,-3.0598,-3.0598,-3.0598,-3.0568,-3.0538,-3.0387,-3.0235,-3.0036,-2.9884,-2.973,-2.9602,-2.9602,-2.9602,-2.9602,-2.9602,-2.9602,-2.9645,-3.0684,-3.1213,-3.133,-3.133,-3.1428,-3.1589,-3.1589,-3.1589,-3.1557,-3.1395,-3.133,-3.133,-3.1228,-3.1162,-3.1162,-3.1162,-3.0811,-3.0329,-3.0329,-2.9915,-2.9401,-2.9401,-2.8917,-2.833,-2.833,-2.792,-2.7484,-2.7338,-2.7317,-2.7284,-2.7136,-2.7657,-2.8019,-2.7571,-2.7953,-2.8149,-2.7604,-2.7517,-2.7517,-2.7517,-2.7517,-2.7451,-2.7317,-2.7317,-2.7271,-2.7136,-2.6573,-2.6208,-2.6208,-2.5652,-2.5312,-2.5312,-2.5312,-2.5312,-2.5312,-2.5312,-2.5312,-2.5312,-2.5312,-2.5312,-2.5312,-2.5312,-2.5312,-2.5312,-2.5312,-2.5312,-2.5312,-2.5312,-2.5312,-3.4497,-3.43,-3.4101,-3.4101,-3.4101,-3.4101,-3.4101,-3.3646,-3.3182,0.0,-3.2281,-3.1623,-3.2076,-3.1379,-3.0851,-3.1306,-3.094,-3.0598,-3.0598,-3.0598,-3.0598,-3.0598,-3.0598,-3.0598,-3.0598,-3.0598,-3.0598,-3.0598,-3.0598,-3.0507,-3.0357,-3.0312,-3.016,-2.9853,-2.9808,-2.973,-2.9602,-2.9602,-2.9602,-2.9602,-2.9602,-2.9602,-2.9617,-2.9785,-2.9855,-2.9887,-2.9887,-2.9887,-2.9918,-2.9918,-2.9918,-2.9918,-2.9887,-2.9887,-2.9887,-2.9855,-2.9855,-2.9855,-2.9855,-2.9799,-2.9729,-2.9729,-2.9222,-2.8634,-2.8634,-2.8182,-2.7637,-2.7637,-2.7571,-2.7338,-2.6722,-2.6552,-2.638,-2.5756,-2.6161,-2.6845,-2.7384,-2.7571,-2.7604,-2.7517,-2.7517,-2.7517,-2.7517,-2.7517,-2.7284,-2.6654,-2.6552,-2.6311,-2.5687,-2.5511,-2.5453,-2.5453,-2.5382,-2.5312,-2.5312,-2.5312,-2.5312,-2.5312,-2.5312,-2.5312,-2.5312,-2.5312,-2.5312,-2.5312,-2.5312,-2.5312,-2.5312,-2.5312,-2.5312,-2.5312,-2.5312,-2.5312,-3.4448,-3.43,-3.4201,-3.4126,-3.4101,-3.4101,-3.4101,-3.3892,-3.3697,-3.3697,-3.3039,-3.2351,-3.1964,-3.1737,-3.148,-3.1058,-3.0777,-3.0598,-3.0598,-3.0598,-3.0598,-3.0598,-3.0598,-3.0598,-3.0598,-3.0598,-3.0598,-3.0598,-3.0598,-3.0507,-3.0312,-3.0249,-3.0083,-2.9808,-2.973,-2.9651,-2.9602,-2.9602,-2.9602,-2.9602,-2.9602,-2.9602,-2.9602,-2.9602,-2.9602,-2.9602,-2.9602,-2.9602,-2.9602,-2.9602,-2.9602,-2.9602,-2.9602,-2.9602,-2.9602,-2.9602,-2.9602,-2.9602,-2.9602,-2.9602,-2.9602,-2.9602,-2.9089,-2.8492,-2.8492,-2.7756,-2.6879,-2.6879,-2.6607,-2.6195,-2.5861,-2.5791,-2.5687,-2.5382,-2.5558,-2.5861,-2.6195,-2.6607,-2.6744,-2.6368,-2.6252,-2.6252,-2.6252,-2.6252,-2.6161,-2.5826,-2.5791,-2.5652,-2.5347,-2.5312,-2.5312,-2.5312,-2.5312,-2.5312,-2.5312,-2.5312,-2.5312,-2.5312,-2.5312,-2.5312,-2.5312,-2.5312,-2.5312,-2.5312,-2.5312,-2.5312,-2.5312,-2.5312,-2.5312,-2.5312,-2.5312,-2.5312,-3.4448,-3.4374,-3.4325,-3.4176,-3.4176,-3.4176,-3.4126,-3.4126,-3.4151,0.0,-3.3723,-3.3119,-3.213,-3.2061,-3.1936,-3.1175,-3.0807,-3.0598,-3.0598,-3.0598,-3.0598,-3.0598,-3.0598,-3.0598,-3.0598,-3.0598,-3.0598,-3.0598,-3.0598,-3.0507,-3.0312,-3.0158,-3.0005,-2.9822,-2.9651,-2.9602,-2.9602,-2.9602,-2.9602,-2.9602,-2.9602,-2.9602,-2.9602,-2.9602,-2.9602,-2.9602,-2.9602,-2.9602,-2.9602,-2.9602,-2.9602,-2.9602,-2.9602,-2.9602,-2.9602,-2.9602,-2.9602,-2.9602,-2.9602,-2.9477,-2.9324,-2.9324,-2.8712,-2.7973,-2.7973,-2.709,-2.6104,-2.6104,-2.5721,-2.5312,-2.5312,-2.5312,-2.5312,-2.5312,-2.5312,-2.5312,-2.5312,-2.5721,-2.5965,-2.5418,-2.5312,-2.5312,-2.5312,-2.5312,-2.5312,-2.5312,-2.5312,-2.5312,-2.5312,-2.5312,-2.5312,-2.5312,-2.5312,-2.5312,-2.5312,-2.5312,-2.5312,-2.5312,-2.5312,-2.5312,-2.5312,-2.5312,-2.5312,-2.5312,-2.5312,-2.5312,-2.5312,-2.5312,-2.5312,-2.5312,-2.5312,-2.5312,-3.4667,-3.4594,-3.4448,-3.4325,-3.4399,-3.4423,-3.4151,-3.4201,-3.425,-3.4126,-3.4075,-3.3841,-3.3224,-3.2253,-3.1709,-3.2216,-3.135,-3.0598,-3.0598,-3.0598,-3.0598,-3.0598,-3.0598,-3.0598,-3.0598,-3.0598,-3.0598,-3.0598,-3.0598,-3.0507,-3.0312,-3.0158,-3.0005,-2.9822,-2.9651,-2.9602,-2.9602,-2.9602,-2.9602,-2.9602,-2.9602,-2.9602,-2.9602,-2.9602,-2.9602,-2.9602,-2.9602,-2.9602,-2.9602,-2.9602,-2.9602,-2.9602,-2.9602,-2.9602,-2.9602,-2.9602,-2.9602,-2.9602,-2.9602,-2.9153,-2.8556,-2.8556,-2.7624,-2.6517,-2.6517,-2.5965,-2.5382,-2.5382,-2.5347,-2.5312,-2.5312,-2.5312,-2.5312,-2.5312,-2.5312,-2.5312,-2.5312,-2.5347,-2.5347,-2.5312,-2.5312,-2.5312,-2.5312,-2.5312,-2.5312,-2.5312,-2.5312,-2.5312,-2.5312,-2.5312,-2.5312,-2.5312,-2.5312,-2.5312,-2.5312,-2.5312,-2.5312,-2.5312,-2.5312,-2.5312,-2.5312,-2.5312,-2.5312,-2.5312,-2.5312,-2.5312,-2.5312,-2.5312,-2.5312,-2.5312,-2.5312,-2.5312,-3.4715,-3.4667,-3.4594,-3.4448,-3.4472,-3.4472,-3.4374,-3.4399,-3.4399,-3.425,-3.4226,-3.4151,-3.3841,-3.3135,-3.2544,-3.241,-3.1709,-3.1175,-3.1175,-3.0822,-3.0598,-3.0598,-3.0598,-3.0598,-3.0598,-3.0598,-3.0598,-3.0598,-3.0598,-3.0507,-3.0312,-3.0266,-3.0113,-2.9808,-2.9761,-2.9682,-2.9602,-2.9602,-2.9602,-2.9602,-2.9602,-2.9602,-2.9602,-2.9602,-2.9602,-2.9602,-2.9602,-2.9602,-2.9602,-2.9602,-2.9602,-2.954,-2.9089,-2.8871,-2.8839,-2.8403,-2.8241,-2.8241,-2.8241,-2.8065,-2.7855,-2.7855,-2.7204,-2.638,-2.638,-2.5896,-2.5312,-2.5312,-2.5312,-2.5312,-2.5312,-2.5312,-2.5312,-2.5312,-2.5312,-2.5312,-2.5312,-2.5312,-2.5312,-2.5312,-2.5312,-2.5312,-2.5312,-2.5312,-2.5312,-2.5312,-2.5312,-2.5312,-2.5312,-2.5312,-2.5312,-2.5312,-2.5312,-2.5312,-2.5312,-2.5312,-2.5312,-2.5312,-2.5312,-2.5312,-2.5312,-2.5312,-2.5312,-2.5312,-2.5312,-2.5312,-2.5312,-2.5312,-2.5312,-2.5312,-2.5312,-2.5312,-3.4787,-3.478,-3.4715,-3.4594,-3.4594,-3.4618,-3.4521,-3.4521,-3.4521,-3.4399,-3.4325,-3.4275,-3.4176,-3.3799,-3.3266,-3.252,-3.1879,-3.1437,-3.1234,-3.0851,-3.0598,-3.0598,-3.0598,-3.0598,-3.0598,-3.0598,-3.0598,-3.0598,-3.0598,0.0,-3.0417,-3.0357,-3.016,-2.9808,-2.9761,-2.9682,-2.9602,-2.9602,-2.9602,-2.9602,-2.9602,-2.9602,-2.9602,-2.9602,-2.9602,-2.9602,-2.9602,-2.9602,-2.9602,-2.9602,-2.9602,-2.954,-2.8807,-2.8492,-2.8427,-2.7769,-2.7517,-2.7517,-2.7517,-2.7351,-2.7116,-2.7116,-2.6641,-2.6035,-2.6035,-2.5687,-2.5312,-2.5312,-2.5312,-2.5312,-2.5312,-2.5312,-2.5312,-2.5312,-2.5312,-2.5312,-2.5312,-2.5312,-2.5312,-2.5312,-2.5312,-2.5312,-2.5312,-2.5312,-2.5312,-2.5312,-2.5312,-2.5312,-2.5312,-2.5312,-2.5312,-2.5312,-2.5312,-2.5312,-2.5312,-2.5312,-2.5312,-2.5312,-2.5312,-2.5312,-2.5312,-2.5312,-2.5312,-2.5312,-2.5312,-2.5312,-2.5312,-2.5312,-2.5312,-2.5312,-2.5312,-2.5312,0.0,0.0,0.0,-3.4739,-3.4787,-3.4828,-3.457,0.0,-3.4667,-3.4521,-3.4399,-3.43,-3.43,-3.4201,-3.3729,-3.2602,-3.1908,-3.1321,-3.0747,-3.0628,-3.0598,-3.0598,-3.0598,-3.0598,-3.0598,-3.0598,-3.0598,-3.0598,-3.0598,-3.0598,-3.0598,-3.0417,-3.0129,-2.9808,-2.9682,-2.9602,-2.9602,-2.9602,-2.9602,-2.9602,-2.9571,-2.9571,-2.9571,-2.954,-2.954,-2.954,-2.954,-2.954,-2.954,-2.9571,-2.9571,-2.9509,-2.873,-2.8427,-2.8363,-2.767,-2.7451,-2.7451,-2.7451,-2.6981,-2.6393,-2.6393,-2.5896,-2.5312,-2.5312,-2.5312,-2.5312,-2.5312,-2.5312,-2.5312,-2.5312,-2.5312,-2.5312,-2.5312,-2.5312,-2.5312,-2.5312,-2.5312,-2.5312,-2.5312,-2.5312,-2.5312,-2.5312,-2.5312,-2.5312,-2.5312,-2.5312,-2.5312,-2.5312,-2.5312,-2.5312,-2.5312,-2.5312,-2.5312,-2.5312,-2.5312,-2.5312,-2.5312,-2.5312,-2.5312,-2.5312,-2.5312,-2.5312,-2.5312,-2.5312,-2.5312,-2.5312,-2.5312,-2.5312,-2.5312,-2.5312,-2.5312,-3.4899,0.0,0.0,0.0,0.0,0.0,0.0,0.0,-3.478,-3.4546,-3.4472,-3.4399,-3.4201,-3.4126,-3.3841,-3.3108,-3.2504,-3.2076,-3.1936,-3.1146,-3.0598,-3.0598,-3.0598,-3.0598,-3.0598,-3.0598,-3.0598,0.0,-3.0598,-3.0598,-3.0598,-3.031,-3.0097,-3.0005,-2.9758,-2.9602,-2.9602,-2.9602,-2.9602,-2.9571,-2.9044,-2.8807,-2.8776,-2.8293,-2.8078,-2.8078,-2.8078,-2.8078,-2.8111,-2.8615,-2.8807,-2.8666,-2.7458,-2.6968,-2.69,-2.6161,-2.5918,-2.5918,-2.5918,-2.5791,-2.5581,-2.5581,-2.5476,-2.5312,-2.5312,-2.5312,-2.5312,-2.5312,-2.5312,-2.5312,-2.5312,-2.5312,-2.5312,-2.5312,-2.5312,-2.5312,-2.5312,-2.5312,-2.5312,-2.5312,-2.5312,-2.5312,-2.5312,-2.5312,-2.5312,-2.5312,-2.5312,-2.5312,-2.5312,-2.5312,-2.5312,-2.5312,-2.5312,-2.5312,-2.5312,-2.5312,-2.5312,-2.5312,-2.5312,-2.5312,-2.5312,-2.5312,-2.5312,-2.5312,-2.5312,-2.5312,-2.5312,-2.5312,-2.5312,-2.5312,-2.5312,-2.5312,0.0,0.0,0.0,0.0,0.0,0.0,-3.4899,-3.4899,-3.4851,0.0,-3.4618,-3.4521,-3.43,-3.4226,-3.4059,-3.3646,-3.2911,-3.2315,-3.2048,-3.1422,-3.0896,-3.0628,-3.0598,-3.0598,-3.0598,-3.0598,-3.0598,-3.0598,-3.0598,-3.0598,-3.0598,-3.0341,-3.0158,-3.008,-2.982,-2.9665,-2.9602,-2.9602,-2.9446,-2.9153,-2.8698,-2.833,-2.8084,-2.767,-2.7517,-2.7517,-2.7517,-2.7517,-2.7517,-2.7591,-2.7822,-2.7986,-2.6845,-2.638,-2.6311,-2.5581,-2.5312,-2.5312,-2.5312,-2.5312,-2.5312,-2.5312,-2.5312,-2.5312,-2.5312,-2.5312,-2.5312,-2.5312,-2.5312,-2.5312,-2.5312,-2.5312,-2.5312,-2.5312,-2.5312,-2.5312,-2.5312,-2.5312,-2.5312,-2.5312,-2.5312,-2.5312,-2.5312,-2.5312,-2.5312,-2.5312,-2.5312,-2.5312,-2.5312,-2.5312,-2.5312,-2.5312,-2.5312,-2.5312,-2.5312,-2.5312,-2.5312,-2.5312,-2.5312,-2.5312,-2.5312,-2.5312,-2.5312,-2.5312,-2.5312,-2.5312,-2.5312,-2.5312,-2.5312,-2.5312,-2.5312,-2.5312,0.0,0.0,0.0,0.0,0.0,0.0,-3.4899,-3.4899,-3.4875,0.0,-3.4691,-3.4546,-3.4358,-3.4209,-3.4109,-3.4075,-3.314,-3.2216,-3.168,-3.148,-3.1204,-3.0657,-3.0598,-3.0598,-3.0598,-3.0598,-3.0598,-3.0598,-3.0598,-3.0598,-3.0598,-3.0417,-3.0235,-3.0142,-2.9915,-2.973,-2.9634,-2.9602,-2.923,-2.8492,-2.8427,-2.8051,-2.7384,-2.7271,-2.7271,-2.7271,-2.7271,-2.7271,-2.7204,-2.6539,-2.671,-2.7317,-2.6586,-2.6277,-2.6208,-2.5546,-2.5312,-2.5312,-2.5312,-2.5312,-2.5312,-2.5312,-2.5312,-2.5312,-2.5312,-2.5312,-2.5312,-2.5312,-2.5312,-2.5312,-2.5312,-2.5312,-2.5312,-2.5312,-2.5312,-2.5312,-2.5312,-2.5312,-2.5312,-2.5312,-2.5312,-2.5312,-2.5312,-2.5312,-2.5312,-2.5312,-2.5312,-2.5312,-2.5312,-2.5312,-2.5312,-2.5312,-2.5312,-2.5312,-2.5312,-2.5312,-2.5312,-2.5312,-2.5312,-2.5312,-2.5312,-2.5312,-2.5312,-2.5312,-2.5312,-2.5312,-2.5312,-2.5312,-2.5312,-2.5312,-2.5312,-2.5229,0.0,0.0,0.0,0.0,0.0,0.0,-3.4899,-3.4899,-3.4756,0.0,-3.4075,-3.3857,-3.3256,-3.3108,-3.323,-3.3694,-3.3087,-3.2492,-3.2244,-3.1408,-3.0717,-3.0598,-3.0598,-3.0598,-3.0598,-3.0598,-3.0598,-3.0598,-3.0598,-3.0598,-3.0598,-3.0417,-3.0296,-3.0266,-2.9976,-2.9777,-2.9761,-2.9651,-2.923,-2.8492,-2.7953,-2.7317,-2.6586,-2.5988,-2.5721,-2.5721,-2.5721,-2.5721,-2.5721,-2.5581,-2.5965,-2.6552,-2.5791,-2.5511,-2.5488,-2.5347,-2.5312,-2.5312,-2.5312,-2.5312,-2.5312,-2.5312,-2.5312,-2.5312,-2.5312,-2.5312,-2.5312,-2.5312,-2.5312,-2.5312,-2.5312,-2.5312,-2.5312,-2.5312,-2.5312,-2.5312,-2.5312,-2.5312,-2.5312,-2.5312,-2.5312,-2.5312,-2.5312,-2.5312,-2.5312,-2.5312,-2.5312,-2.5312,-2.5312,-2.5312,-2.5312,-2.5312,-2.5312,-2.5312,-2.5312,-2.5312,-2.5312,-2.5312,-2.5312,-2.5312,-2.5312,-2.5312,-2.5312,-2.5312,-2.5312,-2.5312,-2.5312,-2.5312,-2.5312,-2.5312,-2.5312,-2.4933,0.0,0.0,0.0,-3.4036,0.0,0.0,0.0,-3.4036,-3.3977,-3.362,-3.3543,-3.3413,-3.2975,-3.2895,-3.2975,-3.3219,-3.2884,-3.2477,-3.2089,-3.148,-3.0955,-3.0642,-3.0598,-3.0598,-3.0598,-3.0598,-3.0598,-3.0598,-3.0598,-3.0598,-3.0598,-3.0507,-3.0417,-3.0282,-3.0129,-2.9962,-2.9808,-2.973,-2.931,-2.8492,-2.7835,-2.7116,-2.638,-2.5652,-2.5312,-2.5312,-2.5312,-2.5312,-2.5312,-2.5312,-2.5511,-2.5791,-2.5441,-2.5312,-2.5312,-2.5312,-2.5312,-2.5312,-2.5312,-2.5312,-2.5312,-2.5312,-2.5312,-2.5312,-2.5312,-2.5312,-2.5312,-2.5312,-2.5312,-2.5312,-2.5312,-2.5312,-2.5312,-2.5312,-2.5312,-2.5312,-2.5312,-2.5312,-2.5312,-2.5312,-2.5312,-2.5312,-2.5312,-2.5312,-2.5312,-2.5312,-2.5312,-2.5312,-2.5312,-2.5312,-2.5312,-2.5312,-2.5312,-2.5312,-2.5312,-2.5312,-2.5312,-2.5312,-2.5312,-2.5312,-2.5312,-2.5312,-2.5312,-2.5312,-2.4898,-2.4707,-2.4707,-2.4192,-2.4409,-2.5264,-2.4504,-2.412,0.0,0.0,0.0,0.0,0.0,-3.3182,0.0,0.0,0.0,-3.3066,-3.3039,-3.2986,0.0,0.0,0.0,0.0,0.0,0.0,0.0,-3.1447,0.0,-3.0657,-3.0598,-3.0598,-3.0598,-3.0598,-3.0598,-3.0598,-3.0598,-3.0598,-3.0598,-3.0598,-3.0538,-3.0357,-3.0312,-3.016,-2.9901,-2.9839,-2.939,-2.8538,-2.7835,-2.7116,-2.638,-2.5652,-2.5312,-2.5312,-2.5312,-2.5312,-2.5312,-2.5312,-2.5312,-2.5312,-2.5312,-2.5312,-2.5312,-2.5312,-2.5312,-2.5312,-2.5312,-2.5312,-2.5312,-2.5312,-2.5312,-2.5312,-2.5312,-2.5312,-2.5312,-2.5312,-2.5312,-2.5312,-2.5312,-2.5312,-2.5312,-2.5312,-2.5312,-2.5312,-2.5312,-2.5312,-2.5312,-2.5312,-2.5312,-2.5312,-2.5312,-2.5312,-2.5312,-2.5312,-2.5312,-2.5312,-2.5312,-2.5312,-2.5312,-2.5312,-2.5312,-2.5312,-2.5312,-2.5312,-2.5312,-2.5312,-2.5312,-2.5312,-2.5312,-2.5312,-2.5312,-2.5312,-2.4528,-2.4108,-2.4108,-2.2999,-2.3257,-2.4755,-2.3463,-2.3084,0.0,0.0,0.0,0.0,-3.3182,0.0,-3.3182,0.0,-3.3066,-3.2602,0.0,0.0,0.0,0.0,0.0,0.0,0.0,0.0,-3.118,-3.1005,-3.0821,-3.0612,-3.0598,-3.0598,-3.0598,-3.0598,-3.0598,-3.0598,-3.0598,-3.0598,-3.0598,-3.0598,-3.0598,-3.0568,-3.0387,-3.0282,-3.0251,-2.9931,-2.9453,-2.8757,-2.7901,-2.7116,-2.638,-2.5652,-2.5312,-2.5312,-2.5312,-2.5312,-2.5312,-2.5312,-2.5312,-2.5312,-2.5312,-2.5312,-2.5312,-2.5312,-2.5312,-2.5312,-2.5312,-2.5312,-2.5312,-2.5312,-2.5312,-2.5312,-2.5312,-2.5312,-2.5312,-2.5312,-2.5312,-2.5312,-2.5312,-2.5312,-2.5312,-2.5312,-2.5312,-2.5312,-2.5312,-2.5312,-2.5312,-2.5312,-2.5312,-2.5312,-2.5312,-2.5312,-2.5312,-2.5312,-2.5312,-2.5312,-2.5312,-2.5312,-2.5312,-2.5312,-2.5312,-2.5312,-2.5312,-2.5312,-2.5312,-2.5312,-2.5312,-2.5312,-2.5312,-2.5312,-2.5312,-2.5312,-2.4528,-2.4108,-2.4108,-2.2601,-2.2237,-2.2888,-2.2553,-2.2038,0.0,0.0,0.0,0.0,0.0,0.0,-3.2201,0.0,-3.216,0.0,0.0,0.0,0.0,0.0,0.0,0.0,-3.1671,0.0,0.0,0.0,-3.1175,0.0,0.0,0.0,-3.0598,-3.0598,-3.0598,-3.0598,-3.0598,-3.0598,-3.0598,-3.0598,-3.0598,-3.0598,-3.0507,-3.0417,-3.0282,-2.9656,-2.9156,-2.8789,-2.7471,-2.6688,-2.638,-2.5652,-2.5312,-2.5312,-2.5312,-2.5312,-2.5312,-2.5312,-2.5312,-2.5312,-2.5312,-2.5312,-2.5312,-2.5312,-2.5312,-2.5312,-2.5312,-2.5312,-2.5312,-2.5312,-2.5312,-2.5312,-2.5312,-2.5312,-2.5312,-2.5312,-2.5312,-2.5312,-2.5312,-2.5312,-2.5312,-2.5312,-2.5312,-2.5312,-2.5312,-2.5312,-2.5312,-2.5312,-2.5312,-2.5312,-2.5312,-2.5312,-2.5312,-2.5312,-2.5312,-2.5312,-2.5312,-2.5312,-2.5312,-2.5312,-2.5312,-2.5312,-2.5312,-2.5312,-2.5312,-2.5312,-2.5312,-2.5312,-2.5312,-2.5312,-2.5312,-2.5312,-2.4084,-2.3463,-2.3463,-2.1756,-2.1049,-2.126,-2.1193,-2.1106,-3.1511,0.0,0.0,0.0,0.0,0.0,0.0,0.0,0.0,0.0,0.0,0.0,0.0,0.0,0.0,0.0,0.0,-3.1764,0.0,-3.1317,0.0,0.0,0.0,0.0,0.0,-3.0598,-3.0598,-3.0598,-3.0598,-3.0598,-3.0598,-3.0598,-3.0598,-3.0598,-3.0598,-3.0538,-3.0387,-2.967,-2.9156,-2.8839,-2.7404,-2.6586,-2.638,-2.5652,-2.5312,-2.5312,-2.5312,-2.5312,-2.5312,-2.5312,-2.5312,-2.5312,-2.5312,-2.5312,-2.5312,-2.5312,-2.5312,-2.5312,-2.5312,-2.5312,-2.5312,-2.5312,-2.5312,-2.5312,-2.5312,-2.5312,-2.5312,-2.5312,-2.5312,-2.5312,-2.5312,-2.5312,-2.5312,-2.5312,-2.5312,-2.5312,-2.5312,-2.5312,-2.5312,-2.5312,-2.5312,-2.5312,-2.5312,-2.5312,-2.5312,-2.5312,-2.5312,-2.5312,-2.5312,-2.5312,-2.5312,-2.5312,-2.5312,-2.5312,-2.5312,-2.5312,-2.5312,-2.5312,-2.5312,-2.5312,-2.5312,-2.5312,-2.5312,-2.5312,-2.3804,-2.2995,-2.2995,-2.1242,-2.0303,-2.0186,-2.0147,-2.0323,0.0,0.0,0.0,-3.1511,0.0,0.0,0.0,0.0,-3.1511,0.0,0.0,0.0,0.0,0.0,0.0,0.0,0.0,0.0,0.0,0.0,0.0,0.0,0.0,0.0,0.0,-3.0598,-3.0598,-3.0598,-3.0598,-3.0598,-3.0598,-3.0598,-3.0598,-3.0598,-3.0598,-3.0598,-3.0598,-3.0249,-2.9699,-2.8971,-2.7953,-2.7082,-2.638,-2.5652,-2.5312,-2.5312,-2.5312,-2.5312,-2.5312,-2.5312,-2.5312,-2.5312,-2.5312,-2.5312,-2.5312,-2.5312,-2.5312,-2.5312,-2.5312,-2.5312,-2.5312,-2.5312,-2.5312,-2.5312,-2.5312,-2.5312,-2.5312,-2.5312,-2.5312,-2.5312,-2.5312,-2.5312,-2.5312,-2.5312,-2.5312,-2.5312,-2.5312,-2.5312,-2.5312,-2.5312,-2.5312,-2.5312,-2.5312,-2.5312,-2.5312,-2.5312,-2.5312,-2.5312,-2.5312,-2.5312,-2.5312,-2.5312,-2.5312,-2.5312,-2.5312,-2.5312,-2.5312,-2.5312,-2.5312,-2.5312,-2.5312,-2.5312,-2.5312,-2.5312,-2.3804,-2.2995,-2.2995,-2.1385,-2.0372,-1.9902,-1.9715,-1.9645,0.0,0.0,-3.1511,-3.1511,0.0,0.0,0.0,0.0,0.0,0.0,0.0,0.0,0.0,0.0,0.0,0.0,0.0,0.0,0.0,0.0,0.0,0.0,0.0,0.0,0.0,0.0,-3.0598,-3.0598,-3.0598,-3.0598,-3.0598,-3.0598,-3.0598,-3.0598,-3.0598,-3.0598,-3.0598,-2.9915,-2.917,-2.833,-2.7378,-2.648,-2.5652,-2.5418,-2.5312,-2.5312,-2.5312,-2.5312,-2.5312,-2.5312,-2.5312,-2.5312,-2.5312,-2.5312,-2.5312,-2.5312,-2.5312,-2.5312,-2.5312,-2.5312,-2.5312,-2.5312,-2.5312,-2.5312,-2.5312,-2.5312,-2.5312,-2.5312,-2.5312,-2.5312,-2.5312,-2.5312,-2.5312,-2.5312,-2.5312,-2.5312,-2.5312,-2.5312,-2.5312,-2.5312,-2.5312,-2.5312,-2.5312,-2.5312,-2.5312,-2.5312,-2.5312,-2.5312,-2.5312,-2.5312,-2.5312,-2.5312,-2.5312,-2.5312,-2.5312,-2.5312,-2.5312,-2.5312,-2.5312,-2.5052,-2.4528,-2.4528,-2.4276,-2.3804,-2.2723,-2.2209,-2.2209,-2.0972,-2.0303,-2.0147,-1.9803,-1.9518,-3.1438,-3.138,0.0,-3.1409,-3.138,0.0,-3.1482,0.0,-3.1438,0.0,0.0,0.0,0.0,0.0,0.0,0.0,0.0,0.0,0.0,-3.0864,0.0,0.0,0.0,0.0,0.0,-3.0598,-3.0598,-3.0598,-3.0598,-3.0598,-3.0598,-3.0598,-3.0598,-3.0598,-3.0598,-3.0598,-3.0598,-2.9747,-2.8871,-2.8051,-2.7111,-2.6217,-2.5382,-2.5347,-2.5312,-2.5312,-2.5312,-2.5312,-2.5312,-2.5312,-2.5312,-2.5312,-2.5312,-2.5312,-2.5312,-2.5312,-2.5312,-2.5312,-2.5312,-2.5312,-2.5312,-2.5312,-2.5312,-2.5312,-2.5312,-2.5312,-2.5312,-2.5312,-2.5312,-2.5312,-2.5312,-2.5312,-2.5312,-2.5312,-2.5312,-2.5312,-2.5312,-2.5312,-2.5312,-2.5312,-2.5312,-2.5312,-2.5312,-2.5276,-2.5241,-2.5276,-2.5312,-2.5312,-2.5312,-2.5312,-2.5312,-2.5312,-2.5312,-2.5158,-2.4791,-2.4755,-2.4755,-2.4671,-2.4743,-2.448,-2.3891,-2.3599,-2.3309,-2.2961,-2.2018,-2.1599,-2.1753,-2.0664,-2.0108,-2.0029,-1.9764,-1.9478]},{"header":{"parameterUnit":"m.s-1","parameterCategory":1,"la1":30.6,"la2":29.2853,"lo1":-89.7004,"lo2":-87.6739,"dy":0.0162,"dx":0.0183,"nx":112,"ny":82,"refTime":"2023-08-28T06:00:00:Z","depth":0,"parameterNumber":3,"parameterNumberName":"V-component_of_WINDS"},"data":[0.0,0.0,0.0,0.0,0.0,0.0,0.0,0.0,0.0,0.0,0.0,0.0,0.0,0.0,0.0,0.0,0.0,0.0,0.0,0.0,0.0,0.0,0.0,0.0,0.0,0.0,0.0,0.0,0.0,0.0,0.0,0.0,0.0,0.0,0.0,0.0,0.0,0.0,0.0,0.0,0.0,0.0,0.0,0.0,0.0,0.0,0.0,0.0,0.0,0.0,0.0,0.0,0.0,0.0,0.0,0.0,0.0,0.0,0.0,0.0,0.0,0.0,0.0,0.0,0.0,0.0,0.0,0.0,0.0,0.0,0.0,0.0,0.0,0.0,0.0,0.0,0.0,0.0,0.0,0.0,0.0,0.0,0.0,0.0,0.0,0.0,0.0,0.0,0.0,0.0,1.6124,1.591,1.5942,1.5993,1.597,1.6475,1.6807,1.6939,0.0,0.0,0.0,0.0,0.0,0.0,0.0,0.0,0.0,0.0,0.0,0.0,0.0,0.0,0.0,0.0,0.0,0.0,0.0,0.0,0.0,0.0,0.0,0.0,0.0,0.0,0.0,0.0,0.0,0.0,0.0,0.0,0.0,0.0,0.0,0.0,0.0,0.0,0.0,0.0,0.0,0.0,0.0,0.0,0.0,0.0,0.0,0.0,0.0,0.0,0.0,0.0,0.0,0.0,0.0,0.0,0.0,0.0,0.0,0.0,0.0,0.0,0.0,0.0,0.0,0.0,0.0,0.0,0.0,0.0,0.0,0.0,0.0,0.0,0.0,0.0,0.0,0.0,0.0,0.0,0.0,0.0,0.0,0.0,0.0,0.0,0.0,0.0,0.0,0.0,0.0,0.0,0.0,0.0,0.0,0.0,0.0,0.0,0.0,0.0,0.0,0.0,0.0,0.0,1.6334,1.6689,1.7073,1.7274,1.7243,1.7714,1.8284,1.8839,0.0,0.0,0.0,0.0,0.0,0.0,0.0,0.0,0.0,0.0,0.0,0.0,0.0,0.0,0.0,0.0,0.0,0.0,0.0,0.0,0.0,0.0,0.0,0.0,0.0,0.0,0.0,0.0,0.0,0.0,0.0,0.0,0.0,0.0,0.0,0.0,0.0,0.0,0.0,0.0,0.0,0.0,0.0,0.0,0.0,0.0,0.0,0.0,0.0,0.0,0.0,0.0,0.0,0.0,0.0,0.0,0.0,0.0,0.0,0.0,0.0,0.0,0.0,0.0,0.0,0.0,0.0,0.0,0.0,0.0,0.0,0.0,0.0,0.0,0.0,0.0,0.0,0.0,0.0,0.0,0.0,0.0,0.0,0.0,0.0,0.0,0.0,0.0,0.0,0.0,0.0,0.0,0.0,0.0,0.0,0.0,0.0,0.0,0.0,0.0,0.0,0.0,0.0,1.7807,1.7182,1.7876,1.8009,1.8088,1.8037,1.887,1.9523,1.9835,1.9284,0.0,0.0,0.0,0.0,0.0,0.0,0.0,0.0,0.0,0.0,0.0,0.0,0.0,0.0,0.0,0.0,0.0,0.0,0.0,0.0,0.0,0.0,0.0,0.0,0.0,0.0,0.0,0.0,0.0,0.0,0.0,0.0,0.0,0.0,0.0,0.0,0.0,0.0,0.0,0.0,0.0,0.0,0.0,0.0,0.0,0.0,0.0,0.0,0.0,0.0,0.0,0.0,0.0,0.0,0.0,0.0,0.0,0.0,0.0,0.0,0.0,0.0,0.0,0.0,0.0,0.0,0.0,0.0,0.0,0.0,0.0,0.0,0.0,0.0,0.0,0.0,0.0,0.0,0.0,0.0,0.0,0.0,0.0,0.0,0.0,0.0,0.0,0.0,0.0,0.0,0.0,0.0,0.0,0.0,0.0,0.0,0.0,0.0,0.0,0.0,0.0,0.0,1.8821,1.8283,1.88,1.8824,1.8834,1.8867,1.9846,2.0462,2.0494,2.0694,0.0,0.0,0.0,0.0,0.0,0.0,0.0,0.0,0.0,0.0,0.0,0.0,0.0,0.0,0.0,0.0,0.0,0.0,0.0,0.0,0.0,0.0,0.0,0.0,0.0,0.0,0.0,0.0,0.0,0.0,0.0,0.0,0.0,0.0,0.0,0.0,0.0,0.0,0.0,0.0,0.0,0.0,0.0,0.0,0.0,0.0,0.0,0.0,0.0,0.0,0.0,0.0,0.0,0.0,0.0,0.0,0.0,0.0,0.0,0.0,0.0,0.0,0.0,0.0,0.0,0.0,0.0,0.0,0.0,0.0,0.0,0.0,0.0,0.0,0.0,0.0,0.0,0.0,0.0,0.0,0.0,0.0,0.0,0.0,0.0,0.0,0.0,0.0,0.0,0.0,0.0,0.0,0.0,0.0,0.0,0.0,0.0,0.0,0.0,0.0,0.0,0.0,1.9573,1.9671,1.9034,1.941,1.977,1.9966,2.0505,2.0921,2.1028,2.169,0.0,0.0,0.0,0.0,0.0,0.0,0.0,0.0,0.0,0.0,0.0,0.0,0.0,0.0,0.0,0.0,0.0,0.0,0.0,0.0,0.0,0.0,0.0,0.0,0.0,0.0,0.0,0.0,0.0,0.0,0.0,0.0,0.0,0.0,0.0,0.0,0.0,0.0,0.0,0.0,0.0,0.0,0.0,0.0,0.0,0.0,0.0,0.0,0.0,0.0,0.0,0.0,0.0,0.0,0.0,0.0,0.0,0.0,0.0,0.0,0.0,0.0,0.0,0.0,0.0,0.0,0.0,0.0,0.0,0.0,0.0,0.0,0.0,0.0,0.0,0.0,0.0,0.0,0.0,0.0,0.0,0.0,0.0,0.0,0.0,0.0,0.0,0.0,0.0,0.0,0.0,0.0,0.0,0.0,0.0,0.0,0.0,0.0,0.0,0.0,0.0,0.0,1.9933,1.9998,0.0,2.0247,2.0634,2.0709,2.1336,2.1726,2.1788,0.0,0.0,0.0,0.0,0.0,0.0,0.0,0.0,0.0,0.0,0.0,0.0,0.0,0.0,0.0,0.0,0.0,0.0,0.0,0.0,0.0,0.0,0.0,0.0,0.0,0.0,0.0,0.0,0.0,0.0,0.0,0.0,0.0,0.0,0.0,0.0,0.0,0.0,0.0,0.0,0.0,0.0,0.0,0.0,0.0,0.0,0.0,0.0,0.0,0.0,0.0,0.0,0.0,0.0,0.0,0.0,0.0,0.0,0.0,0.0,0.0,0.0,0.0,0.0,0.0,0.0,0.0,0.0,0.0,0.0,0.0,0.0,0.0,0.0,0.0,0.0,0.0,0.0,0.0,0.0,0.0,0.0,0.0,0.0,0.0,0.0,0.0,0.0,0.0,0.0,0.0,0.0,0.0,0.0,0.0,0.0,0.0,0.0,0.0,0.0,0.0,0.0,2.0516,2.042,2.042,0.0,2.0837,2.1198,2.1431,2.1925,2.2197,2.2197,0.0,0.0,0.0,0.0,0.0,0.0,0.0,0.0,0.0,0.0,0.0,0.0,0.0,0.0,0.0,0.0,0.0,0.0,0.0,0.0,0.0,0.0,0.0,0.0,0.0,0.0,0.0,0.0,0.0,0.0,0.0,0.0,0.0,0.0,0.0,0.0,0.0,0.0,0.0,0.0,0.0,0.0,0.0,0.0,0.0,0.0,0.0,0.0,0.0,0.0,0.0,0.0,0.0,0.0,0.0,0.0,0.0,0.0,0.0,0.0,0.0,0.0,0.0,0.0,0.0,0.0,0.0,0.0,0.0,0.0,0.0,0.0,0.0,0.0,0.0,0.0,0.0,0.0,0.0,0.0,0.0,0.0,0.0,0.0,0.0,0.0,0.0,0.0,0.0,0.0,0.0,0.0,0.0,0.0,0.0,0.0,0.0,0.0,0.0,0.0,0.0,0.0,2.1198,2.1092,2.1092,2.1092,2.1103,2.142,2.2123,2.2197,2.2197,0.0,0.0,0.0,0.0,0.0,0.0,0.0,0.0,0.0,0.0,0.0,0.0,0.0,0.0,0.0,0.0,0.0,0.0,0.0,0.0,0.0,0.0,0.0,0.0,0.0,0.0,0.0,0.0,0.0,0.0,0.0,0.0,0.0,0.0,0.0,0.0,0.0,0.0,0.0,0.0,0.0,0.0,0.0,0.0,0.0,0.0,0.0,0.0,0.0,0.0,0.0,0.0,0.0,0.0,0.0,0.0,0.0,0.0,0.0,0.0,0.0,0.0,0.0,0.0,0.0,0.0,0.0,0.0,0.0,0.0,0.0,0.0,0.0,0.0,0.0,0.0,0.0,0.0,0.0,0.0,0.0,0.0,0.0,0.0,0.0,0.0,0.0,0.0,0.0,0.0,0.0,0.0,0.0,0.0,0.0,0.0,0.0,0.0,0.0,0.0,0.0,0.0,0.0,2.0549,2.1273,2.1694,2.1167,2.1557,2.1956,2.2185,2.2197,2.2197,2.2197,0.0,0.0,0.0,0.0,0.0,0.0,0.0,0.0,0.0,0.0,0.0,0.0,0.0,0.0,0.0,0.0,0.0,0.0,0.0,0.0,0.0,0.0,0.0,0.0,0.0,0.0,0.0,0.0,0.0,0.0,0.0,0.0,0.0,0.0,0.0,0.0,0.0,0.0,0.0,0.0,0.0,0.0,0.0,0.0,0.0,0.0,0.0,0.0,0.0,0.0,0.0,0.0,0.0,0.0,0.0,0.0,0.0,0.0,0.0,0.0,0.0,0.0,0.0,0.0,0.0,0.0,0.0,0.0,0.0,0.0,0.0,0.0,0.0,0.0,0.0,0.0,0.0,0.0,0.0,0.0,0.0,0.0,0.0,0.0,0.0,0.0,0.0,0.0,0.0,0.0,0.0,0.0,0.0,0.0,0.0,0.0,0.0,0.0,0.0,0.0,0.0,0.0,2.1051,2.1675,2.203,2.1588,2.1925,2.2197,2.2197,2.2197,2.2197,2.2197,0.0,0.0,0.0,0.0,0.0,0.0,0.0,0.0,0.0,0.0,0.0,0.0,0.0,0.0,0.0,0.0,0.0,0.0,0.0,0.0,0.0,0.0,0.0,0.0,0.0,0.0,0.0,0.0,0.0,0.0,0.0,0.0,0.0,0.0,0.0,0.0,0.0,0.0,0.0,0.0,0.0,0.0,0.0,0.0,0.0,0.0,0.0,0.0,0.0,0.0,0.0,0.0,0.0,0.0,0.0,0.0,0.0,0.0,0.0,0.0,0.0,0.0,0.0,0.0,0.0,0.0,0.0,0.0,0.0,0.0,0.0,0.0,0.0,0.0,0.0,0.0,0.0,0.0,0.0,0.0,0.0,0.0,0.0,0.0,0.0,0.0,0.0,0.0,0.0,0.0,0.0,0.0,0.0,0.0,0.0,0.0,0.0,0.0,0.0,0.0,0.0,0.0,2.2197,2.2228,2.2228,2.2197,2.2197,2.2197,2.2197,2.2197,2.2197,2.2197,0.0,0.0,0.0,0.0,0.0,0.0,0.0,0.0,0.0,0.0,0.0,0.0,0.0,0.0,0.0,0.0,0.0,0.0,0.0,0.0,0.0,0.0,0.0,0.0,0.0,0.0,0.0,0.0,0.0,0.0,0.0,0.0,0.0,0.0,0.0,0.0,0.0,0.0,0.0,0.0,0.0,0.0,0.0,0.0,0.0,0.0,0.0,0.0,0.0,0.0,0.0,0.0,0.0,0.0,0.0,0.0,0.0,0.0,0.0,0.0,2.3108,0.0,0.0,0.0,0.0,0.0,0.0,0.0,0.0,0.0,0.0,0.0,0.0,0.0,0.0,0.0,0.0,0.0,0.0,0.0,0.0,0.0,0.0,0.0,0.0,0.0,0.0,0.0,0.0,0.0,0.0,0.0,0.0,0.0,0.0,0.0,0.0,0.0,0.0,0.0,0.0,0.0,2.2228,2.2278,2.234,2.2228,2.2197,2.2197,2.2197,2.2197,2.2197,2.2197,2.2197,0.0,0.0,0.0,0.0,0.0,0.0,0.0,0.0,0.0,0.0,0.0,0.0,0.0,0.0,0.0,0.0,0.0,0.0,0.0,0.0,0.0,0.0,0.0,0.0,0.0,0.0,0.0,0.0,0.0,0.0,0.0,0.0,0.0,0.0,0.0,0.0,0.0,0.0,0.0,0.0,0.0,0.0,0.0,0.0,0.0,0.0,0.0,0.0,0.0,0.0,0.0,0.0,0.0,0.0,0.0,0.0,0.0,0.0,0.0,0.0,2.3108,0.0,0.0,0.0,0.0,0.0,0.0,0.0,0.0,0.0,0.0,0.0,0.0,0.0,0.0,0.0,0.0,0.0,0.0,0.0,0.0,0.0,0.0,0.0,0.0,0.0,0.0,0.0,0.0,0.0,0.0,0.0,0.0,0.0,0.0,0.0,0.0,0.0,0.0,0.0,0.0,2.2309,2.2432,2.2525,2.2445,2.2445,2.2402,2.2309,2.2309,2.2278,2.2197,2.2247,0.0,0.0,0.0,0.0,0.0,0.0,0.0,0.0,0.0,0.0,0.0,0.0,0.0,0.0,0.0,0.0,0.0,0.0,0.0,0.0,0.0,0.0,0.0,0.0,0.0,0.0,0.0,0.0,0.0,0.0,0.0,0.0,0.0,0.0,0.0,0.0,0.0,0.0,0.0,0.0,0.0,0.0,0.0,0.0,0.0,0.0,0.0,0.0,0.0,0.0,0.0,0.0,0.0,2.3258,2.291,2.2298,2.2854,2.2811,2.2298,2.2854,2.3108,2.3108,2.3108,0.0,0.0,0.0,0.0,0.0,0.0,0.0,0.0,0.0,0.0,0.0,0.0,0.0,0.0,0.0,0.0,0.0,0.0,0.0,0.0,0.0,0.0,0.0,0.0,2.3108,2.3108,2.3108,0.0,0.0,0.0,0.0,0.0,0.0,0.0,0.0,0.0,0.0,0.0,2.2451,2.2616,2.2739,2.272,2.272,2.2616,2.2463,2.2451,2.2402,2.2278,2.2371,2.242,0.0,0.0,0.0,0.0,0.0,0.0,0.0,0.0,0.0,0.0,0.0,0.0,0.0,0.0,0.0,0.0,0.0,0.0,0.0,0.0,0.0,0.0,0.0,0.0,0.0,0.0,0.0,0.0,0.0,0.0,0.0,0.0,2.4763,2.4687,0.0,0.0,0.0,0.0,0.0,0.0,0.0,0.0,0.0,0.0,0.0,0.0,0.0,2.4575,2.4575,2.4575,2.4324,2.3891,2.3891,2.3553,2.2975,2.3078,2.3035,2.2975,2.3078,0.0,2.3108,2.3108,0.0,0.0,0.0,0.0,0.0,0.0,0.0,0.0,0.0,0.0,0.0,0.0,0.0,0.0,0.0,0.0,0.0,0.0,0.0,0.0,0.0,0.0,2.3108,2.3108,2.3108,2.3108,0.0,2.3108,2.3108,2.3108,2.3078,0.0,0.0,0.0,0.0,0.0,0.0,0.0,2.2678,2.28,2.283,2.2708,2.272,2.269,2.2647,2.2647,2.2647,2.2659,2.2494,2.2482,2.2647,2.2482,0.0,0.0,0.0,0.0,0.0,0.0,0.0,0.0,0.0,0.0,0.0,0.0,0.0,0.0,0.0,0.0,0.0,0.0,0.0,0.0,0.0,0.0,0.0,0.0,0.0,0.0,0.0,0.0,0.0,2.546,2.5259,2.5259,2.4963,2.4788,0.0,0.0,0.0,0.0,0.0,0.0,0.0,0.0,0.0,2.4788,2.4361,2.412,2.412,2.3713,2.3592,2.3765,2.3765,2.3675,2.3519,2.3879,2.3847,2.3506,2.3879,2.4048,2.401,2.3358,2.3108,2.3108,0.0,0.0,0.0,0.0,2.3108,2.3108,2.3108,2.3108,2.3108,2.3108,0.0,0.0,0.0,0.0,0.0,0.0,0.0,0.0,0.0,0.0,2.3108,2.3108,2.3108,2.3108,2.3108,2.3108,2.3108,0.0,2.3108,2.3078,2.3017,0.0,0.0,0.0,0.0,2.2878,2.283,2.2939,2.2987,2.2939,2.2909,2.2878,2.283,2.28,2.2769,2.272,2.2696,2.2726,2.28,2.2726,2.2665,0.0,0.0,0.0,0.0,0.0,0.0,0.0,0.0,0.0,0.0,0.0,0.0,0.0,0.0,0.0,0.0,0.0,0.0,0.0,0.0,0.0,0.0,0.0,0.0,0.0,0.0,0.0,0.0,2.6122,2.5824,2.5824,2.5473,2.5247,0.0,0.0,0.0,0.0,0.0,0.0,2.5247,2.5037,2.5037,2.5247,2.4244,2.3827,2.4042,2.327,2.3109,2.3524,2.3524,2.3487,2.3468,2.4165,2.423,2.3779,2.4471,2.4788,2.4725,2.3885,2.3534,2.3534,2.3534,2.3534,2.3534,2.3534,2.3534,2.3534,2.3534,2.3534,2.3534,2.3534,2.3534,2.3534,2.3534,0.0,0.0,0.0,0.0,2.3534,2.3534,2.3534,2.3534,2.3534,2.3534,2.3534,2.3534,2.3534,2.3446,0.0,2.3108,2.3108,2.3108,0.0,0.0,0.0,0.0,2.2939,2.2939,2.3047,2.3108,2.3108,2.3108,2.3047,2.2969,2.2939,2.2909,2.28,2.2848,2.2909,2.2939,2.2909,2.2909,2.2909,0.0,0.0,0.0,0.0,0.0,0.0,0.0,0.0,0.0,0.0,0.0,0.0,0.0,0.0,0.0,0.0,0.0,0.0,0.0,0.0,0.0,0.0,0.0,0.0,0.0,0.0,0.0,0.0,0.0,2.6449,2.6424,0.0,0.0,0.0,0.0,2.6411,2.6411,2.6411,2.6411,2.5695,2.5625,2.6377,2.4874,2.4446,2.5228,2.4411,2.3763,2.3328,2.3328,2.304,2.2582,2.3323,2.3622,2.3667,2.4439,2.4788,2.4788,2.4725,2.47,2.47,2.47,2.47,2.47,2.47,2.47,2.47,2.47,2.47,2.47,2.47,2.47,2.47,2.47,2.47,0.0,0.0,2.47,2.47,2.47,2.47,2.47,2.47,2.47,2.47,2.47,2.47,2.4387,0.0,2.3108,2.3108,2.3108,0.0,2.3078,2.3078,2.3078,2.3078,2.3078,2.3108,2.3108,2.3108,2.3108,2.3108,2.3078,2.3078,2.3078,2.3078,2.2969,2.2969,2.3078,2.2969,2.2909,2.2909,2.2878,0.0,0.0,0.0,0.0,0.0,0.0,0.0,0.0,0.0,0.0,0.0,0.0,0.0,0.0,0.0,0.0,0.0,0.0,0.0,0.0,0.0,0.0,0.0,0.0,0.0,0.0,0.0,0.0,2.6499,2.6499,0.0,2.6499,2.6499,2.6499,2.6499,2.6499,2.6499,2.6499,2.6245,2.6198,2.6499,2.5441,2.5004,2.5312,2.4034,2.3531,2.3808,2.3327,2.3273,2.3545,2.3792,2.3933,2.3968,2.4769,2.5137,2.5171,2.566,2.546,2.4788,2.4788,2.4788,2.4788,2.4788,2.4788,2.4788,2.4788,2.4788,2.4788,2.4788,2.4788,2.4788,2.4788,2.4788,2.4788,2.4788,2.4788,2.4788,2.4788,2.4788,2.47,2.4381,2.4293,2.4192,2.3785,2.371,2.3584,2.3183,2.3409,2.3547,2.317,2.3108,2.3108,2.3108,2.3108,2.3246,2.364,2.369,2.3797,2.4148,2.3904,2.369,2.369,2.3321,2.3108,2.3108,2.3047,2.3047,2.3108,2.3047,2.3017,2.3017,2.3017,2.3017,0.0,0.0,0.0,0.0,0.0,0.0,0.0,0.0,0.0,0.0,0.0,0.0,0.0,0.0,0.0,0.0,0.0,0.0,0.0,0.0,0.0,0.0,0.0,0.0,0.0,0.0,2.6499,2.6499,2.6499,2.6499,2.6499,2.6499,2.6499,2.6499,2.6499,2.6499,2.6499,2.6245,2.6211,2.6499,2.5194,2.4659,2.4898,2.3386,2.283,2.3327,2.283,2.283,2.3327,2.3621,2.3866,2.412,2.4671,2.5194,2.5746,2.599,2.5822,2.5372,2.5372,2.5372,2.5372,2.5372,2.5372,2.5372,2.5372,2.5372,2.5372,2.5372,2.5372,2.5372,2.5372,2.5234,2.5084,2.5084,2.4926,2.4788,2.4788,2.4788,2.47,2.4356,2.428,2.4167,2.376,2.3672,2.3622,2.3434,2.3547,2.359,2.317,2.3108,2.3108,2.3108,2.3108,2.3308,2.3916,2.4004,2.4217,2.4725,2.4494,2.428,2.428,2.3898,2.3597,2.3409,2.3396,2.3308,2.3108,2.3108,2.3108,2.3108,2.3108,2.3108,2.3108,0.0,0.0,0.0,0.0,0.0,0.0,0.0,0.0,0.0,0.0,0.0,0.0,0.0,0.0,0.0,0.0,0.0,0.0,0.0,0.0,0.0,0.0,0.0,2.6521,2.6499,2.6499,2.6465,2.6487,2.6499,2.6452,2.6499,2.6499,2.6499,2.6499,2.6499,2.6499,2.5734,2.5676,2.6443,2.425,2.342,2.4129,2.2649,2.1887,2.1887,2.1849,2.1849,2.1887,2.2633,2.3394,2.4093,2.407,2.4981,2.6339,2.5571,2.5734,2.6418,2.6487,2.6499,2.6499,2.6474,2.6461,2.6449,2.6449,2.6449,2.6449,2.6449,2.6449,2.6449,2.6449,2.6047,2.5573,2.5573,2.5209,2.4788,2.4788,2.4788,2.4788,2.4763,2.4763,2.4763,2.4763,2.4763,2.4644,2.4117,2.3547,2.3145,2.3108,2.3108,2.3108,2.3108,2.3108,0.0,2.3916,2.4017,2.4243,2.4763,2.4813,2.4813,2.4813,2.48,2.4582,2.4029,2.4004,2.374,2.3133,2.3108,2.3108,2.3108,2.3108,2.3108,2.3108,0.0,0.0,0.0,0.0,0.0,0.0,0.0,0.0,0.0,0.0,0.0,0.0,0.0,0.0,0.0,0.0,0.0,0.0,0.0,0.0,0.0,2.6521,2.6521,2.6499,2.6499,2.628,2.5699,2.6129,2.628,2.5699,2.6176,2.6499,2.6499,2.6499,2.6499,2.6499,2.5734,2.5563,2.6129,2.4953,2.4555,2.5108,2.4111,2.3606,2.3616,2.3068,2.2811,2.2811,2.3039,2.3266,2.347,2.3711,2.4074,2.4462,2.4451,2.4552,2.4886,2.6047,2.6499,2.6449,2.6021,2.5598,2.5272,2.5272,2.5272,2.5272,2.5272,2.5272,2.5272,2.5272,2.5159,2.5034,2.5034,2.4901,2.4788,2.4788,2.4788,2.4687,2.4318,2.4217,2.4217,2.4217,2.4217,2.4293,2.4512,2.4437,2.4061,2.3246,2.3108,2.3108,2.3108,2.3108,0.0,2.3916,2.4343,2.4795,2.5322,2.5385,2.5385,2.5385,2.5034,2.4582,2.4029,2.4004,2.374,2.3133,2.3108,2.3108,2.3108,2.3108,2.3108,0.0,0.0,0.0,0.0,0.0,0.0,0.0,0.0,0.0,0.0,0.0,0.0,0.0,0.0,0.0,0.0,0.0,0.0,0.0,0.0,0.0,0.0,2.6117,2.5978,2.5534,2.6082,2.6314,2.5851,2.6211,2.6314,2.5851,2.6245,2.6499,2.6499,2.6387,2.6441,2.6804,2.6248,2.6215,2.6871,2.5737,2.5261,2.5558,2.4399,2.3825,2.3815,2.3405,2.3184,2.3184,2.3184,2.3375,2.3655,2.3548,2.384,2.4441,2.409,2.4098,0.0,0.0,0.0,0.0,0.0,2.5774,2.5511,2.5511,2.5511,2.5511,2.5511,2.5511,2.5511,2.5511,2.5335,2.5146,2.5146,2.4983,2.4788,2.4788,2.4788,2.4713,2.4418,2.4343,2.4343,2.4343,2.4343,2.4443,2.4725,2.4788,0.0,2.3923,2.381,2.381,2.381,2.381,2.401,2.4594,2.4946,2.536,2.5933,2.5996,2.5996,2.5996,2.5686,0.0,0.0,0.0,2.3948,2.3133,2.3108,0.0,0.0,0.0,2.3108,2.3108,2.3108,0.0,0.0,2.3047,2.3017,0.0,0.0,0.0,0.0,0.0,0.0,0.0,0.0,0.0,0.0,0.0,0.0,0.0,0.0,0.0,0.0,2.5725,2.5442,2.4384,2.5499,2.6383,2.6233,2.6383,2.6452,2.6383,2.6411,2.6471,2.6587,2.6297,2.6481,2.7333,0.0,0.0,0.0,0.0,2.544,2.5496,2.4076,2.3339,2.3339,2.3339,2.3339,2.3339,2.3339,2.3714,2.4263,2.3591,2.4081,2.5228,2.4117,2.4039,2.472,2.5147,2.5193,2.518,2.6077,2.628,2.6195,2.6276,0.0,0.0,2.6311,2.6311,2.6311,2.6311,2.5912,2.5511,2.5511,2.5172,2.4788,2.4788,2.4788,2.4788,2.4788,2.4788,2.4813,2.4863,2.4876,2.4888,2.4996,2.5008,2.5008,2.5008,2.4876,2.4788,2.4788,2.4788,2.4983,2.5448,2.5561,2.5799,2.6336,0.0,0.0,2.6499,2.6499,2.6248,2.5636,2.5046,2.4249,2.3246,2.3145,2.3108,2.3108,2.3108,2.3108,2.3108,2.3108,2.3108,2.3108,2.3108,2.3108,0.0,0.0,0.0,0.0,0.0,0.0,0.0,0.0,0.0,0.0,0.0,0.0,0.0,0.0,0.0,2.5436,2.6358,2.6708,2.5254,2.5616,2.5639,2.466,2.5721,2.6245,2.5594,2.5876,2.6394,2.7082,2.6822,2.7016,2.791,2.6615,2.6089,2.6624,2.5081,2.4386,2.4714,2.4398,2.4239,2.4239,0.0,0.0,2.4239,2.4239,2.4313,2.4451,2.3981,2.3939,2.4144,2.3549,2.3552,2.4015,2.4931,2.4637,2.3863,2.5277,2.5094,2.4247,2.4892,2.5146,2.5146,2.5146,2.5146,2.5146,2.5146,2.5059,0.0,2.4938,2.4863,2.4788,2.4788,2.4788,2.4788,2.4788,2.4788,2.4933,2.536,2.5448,2.5586,2.6084,2.6172,2.6172,2.6172,2.541,2.4788,2.4788,2.4788,2.4825,2.4926,2.5335,2.5636,2.5749,2.6223,2.6499,2.6499,2.6499,2.6248,2.5636,2.4695,2.4067,2.3841,2.3358,2.3108,2.3108,2.3108,2.3108,2.3108,2.3108,2.3108,2.3108,2.3108,2.3108,0.0,0.0,0.0,0.0,0.0,0.0,0.0,0.0,0.0,0.0,0.0,2.8386,2.722,0.0,2.6317,2.5234,2.5908,2.6271,2.5322,2.5997,2.6286,2.5382,2.5599,2.5911,2.6279,2.636,2.6748,2.7623,2.6997,2.6942,2.7802,2.6479,2.6028,2.668,2.5491,2.4955,2.5137,2.4743,2.4497,2.4497,2.4497,2.4497,2.4497,2.4497,2.4497,2.4487,2.4312,2.4209,2.4178,2.3722,2.3761,2.4211,2.5105,2.4977,2.4425,2.5639,2.5647,2.5096,2.549,2.5636,2.5636,2.5636,2.5636,2.5636,2.5636,2.5636,2.5636,2.5636,2.5636,2.5636,2.5636,2.5636,2.5636,2.5636,2.5636,2.5711,2.5975,2.6059,2.6147,2.6436,2.6499,2.6499,2.6499,2.6034,2.5636,2.5636,2.5636,2.5636,2.5636,2.5862,2.6059,2.6059,2.6323,2.6499,2.6499,2.6499,2.6248,2.5636,2.5096,2.4556,2.4017,2.3715,2.3396,2.3108,2.3108,2.3108,2.3108,2.3108,2.3108,2.3108,2.3108,2.3108,0.0,0.0,0.0,0.0,0.0,0.0,0.0,3.0645,3.0381,2.9289,2.938,2.9088,2.7156,2.6741,2.6342,2.5307,2.5657,2.5931,2.5585,2.6305,2.69,2.6864,2.6069,2.5898,2.6868,2.6818,2.697,2.7681,2.6804,2.657,2.7477,2.6422,2.611,2.6823,2.5997,2.5537,2.5537,2.4861,2.4497,2.4497,2.4497,2.4497,2.4497,2.4497,2.4497,2.4497,2.4497,2.4497,2.4466,2.4157,2.4278,2.47,2.5474,2.5686,2.5707,2.6397,2.6546,2.6417,2.649,2.6499,2.6499,2.6499,2.6499,2.6499,2.6499,2.6499,2.6499,2.6499,2.6499,2.6499,2.6499,2.6499,2.6499,2.6499,2.6499,2.6499,2.6499,2.6499,2.6499,2.6499,2.6499,2.6499,2.6499,2.6499,2.6499,2.6499,2.6499,2.6499,2.6499,2.6499,2.6499,2.6499,2.6499,2.6499,2.6499,2.6499,2.6298,2.5799,2.5649,2.5172,2.4205,2.4054,2.3728,2.3108,2.3108,2.3108,2.3108,2.3108,2.3108,2.3108,2.3108,2.3108,2.964,3.0307,3.0607,3.0192,3.0555,3.0642,0.0,2.9909,3.0177,2.8371,2.8011,2.7747,2.6726,2.6989,2.71,2.6143,2.6929,2.7519,2.7097,2.6124,2.6141,2.7968,2.7532,2.6688,2.5788,2.6092,2.6391,2.651,2.6084,2.624,2.7099,2.6284,2.5819,2.5944,2.5105,2.4658,2.4658,2.454,2.4497,2.4497,2.4497,2.4497,2.4497,2.4497,2.4497,2.4497,2.4497,2.4497,2.4497,2.4445,2.4724,2.5205,2.5916,2.6422,2.6759,2.7094,2.6754,2.6166,2.6407,2.6499,2.6499,2.6499,2.6499,2.6499,2.6499,2.6499,2.6499,2.6499,2.6499,2.6499,2.6499,2.6499,2.6499,2.6499,2.6499,2.6499,2.6499,2.6499,2.6499,2.6499,2.6499,2.6499,2.6499,2.6499,2.6499,2.6499,2.6499,2.6499,2.6499,2.6499,2.6499,2.6499,2.6499,2.6499,2.6499,2.6499,2.6461,2.6399,2.5921,2.5335,2.4725,2.4255,2.3728,2.3108,2.3108,2.3108,2.3108,2.3108,2.3108,2.3108,2.3108,2.3108,2.9757,3.0555,3.0934,3.0699,3.0803,3.0833,3.0223,3.0302,3.0088,2.8478,2.8159,2.7891,2.6864,2.7151,2.7273,2.6621,2.76,2.8132,2.7368,2.7409,2.7493,2.7457,2.77,2.7618,2.6952,2.6967,2.715,2.7561,2.7561,2.7637,2.7891,2.7058,2.6577,2.6577,2.5715,2.5505,2.6008,2.4988,2.4733,2.5263,2.4733,2.4497,2.4497,2.4497,2.4497,2.4497,2.4497,2.4497,2.4497,2.4497,2.5199,2.6355,2.6639,2.751,2.8522,2.7975,2.7528,2.7236,2.7012,2.6977,2.6927,2.66,2.6499,2.6499,2.6499,2.6499,2.6499,2.6499,2.6499,2.6499,2.6499,2.6499,2.6499,2.6499,2.6499,2.6499,2.6499,2.6499,2.6499,2.6499,2.6499,2.6499,2.6499,2.6499,2.6499,2.6499,2.6499,2.6499,2.6499,2.6499,2.6499,2.6499,2.6499,2.6499,2.6499,2.6499,2.6499,2.6499,2.6273,2.5883,2.5297,2.5046,2.4519,2.3653,2.364,2.3446,2.3108,2.3108,2.3108,2.3108,2.3108,2.3108,3.0058,3.0673,3.0986,3.0986,3.0986,3.0986,3.0986,3.071,3.0126,2.8939,2.8676,2.8371,2.7331,2.7585,2.7867,2.7654,2.8319,2.87,2.8223,2.8387,2.8278,2.7579,2.7735,2.79,2.7939,2.7735,2.7637,2.7851,2.8223,2.8343,2.8131,2.7476,2.711,2.711,2.6235,2.6235,2.711,2.56,2.5179,2.5788,2.5137,2.4861,2.4861,2.4861,2.4743,2.4497,2.4497,2.4625,2.4861,2.4861,2.5883,2.7476,2.7476,2.8422,2.9691,2.8875,2.8461,2.8247,2.7708,2.7507,2.7419,2.6901,2.6725,2.6688,2.6606,2.6555,2.6568,2.6636,2.6636,2.6636,2.6636,2.6636,2.6636,2.6636,2.6636,2.6636,2.6636,2.6636,2.6636,2.6568,2.6555,2.6521,2.6499,2.6499,2.6499,2.6499,2.6499,2.6499,2.6499,2.6499,2.6499,2.6499,2.6499,2.6499,2.6499,2.6499,2.6499,2.6499,2.6499,2.6235,2.5624,2.5598,2.5172,2.4243,2.4079,2.3791,2.3346,2.3183,2.3108,2.3108,2.3108,2.3108,3.0947,3.0973,3.0986,3.0986,3.0986,3.0986,3.0986,3.0849,3.0444,2.9537,2.9225,2.8873,2.8176,2.8585,2.916,2.9549,2.9316,2.9445,3.0457,2.8454,2.7481,2.9133,2.7855,2.7145,0.0,2.7907,2.7354,2.6351,2.7069,2.7424,2.7151,2.711,2.711,2.711,2.6235,2.6235,2.711,2.6193,2.5777,2.5777,2.5777,2.5746,2.5746,2.5746,2.5306,2.4497,2.4497,2.4978,2.5746,2.5746,2.6812,2.8462,2.8462,2.9,2.9792,2.9754,2.939,2.8787,2.8273,2.8084,2.7996,2.7444,2.7291,2.719,2.681,2.6679,2.6726,2.6943,2.6977,2.6977,2.6977,2.6977,2.6977,2.6977,2.6977,2.6977,2.6977,2.6977,2.6943,2.6726,2.6679,2.6658,2.6521,2.6499,2.6499,2.6499,2.6499,2.6499,2.6499,2.6499,2.6499,2.6499,2.6499,2.6499,2.6499,2.6499,2.6499,2.6499,2.6499,2.6235,2.5624,2.5598,2.5347,2.4775,2.4268,2.3991,2.3966,2.3384,2.3108,2.3108,2.3108,2.3108,3.0986,3.0986,3.0986,3.0986,3.0986,3.0986,3.0986,3.0849,3.0457,2.9561,2.9238,2.9081,2.8964,2.9042,2.9238,2.9626,2.9355,2.9121,2.916,2.8279,2.7919,2.8636,2.8227,0.0,0.0,0.0,0.0,2.7983,2.8846,2.925,2.8922,2.8882,2.8882,2.8882,2.7435,2.7098,2.8011,2.5966,2.5221,2.5777,2.5777,2.5777,2.5777,2.5777,2.5621,2.5337,2.5337,2.5547,2.5819,2.64,2.7395,2.8502,2.8502,2.904,2.983,2.9934,2.9884,2.9593,2.9025,2.8822,2.8771,2.8371,2.8229,2.8127,2.7672,2.7493,2.7416,2.7092,2.699,2.699,2.699,2.699,2.699,2.699,2.699,2.699,2.699,2.699,2.6977,2.6909,2.6909,2.6875,2.6841,2.6726,2.6589,2.6499,2.6499,2.6499,2.6499,2.6499,2.6499,2.6499,2.6499,2.6499,2.6499,2.6499,2.6499,2.6499,2.6499,2.6411,2.621,2.6197,2.59,2.5347,2.5159,2.4707,2.4004,2.3803,2.3471,2.3108,2.3108,2.3108,3.0986,3.0986,3.0986,3.0986,3.0986,3.0986,3.0986,3.0911,3.0647,3.0088,2.9806,2.9729,2.9922,2.9561,2.9406,3.0063,2.9704,2.9199,2.89,2.8478,2.8239,2.8386,2.8386,2.8505,0.0,0.0,0.0,2.9067,2.9934,3.0381,3.0049,3.0011,2.9972,2.9895,2.8462,2.7971,2.8502,2.6464,2.5547,2.5777,2.611,2.5955,2.5348,2.5663,2.5621,2.5348,2.5348,2.5505,2.5861,2.673,2.7637,2.8542,2.8897,2.9392,2.9934,3.0113,3.0228,3.0126,2.9757,2.9617,2.9578,2.914,2.8997,2.8882,2.8425,2.828,2.8164,2.7631,2.7511,2.7459,2.7232,2.718,2.718,2.718,2.718,2.718,2.718,2.718,2.7146,2.7113,2.7113,2.7079,2.7024,2.6829,2.6692,2.6589,2.6521,2.6499,2.6499,2.6499,2.6499,2.6499,2.6499,2.6499,2.6499,2.6499,2.6499,2.6499,2.6499,2.6499,2.6499,2.6499,2.6323,2.5912,2.5699,2.5259,2.4569,2.4381,2.4004,2.3409,2.3409,2.3308,3.0986,3.0986,3.0986,3.0986,3.0986,3.0986,3.0986,3.0986,3.0986,3.0986,3.0849,3.0773,3.0949,3.0126,2.9729,3.0748,3.0139,2.9588,2.9626,2.8912,2.8386,2.8466,2.8466,2.8821,2.9704,0.0,0.0,2.9574,0.0,3.0609,3.0406,3.0406,3.0292,3.0113,2.9275,2.8712,2.8502,2.7557,2.6648,2.5819,2.6689,2.6246,2.4658,2.5421,2.5379,2.4615,2.4583,2.502,2.5861,2.673,2.7637,2.8542,2.9638,3.0037,3.0075,3.033,3.0406,3.0406,3.0444,3.0406,3.0317,2.9753,2.9574,2.9508,2.9148,2.9038,2.8957,2.856,2.8459,2.8294,2.7686,2.7542,2.7529,2.7503,2.749,2.749,2.749,2.749,2.7469,2.7335,2.7302,2.7235,2.7045,2.6863,2.6726,2.6726,2.6589,2.6521,2.6499,2.6499,2.6499,2.6499,2.6499,2.6499,2.6499,2.6499,2.6499,2.6499,2.6499,2.6499,2.6499,2.6499,2.6499,2.6499,2.5925,2.5624,2.5598,2.5109,2.4582,2.4042,2.4017,2.3703,3.0823,3.0986,3.0986,3.0986,3.0986,3.0986,3.0986,3.0986,3.0949,3.0811,3.0849,3.0874,3.0811,3.0011,2.9535,2.9947,2.8648,2.7874,2.8636,2.8039,2.7959,2.9225,2.9381,2.9704,3.0583,3.0861,0.0,0.0,3.0647,3.0609,3.0406,3.0406,3.0368,3.033,2.9496,2.8937,2.8712,2.7637,2.6648,2.5819,2.6689,2.6864,2.6412,2.5986,2.6038,2.6412,2.5757,2.5579,2.5861,2.673,2.7354,2.7839,2.8779,2.9223,2.9445,3.0292,3.0609,3.0647,3.0798,3.0761,3.0621,3.0629,3.0615,3.0511,2.9975,2.9842,2.9712,2.9209,2.9087,2.8943,2.832,2.8164,2.8059,2.7594,2.749,2.749,2.749,2.749,2.749,2.7469,2.7469,2.7403,2.7235,2.7167,2.71,2.6943,2.6875,2.6773,2.6521,2.6499,2.6499,2.6499,2.6499,2.6499,2.6499,2.6499,2.6499,2.6499,2.6499,2.6499,2.6499,2.6499,2.6499,2.6499,2.6348,2.6059,2.5598,2.546,2.5121,2.4607,2.4192,2.3916,3.0748,3.0986,3.0986,3.0986,3.0986,3.0986,3.0986,3.0986,3.0986,3.0849,3.0911,3.0986,3.0849,3.0126,2.9678,3.019,2.8727,2.7782,2.8307,2.7999,2.8079,2.903,2.9459,3.0024,3.0911,3.0986,3.0986,0.0,3.0911,3.0761,3.0672,3.0672,3.0634,3.0533,3.005,2.9496,2.8791,2.8251,2.7424,2.6359,2.7395,2.7597,2.7069,2.6193,2.608,2.6483,0.0,2.5463,2.5872,2.6453,2.7232,2.8131,2.8779,2.938,2.9896,3.0571,3.0849,3.0849,3.0949,3.0911,3.0849,3.0949,3.0986,3.0934,3.0607,3.0503,3.0385,2.981,2.9653,2.9523,2.8922,2.8616,2.8294,2.7981,2.7673,2.749,2.749,2.749,2.749,2.749,2.749,2.7503,2.7403,2.7335,2.7268,2.7146,2.7045,2.6943,2.6739,2.6705,2.6705,2.6705,2.6705,2.6671,2.6589,2.6589,2.6555,2.6499,2.6499,2.6499,2.6499,2.6499,2.6499,2.6499,2.6499,2.6336,2.5975,2.5975,2.5686,2.5159,2.4845,2.4582,3.0558,3.0911,3.0986,3.0986,3.0911,3.0861,3.0986,3.0911,3.0861,3.0986,3.0986,3.0986,3.0986,3.0305,2.9947,3.0697,2.9381,2.8267,2.8386,2.8386,2.8426,2.8545,2.9342,3.0177,3.0949,3.0986,3.0986,3.0986,3.0986,3.0986,3.0986,3.0986,3.0911,3.0736,3.0698,3.019,2.9067,2.9211,2.8636,2.7395,2.8383,2.8343,2.7342,2.6359,2.5944,2.6027,2.5147,2.5179,2.5902,2.6257,2.7325,2.8752,2.9223,2.9896,3.0609,3.0874,3.0986,3.0986,3.0986,3.0986,3.0986,3.0986,3.0986,3.0986,3.0986,3.0986,3.0882,3.0348,3.0218,3.0074,2.9536,2.9,2.8569,2.8446,2.8007,2.7594,2.7516,2.749,2.749,2.749,2.749,2.749,2.749,2.7403,2.7335,2.7335,2.718,2.7079,2.7079,2.7024,2.699,2.699,2.699,2.6943,2.676,2.676,2.6692,2.6521,2.6521,2.6521,2.6499,2.6499,2.6499,2.6499,2.6499,2.6499,2.6499,2.6499,2.6269,2.5866,2.579,2.5545,2.9578,3.0457,3.0986,3.0986,3.047,3.0101,3.0823,3.0419,3.0139,3.0861,3.0986,3.0986,3.0986,3.0305,2.9742,2.9909,2.8518,2.7649,2.8307,2.8386,2.8664,2.9381,3.0216,3.0823,3.0986,3.0986,0.0,0.0,3.0986,3.0986,3.0986,3.0986,3.0986,3.0949,3.0811,3.0584,3.0381,3.0254,2.9678,2.8767,2.8964,2.8924,2.8715,2.7087,2.6771,2.7395,2.6524,0.0,2.6431,2.7197,2.7815,2.8307,2.9096,2.9575,2.9947,3.071,3.0986,3.0986,3.0986,3.0986,3.0986,3.0986,3.0986,3.0986,3.0986,3.0986,3.096,3.0869,3.083,3.0712,3.01,2.9865,2.9588,2.8608,2.8307,2.8111,2.7594,2.749,2.749,2.749,2.749,2.749,2.749,2.7503,2.7469,2.7469,2.7436,2.7403,2.7403,2.718,2.699,2.699,2.699,2.699,2.6943,2.6943,2.6875,2.6692,2.6692,2.6624,2.6499,2.6499,2.6499,2.6499,2.6499,2.6499,2.6499,2.6499,2.6731,2.7161,2.6713,2.6749,2.9348,3.0343,3.0986,3.0986,3.071,3.0508,3.0898,3.0672,3.0508,3.0911,3.0986,3.0986,3.0986,3.0659,3.0381,3.0381,2.8951,2.7959,2.8347,2.8386,2.8545,2.8978,3.0177,3.0986,3.0986,3.0986,3.0986,3.0986,3.0986,3.0986,3.0986,3.0986,3.0986,3.0986,3.0911,3.0811,3.0698,3.0723,3.0394,2.9767,2.9883,2.9883,2.9716,2.8426,2.8068,2.8438,2.7574,2.7441,2.7867,2.7936,2.8533,2.9471,2.9537,2.9896,3.0419,3.0861,3.0986,3.0986,3.0986,3.0986,3.0986,3.0986,3.0986,3.0986,3.0986,3.0986,3.0986,3.0986,3.0986,3.0921,3.0647,3.0322,2.9879,2.9052,2.8386,2.7863,2.7555,2.749,2.749,2.749,2.749,2.749,2.749,2.749,2.749,2.749,2.749,2.749,2.749,2.7369,2.7268,2.7268,2.7268,2.7248,2.7146,2.7146,2.7079,2.6875,2.6875,2.6773,2.6624,2.6705,2.6671,2.6499,2.6555,2.6555,2.6499,2.685,2.7196,2.7504,2.7609,2.7816,2.904,2.9909,3.0545,3.0911,3.071,3.0545,3.0911,3.0861,3.0785,3.0949,3.0986,3.0986,3.0986,3.0986,3.0986,3.0986,2.9704,2.8664,2.8664,2.8664,2.8664,2.8664,3.0063,3.0986,3.0986,3.0986,0.0,3.0986,3.0986,3.0986,3.0986,3.0986,3.0986,3.0986,3.0986,3.0911,3.0773,3.0911,3.0823,3.052,3.0685,3.0685,3.0482,2.9639,2.9238,2.9199,2.8493,2.8612,2.9199,2.8861,2.9549,3.0723,3.019,3.0381,3.0986,3.0986,3.0986,3.0986,3.0986,3.0986,3.0986,3.0986,3.0986,3.0986,3.0986,3.0986,3.0986,3.0986,3.0986,3.0986,3.0986,3.066,3.01,2.9444,2.8477,2.7646,2.7529,2.749,2.749,2.749,2.749,2.749,2.749,2.749,2.749,2.749,2.749,2.749,2.749,2.749,2.749,2.749,2.749,2.7469,2.7335,2.7335,2.7268,2.7079,2.7045,2.6977,2.676,2.6909,2.6888,2.6602,2.6692,2.6692,2.6602,2.7297,2.767,2.7835,2.8524,2.8876,2.8032,2.8585,2.9018,3.0621,2.9819,2.9057,3.0621,3.0381,3.0024,3.0823,3.0986,3.0986,3.0986,3.0986,3.0986,3.0986,3.0216,2.9575,2.9575,2.9575,2.9575,2.9575,3.0419,3.0986,3.0986,3.0986,3.0986,3.0986,3.0986,3.0986,3.0986,3.0986,3.0986,3.0986,3.0986,3.0986,3.0986,3.0986,3.0986,3.0949,3.0949,3.0949,3.0911,3.0024,2.9626,2.9626,2.9575,2.9588,0.0,3.0419,3.0823,3.0986,3.0911,3.0936,3.0986,3.0986,3.0986,3.0986,3.0986,3.0986,3.0986,3.0986,3.0986,3.0986,3.0986,3.0986,3.0986,3.0986,3.0986,3.0986,3.0986,3.0947,3.0634,2.9572,2.8813,2.8164,2.7607,2.749,2.749,2.749,2.749,2.749,2.749,2.749,2.749,2.749,2.749,2.749,2.749,2.749,2.749,2.749,2.749,2.749,2.7503,2.7503,2.7436,2.7268,2.7268,2.718,2.6977,2.699,2.699,2.6956,2.6977,2.6977,2.6956,2.7617,2.8266,2.8876,2.9535,3.0117,2.7901,2.8782,2.9459,3.0697,3.047,3.0152,3.0823,3.0748,3.0583,3.0949,3.0986,3.0986,3.0986,3.0986,3.0986,3.0986,3.0266,2.9704,2.9704,2.9704,2.9704,2.9704,3.047,3.0986,0.0,0.0,3.0986,3.0986,3.0986,3.0986,3.0986,3.0986,3.0986,3.0986,3.0986,3.0986,3.0986,3.0986,3.0986,3.0986,3.0986,3.0986,3.0986,3.0621,3.047,3.047,3.047,3.047,0.0,3.0861,3.0986,3.0986,3.0986,3.0986,3.0986,3.0986,3.0986,3.0986,3.0986,3.0986,3.0986,3.0986,3.0986,3.0986,3.0986,3.0986,3.0986,3.0986,3.0986,3.0986,3.0986,3.0725,3.0268,2.947,2.8852,2.8216,2.762,2.749,2.749,2.749,2.749,2.749,2.749,2.749,2.749,2.749,2.749,2.749,2.749,2.749,2.749,2.749,2.749,2.749,2.749,2.749,2.7503,2.7436,2.7436,2.7335,2.718,2.7268,2.7214,2.699,2.7113,2.7323,2.7597,2.8279,2.8939,2.9628,3.0313,3.0777,2.7901,2.8664,2.9238,3.0343,3.0621,3.0621,3.0621,3.0823,3.0986,3.0986,3.0986,3.0986,3.0986,3.0986,3.0986,3.0986,3.047,2.9973,2.9742,2.9909,2.9986,2.9742,3.047,3.0986,3.0986,3.0986,3.0986,3.0986,3.0986,3.0986,3.0986,3.0986,3.0986,3.0986,3.0986,3.0986,3.0986,3.0986,3.0986,3.0986,3.0986,3.0986,3.0986,3.0986,3.0986,3.0986,3.0986,3.0986,0.0,3.0986,3.0986,3.0986,3.0986,3.0986,3.0986,3.0986,3.0986,3.0986,3.0986,3.0986,3.0986,3.0986,3.0986,3.0986,3.0986,3.0986,3.0986,3.0986,3.0986,3.0986,3.0986,3.0686,3.0202,2.9457,2.8996,2.8438,2.7659,2.749,2.749,2.749,2.749,2.749,2.749,2.749,2.749,2.749,2.749,2.749,2.749,2.749,2.749,2.749,2.749,2.749,2.749,2.749,2.749,2.749,2.749,2.7469,2.7369,2.7469,2.7403,2.7146,2.7503,2.7842,2.8163,2.9002,2.969,3.0178,3.0896,3.119,2.7913,2.7851,2.762,2.9303,2.9704,2.9704,2.9704,3.0381,3.0986,3.0986,3.0986,3.0986,3.0986,3.0986,3.0986,3.0986,3.0986,3.071,2.9819,3.0419,3.0672,2.9781,3.047,3.0986,3.0986,3.0986,3.0986,3.0986,3.0986,0.0,3.0986,3.0986,3.0986,3.0986,3.0986,3.0986,3.0986,3.0986,3.0986,3.0986,3.0986,3.0986,3.0986,3.0986,3.0986,3.0986,3.0986,3.0986,0.0,3.0986,3.0986,3.0986,3.0986,3.0986,3.0986,3.0986,3.0986,3.0986,3.0986,3.0986,3.0986,3.0986,3.0986,3.0986,3.0986,3.0986,3.0986,3.0986,3.0986,3.0986,3.0986,3.0986,3.0686,2.9585,2.931,2.8948,2.7751,2.749,2.749,2.749,2.749,2.749,2.749,2.749,2.749,2.749,2.749,2.749,2.749,2.749,2.749,2.749,2.749,2.749,2.749,2.749,2.749,2.749,2.749,2.749,2.749,2.749,2.749,2.749,2.8157,2.8481,2.8514,2.9842,3.0494,3.0524,3.119,3.1409,2.6648,2.7517,2.8267,2.942,3.0152,3.0583,3.0583,3.0785,3.0986,3.0986,3.0986,3.0986,3.0986,3.0986,3.0986,3.0986,3.0986,3.0898,3.0621,3.0823,3.0911,3.0621,3.0823,3.0986,0.0,0.0,3.0986,3.0986,3.0986,3.0986,3.0986,3.0986,3.0986,3.0986,3.0986,3.0986,3.0986,3.0986,3.0986,3.0986,3.0986,3.0986,3.0986,3.0986,3.0986,3.0986,3.0986,3.0986,3.0986,3.0986,3.0986,3.0986,3.0986,3.0986,3.0986,3.0986,3.0986,3.0986,3.0986,3.0986,3.0986,3.0986,3.0986,3.0986,3.0986,3.0986,3.0986,3.0986,3.0986,3.0986,3.0986,3.0986,3.079,3.0045,2.9562,2.91,2.8281,2.7798,2.749,2.749,2.749,2.749,2.749,2.749,2.749,2.749,2.749,2.749,2.749,2.749,2.749,2.749,2.749,2.749,2.749,2.749,2.749,2.749,2.749,2.749,2.749,2.749,2.7723,2.8157,2.8384,2.8949,2.9872,3.0299,3.0748,3.119,3.1409,3.1467,2.6012,2.7387,2.8545,2.9057,3.0101,3.0911,3.0583,3.0748,3.0986,3.0986,3.0986,3.0986,3.0986,3.0986,3.0986,3.0986,3.0986,3.0986,3.0986,3.0986,3.0986,3.0986,3.0986,0.0,0.0,3.0986,3.0986,3.0986,3.0986,3.0986,3.0986,3.0986,3.0986,3.0986,3.0986,3.0986,3.0986,3.0986,3.0986,3.0986,3.0986,3.0986,3.0986,3.0986,3.0986,3.0986,3.0986,3.0986,0.0,3.0986,3.0986,3.0986,3.0986,3.0986,3.0986,3.0986,3.0986,3.0986,3.0986,3.0986,3.0986,3.0986,3.0986,3.0986,3.0986,3.0986,3.0986,3.0986,3.0986,3.0986,3.0986,3.0986,3.0843,3.0231,2.9693,2.9118,2.8538,2.7941,2.749,2.749,2.749,2.749,2.749,2.749,2.749,2.749,2.749,2.749,2.749,2.749,2.749,2.749,2.749,2.749,2.749,2.749,2.749,2.749,2.749,2.749,2.749,2.749,2.7809,2.8481,2.8757,2.9393,3.0494,3.0748,3.1087,3.1511,3.1511,3.1511,0.0,2.7289,2.8378,2.8374,2.9704,3.0785,2.9986,3.0419,0.0,3.0986,3.0986,3.0986,3.0986,3.0986,3.0986,3.0986,3.0986,3.0986,3.0986,3.0986,3.0986,3.0986,3.0986,0.0,3.0986,3.0986,3.0986,3.0986,3.0986,3.0986,3.0986,3.0986,3.0986,3.0986,3.0986,3.0986,3.0986,3.0986,3.0986,3.0986,3.0986,3.0986,3.0986,3.0986,3.0986,0.0,3.0986,3.0986,3.0986,3.0986,3.0986,3.0986,3.0986,3.0986,3.0986,3.0986,3.0986,3.0986,3.0986,3.0986,3.0986,3.0986,3.0986,3.0986,3.0986,3.0986,3.0986,3.0986,3.0986,3.0986,3.0986,3.0986,3.0843,3.0231,2.9693,2.9118,2.8538,2.7941,2.749,2.749,2.749,2.749,2.749,2.749,2.749,2.749,2.749,2.749,2.749,2.749,2.749,2.749,2.749,2.749,2.749,2.749,2.749,2.749,2.749,2.749,2.749,2.7556,2.7875,2.8565,2.9268,2.995,3.0584,3.119,3.1511,3.1511,3.1511,3.1511,2.4511,0.0,2.7948,2.8318,2.9704,3.0949,0.0,3.0861,3.0986,3.0986,3.0986,3.0986,3.0986,3.0986,3.0986,3.0986,3.0986,3.0986,3.0986,3.0986,3.0986,3.0986,3.0986,3.0986,3.0986,3.0986,3.0986,3.0986,3.0986,3.0986,3.0986,3.0986,3.0986,3.0986,3.0986,3.0986,3.0986,3.0986,3.0986,3.0986,3.0986,3.0986,3.0986,3.0986,3.0986,3.0986,3.0986,3.0986,3.0986,3.0986,3.0986,3.0986,3.0986,3.0986,3.0986,3.0986,3.0986,3.0986,3.0986,3.0986,3.0986,3.0986,3.0986,3.0986,3.0986,3.0986,3.0986,3.0986,3.0986,3.0986,3.0986,3.0986,3.0843,3.0231,2.9693,2.9118,2.8538,2.7941,2.749,2.749,2.749,2.749,2.749,2.749,2.749,2.749,2.749,2.749,2.749,2.749,2.749,2.749,2.749,2.749,2.749,2.749,2.749,2.749,2.749,2.749,2.749,2.8006,2.8565,2.9268,3.0434,3.1117,3.1278,3.1409,3.1511,3.1511,3.1511,3.1511,2.3829,2.5491,2.7325,2.8163,2.942,3.0508,3.0911,3.0986,3.0986,3.0986,3.0986,3.0986,3.0986,3.0986,3.0986,3.0986,3.0986,3.0986,3.0986,3.0986,3.0986,3.0986,3.0986,3.0986,0.0,3.0986,3.0986,3.0986,3.0986,3.0986,3.0986,3.0986,3.0986,3.0986,3.0986,3.0986,3.0986,3.0986,3.0986,3.0986,3.0986,3.0986,3.0986,3.0986,3.0986,3.0986,3.0986,3.0986,3.0986,3.0986,3.0986,3.0986,3.0986,3.0986,3.0986,3.0986,3.0986,3.0986,3.0986,3.0986,3.0986,3.0986,3.0986,3.0986,3.0986,3.0986,3.0986,3.0986,3.0986,3.0986,3.0986,3.0986,3.0843,3.0231,2.9693,2.9118,2.8538,2.7941,2.749,2.749,2.749,2.749,2.749,2.749,2.749,2.749,2.749,2.749,2.749,2.749,2.749,2.749,2.749,2.749,2.749,2.749,2.749,2.749,2.749,2.7656,2.7941,2.832,2.8967,2.995,3.097,3.1511,3.1511,3.1511,3.1511,3.1511,3.1511,3.1511,2.3411,2.4876,2.6526,2.7953,2.8995,2.9935,3.0785,3.0986,3.0986,3.0986,3.0986,3.0986,3.0986,3.0986,3.0986,3.0986,3.0986,3.0986,3.0986,3.0986,3.0986,3.0986,3.0986,0.0,3.0986,3.0986,3.0986,3.0986,3.0986,3.0986,3.0986,3.0986,3.0986,3.0986,3.0986,3.0986,3.0986,3.0986,3.0986,3.0986,3.0986,3.0986,3.0986,3.0986,3.0986,3.0986,0.0,0.0,3.0986,3.0986,3.0986,3.0986,3.0986,3.0986,3.0986,3.0986,3.0986,3.0986,3.0986,3.0986,3.0986,3.0986,3.0986,3.0986,3.0986,3.0986,3.0986,3.0986,3.0986,3.0986,3.0986,3.0986,3.0817,3.0127,2.9627,2.9127,2.8399,2.7863,2.749,2.749,2.749,2.749,2.749,2.749,2.749,2.749,2.749,2.749,2.749,2.749,2.749,2.749,2.749,2.749,2.749,2.759,2.7623,2.749,2.749,2.7842,2.8629,2.8757,2.9376,3.0614,3.1219,3.1511,3.1511,3.1511,3.1511,3.1511,3.1511,3.1511,2.3103,2.4155,2.555,2.7346,2.8751,2.9935,3.0785,3.0986,3.0986,3.0986,3.0986,3.0986,3.0986,3.0986,3.0986,3.0986,3.0986,3.0986,0.0,0.0,3.0986,3.0986,0.0,3.0986,3.0986,3.0986,3.0986,3.0986,3.0986,3.0986,3.0986,3.0986,3.0986,3.0986,3.0986,3.0986,3.0986,3.0986,3.0986,3.0986,3.0986,3.0986,3.0986,3.0986,3.0986,3.0986,0.0,3.0986,3.0986,3.0986,3.0986,3.0986,3.0986,3.0986,3.0986,3.0986,3.0986,3.0986,3.0986,3.0986,3.0986,3.0986,3.0986,3.0986,3.0986,3.0986,3.0986,3.0986,3.0986,3.0986,3.0986,3.0986,3.0712,2.9653,2.9375,2.8987,2.7889,2.7555,2.749,2.749,2.749,2.749,2.749,2.749,2.749,2.749,2.749,2.749,2.749,2.749,2.749,2.749,2.749,2.749,2.749,2.8039,2.8105,2.7523,2.749,2.8059,2.93,2.9889,3.0554,3.1322,3.1438,3.1511,3.1511,3.1511,3.1511,3.1511,3.1511,3.1511,2.2745,2.34,2.4296,2.5844,2.7735,2.9441,3.0318,3.0764,3.0986,3.0986,3.0986,3.0986,3.0986,3.0986,3.0986,3.0986,3.0986,3.0986,3.0986,3.0986,3.0986,0.0,0.0,3.0986,3.0986,3.0986,3.0986,3.0986,3.0986,3.0986,3.0986,3.0986,3.0986,3.0986,3.0986,3.0986,3.0986,3.0986,3.0986,3.0986,3.0986,3.0986,3.0986,3.0986,3.0986,3.0986,0.0,3.0986,3.0986,3.0986,3.0986,3.0986,3.0986,3.0986,3.0986,3.0986,3.0986,3.0986,3.0986,3.0986,3.0986,3.0986,3.0986,3.0986,3.0986,3.0986,3.0986,3.0986,3.0986,3.0986,3.0986,3.0764,3.032,2.9483,2.9061,2.8556,2.7686,2.749,2.749,2.749,2.749,2.749,2.749,2.749,2.749,2.749,2.749,2.749,2.749,2.749,2.749,2.749,2.749,2.7656,2.8006,2.832,2.8532,2.8583,2.8583,2.9016,3.0011,3.0673,3.119,3.1511,3.1511,3.1511,3.1511,3.1511,3.1511,3.1511,3.1511,3.1511,2.244,2.2886,2.3498,2.4494,2.6481,2.8461,2.9417,3.0051,3.054,3.0753,3.079,3.083,3.096,3.0986,3.0986,3.0986,3.0986,3.0986,3.0986,3.0986,3.0986,3.0986,3.0986,3.0986,3.0986,3.0986,3.0986,3.0986,3.0986,3.0986,3.0986,3.0986,3.0986,3.0986,3.1061,3.1061,3.0986,3.1061,3.1061,3.0986,3.0986,3.0986,3.0986,3.0986,3.0986,3.0986,3.0986,3.0986,3.0986,3.0986,3.0986,3.0986,3.0986,3.0986,3.0986,3.0986,3.0986,3.0986,3.0986,3.0986,3.0986,3.0986,3.0986,3.0986,3.0986,3.0986,3.0986,3.0986,3.0895,3.079,3.079,3.0464,2.9918,2.9235,2.8747,2.8216,2.762,2.749,2.749,2.749,2.749,2.749,2.749,2.749,2.749,2.749,2.749,2.749,2.749,2.749,2.749,2.749,2.749,2.7842,2.8661,2.8712,2.9093,2.9919,2.9827,2.995,3.0494,3.1161,3.1511,3.1511,3.1511,3.1511,3.1511,3.1511,3.1511,3.1511,3.1511,3.1511,2.2138,2.2916,2.3765,2.3875,2.5241,2.6882,2.8002,2.8598,2.9188,2.9993,3.0153,3.0322,3.0895,3.0986,3.0986,3.0986,3.0986,3.0986,3.0986,0.0,3.0986,3.0986,3.0986,3.0986,3.0986,3.0986,3.0986,3.0986,3.0986,3.0986,3.0986,3.0986,3.0986,3.0986,3.1161,3.1198,3.0986,3.1198,3.1161,3.0986,3.0986,3.0986,3.0986,3.0986,3.0986,3.0986,3.0986,3.0986,3.0986,3.0986,3.0986,3.0986,3.0986,3.0986,3.0986,3.0986,3.0986,3.0986,3.0986,3.0986,3.0986,3.0986,3.0986,3.0986,3.0986,3.0986,3.0986,3.0986,3.0607,3.0153,3.0153,3.0127,2.9813,2.8712,2.8446,2.8216,2.762,2.749,2.749,2.749,2.749,2.749,2.749,2.749,2.749,2.749,2.749,2.749,2.749,2.749,2.749,2.749,2.749,2.8026,2.9317,2.9411,2.9981,3.1278,3.0777,3.045,3.0494,3.1161,3.1511,3.1511,3.1511,3.1511,3.1511,3.1511,3.1511,3.1511,3.1511,3.1511,2.2214,2.2617,2.3005,2.3239,2.4031,2.5226,2.7149,2.8008,2.8682,2.9863,2.9813,2.9784,3.0346,3.0451,3.0568,3.0934,3.0986,3.0869,3.0503,3.0764,3.0856,3.049,3.0764,3.0986,3.0986,3.0986,3.0986,3.0986,3.0986,3.0986,3.0986,3.0986,3.0986,3.0986,3.1061,3.1099,3.0986,3.1099,3.1099,3.0986,3.0986,3.0986,3.0986,3.0986,3.0986,3.0986,3.0986,3.0986,3.0986,3.0986,3.0986,3.0986,3.0986,3.0986,3.0986,3.0986,3.0986,3.0986,3.0986,3.0986,3.0986,3.0986,3.0986,3.0986,3.0986,3.0986,3.0908,3.0555,3.027,3.01,3.01,2.9552,2.8935,2.849,2.8111,2.7798,2.7542,2.749,2.749,2.749,2.749,2.749,2.749,2.749,2.749,2.749,2.749,2.749,2.749,2.749,2.749,2.749,2.7875,2.85,2.9411,2.9889,3.0524,3.1438,3.0866,3.0673,3.1087,3.138,3.1511,3.1511,3.1511,3.1511,3.1511,3.1511,3.1511,3.1511,3.1511,3.1511,2.2214,2.2402,2.2553,2.2852,2.3177,2.4048,2.6188,2.7072,2.7823,2.9269,2.9418,2.9392,2.9797,2.9862,2.9993,0.0,3.0451,3.0307,2.9915,3.0202,3.0372,3.0127,3.0477,3.079,3.096,3.0986,3.0986,3.0986,3.0986,3.0986,3.0986,3.0986,3.0986,3.0986,3.1061,3.1061,3.0986,3.1061,3.1099,3.1099,3.1099,3.1061,3.0986,3.0986,3.0986,3.0986,3.0986,3.0986,3.0986,3.0986,3.0986,3.0986,3.0986,3.0986,3.1024,3.1061,3.1061,3.1024,3.1149,3.1136,3.1099,3.1174,3.1174,3.1174,3.1174,3.1042,3.0806,3.0424,3.002,2.9731,2.9731,2.9057,2.8368,2.815,2.7811,2.749,2.749,2.749,2.749,2.749,2.749,2.749,2.749,2.749,2.749,2.749,2.749,2.749,2.749,2.749,2.7523,2.759,2.8371,2.9125,2.9611,3.048,3.1175,3.1611,3.1234,3.1146,3.1511,3.1511,3.1511,3.1511,3.1511,3.1511,3.1511,3.1568,3.1568,3.1511,3.1626,3.1655,2.2101,2.2402,2.2703,2.2703,2.2852,2.3398,2.4945,2.5661,2.6456,2.8071,2.8878,2.931,2.931,2.931,0.0,2.931,2.931,2.931,2.931,2.931,2.9483,3.0009,3.0087,3.0309,3.0908,3.0973,3.0973,3.0973,3.0986,3.0986,3.0986,3.0986,3.0986,3.0986,3.1198,3.1211,3.1024,3.1198,3.131,3.131,3.131,3.1198,3.1024,3.1024,3.0986,3.0986,3.0986,3.0986,3.0986,3.0986,3.0986,3.0986,3.0986,3.0986,3.1024,3.1235,3.1161,3.1061,3.1447,3.1485,3.136,3.1522,3.1609,3.1596,3.1596,3.1169,3.0677,3.0663,2.9802,2.889,2.8877,2.866,2.8263,2.7667,2.7503,2.7503,2.7503,2.7503,2.7503,2.7503,2.7503,2.7503,2.7503,2.7503,2.7503,2.7503,2.7503,2.7503,2.7503,2.749,2.759,2.7776,2.9016,2.9858,3.0011,3.1219,3.1996,3.1996,3.1996,3.1855,3.1511,3.1496,3.1496,3.1496,3.1511,3.1511,3.1511,3.1698,3.1698,3.1511,3.1855,3.1927,2.2289,2.2515,2.274,2.2889,2.2964,2.325,2.424,2.5004,2.5954,2.7467,2.8242,2.8682,2.8682,2.8682,0.0,2.9244,2.931,2.9131,2.8747,2.9048,2.9183,2.8935,2.9274,2.9601,2.9771,3.015,3.0348,3.0348,3.0764,3.0986,3.0986,3.0986,3.1061,3.1198,3.1272,3.136,3.141,3.1485,3.1522,3.1522,3.1522,3.1485,3.141,3.141,3.1323,3.1198,3.1198,3.1123,3.0986,3.0986,3.0986,3.0986,3.0986,3.0986,3.1024,3.1235,3.1272,3.1235,3.1522,3.1572,3.1522,3.1559,3.1316,3.097,3.097,3.0543,2.9997,2.955,2.919,2.8818,2.8452,2.8266,2.816,2.7954,2.7914,2.7914,2.7914,2.7914,2.7914,2.7914,2.7914,2.7914,2.7914,2.7914,2.7914,2.7914,2.7914,2.7914,2.7914,2.8287,2.857,2.8634,2.9411,3.0163,3.0674,3.1072,3.1508,3.1968,3.1996,3.1968,3.1855,3.1855,3.1855,3.1855,3.1756,3.1698,3.1698,3.1756,3.1698,3.1511,3.1855,3.1927,2.2478,2.2665,2.2852,2.2964,2.3001,2.3176,2.3938,2.4957,2.6,2.6871,2.7595,2.8033,2.8033,2.8033,0.0,2.8529,2.8582,2.8451,2.8085,2.836,2.8529,2.8399,2.8734,2.9048,2.9297,2.9588,2.9797,2.9797,3.0111,3.0307,3.0307,3.0307,3.0417,3.0586,3.0586,3.0672,3.0903,3.0903,3.0939,3.0998,3.0998,3.1047,3.1146,3.1469,3.1522,3.1397,3.131,3.1198,3.0986,3.0986,3.0986,3.1024,3.1099,3.1123,3.1161,3.1434,3.1508,3.1471,3.1743,3.1633,3.1359,3.1432,3.1066,3.0569,3.0569,3.0153,2.9603,2.9241,2.8986,2.8718,2.8369,2.8308,2.8276,2.8112,2.8112,2.8112,2.8112,2.8112,2.8112,2.8112,2.8112,2.8112,2.8112,2.8112,2.8112,2.8112,2.8112,2.8112,2.8112,2.8629,2.9034,2.9111,2.9936,3.0659,3.116,3.1421,3.1722,3.2135,3.2163,3.2163,3.2163,3.2053,3.1996,3.1996,3.1912,3.187,3.187,3.194,3.1855,3.1712,3.201,3.2094,2.2628,2.2815,2.3001,2.3001,2.3001,2.3176,2.3841,2.5193,2.6311,2.638,2.6973,2.749,2.749,2.749,2.749,2.749,2.749,2.749,2.749,2.749,2.7686,2.8242,2.8307,2.8516,2.9065,2.9205,2.9231,2.9231,2.9284,2.931,2.931,2.931,2.9381,2.9522,2.9522,2.9614,2.9859,2.9859,2.9963,3.0123,3.0123,3.0206,3.0411,3.1173,3.1486,3.1436,3.1238,3.104,3.0904,3.0904,3.0904,3.0904,3.1077,3.1151,3.1225,3.1569,3.1619,3.1523,3.1911,3.1559,3.0971,3.1148,3.0812,3.0323,3.0323,2.9889,2.9434,2.9434,2.9007,2.8619,2.8683,2.8683,2.8619,2.836,2.8243,2.8145,2.8145,2.8145,2.8145,2.8145,2.8145,2.8145,2.8145,2.8145,2.8177,2.8229,2.8229,2.8262,2.8295,2.8839,2.93,2.9484,3.06,3.1377,3.1566,3.2076,3.2398,3.2398,3.2398,3.2398,3.2398,3.2178,3.2053,3.2053,3.201,3.2025,3.2025,3.215,3.215,3.2025,3.2274,3.2315,2.244,2.274,2.3001,2.3001,2.3001,2.3038,2.3213,2.4432,2.5687,2.6277,2.6973,2.749,2.749,2.749,2.749,2.749,2.749,2.749,2.749,2.749,2.7542,2.7659,2.7673,2.7725,2.7855,2.8307,2.8569,2.8569,2.9048,2.931,2.931,2.931,2.9416,2.9719,2.9754,2.9907,3.0267,3.0267,3.0302,3.0336,3.0336,3.037,3.0418,3.0572,3.0562,3.0408,3.0197,3.0091,3.0055,3.0055,3.0055,3.0055,3.0091,3.0126,3.0162,3.0408,3.0443,3.0457,3.0715,3.0669,3.0539,3.0574,3.0188,2.9672,2.9672,2.9252,2.8777,2.8777,2.8695,2.8716,2.9188,2.9314,2.9425,2.9886,2.9216,2.8503,2.8503,2.8503,2.8503,2.8503,2.8503,2.8503,2.8503,2.8503,2.8638,2.9125,2.9205,2.9393,2.9917,3.0569,3.0984,3.1028,3.1694,3.216,3.2188,3.2342,3.2398,3.2398,3.2398,3.2398,3.2398,3.2342,3.2315,3.2315,3.2219,3.2163,3.2163,3.2191,3.215,3.2025,3.2274,3.2315,2.2515,2.2777,2.3001,2.3001,2.3001,2.3001,2.3001,2.3888,2.485,2.5228,2.6195,2.7074,2.7423,2.7222,2.7087,2.7423,2.749,2.749,2.749,2.749,2.749,2.749,2.749,2.749,2.749,2.7798,2.7968,2.7968,2.8268,2.8438,2.8438,2.8541,2.8713,2.8985,2.9039,2.9242,2.9536,2.9536,2.9536,2.9536,2.9536,2.9536,2.9564,3.0147,3.0288,3.0089,2.9985,2.9894,2.9789,2.9789,2.9789,2.9824,2.9929,2.995,2.9963,3.0185,3.024,3.0254,3.037,3.0215,2.9957,2.9957,2.955,2.9081,2.9081,2.9031,2.9012,2.9012,2.9265,2.9577,2.9903,2.9981,3.0072,3.0419,2.9763,2.9121,2.9435,2.9247,2.9121,2.9435,2.9529,2.9529,2.9529,2.9529,2.9608,2.9919,2.9981,3.0103,3.045,3.1102,3.1508,3.1508,3.2048,3.2398,3.2398,3.2398,3.2398,3.2398,3.2398,3.2398,3.2398,3.2398,3.2398,3.2398,3.2342,3.2302,3.2302,3.2302,3.2274,3.2191,3.2342,3.237,2.259,2.2815,2.3001,2.3001,2.3001,2.3001,2.3001,2.3559,2.4108,2.4108,2.5334,2.6564,2.704,2.6837,2.6735,2.7222,2.7423,2.749,2.749,2.749,2.749,2.749,2.749,2.749,2.749,2.749,2.749,2.749,2.749,2.7523,2.7556,2.7723,2.7888,2.8131,2.8235,2.8398,2.8587,2.8587,2.8587,2.8587,2.8587,2.8587,2.8627,2.9631,3.0011,2.9861,2.9861,2.9759,2.9587,2.9587,2.9587,2.9621,2.9793,2.9861,2.9861,3.0025,3.0093,3.0093,3.0093,2.9754,2.9352,2.9352,2.9078,2.8766,2.8766,2.917,2.9659,2.9659,3.0072,3.0524,3.0629,3.0673,3.0703,3.0807,3.0315,2.9981,3.0419,3.0042,2.9858,3.0389,3.0494,3.0494,3.0494,3.0494,3.0554,3.0673,3.0673,3.0689,3.0807,3.132,3.1652,3.1652,3.2104,3.2398,3.2398,3.2398,3.2398,3.2398,3.2398,3.2398,3.2398,3.2398,3.2398,3.2398,3.2398,3.2398,3.2398,3.2398,3.2398,3.2398,3.2398,3.2398,2.2402,2.2703,2.3001,2.3001,2.3001,2.3001,2.3001,2.3559,2.4108,0.0,2.5334,2.6242,2.5687,2.6564,2.7175,2.662,2.7074,2.749,2.749,2.749,2.749,2.749,2.749,2.749,2.749,2.749,2.749,2.749,2.749,2.759,2.7756,2.7776,2.7941,2.8268,2.8287,2.8398,2.8587,2.8587,2.8587,2.8587,2.8587,2.8587,2.86,2.8763,2.8831,2.8798,2.8798,2.8798,2.8766,2.8766,2.8766,2.8766,2.8798,2.8798,2.8798,2.8831,2.8831,2.8831,2.8831,2.8777,2.8709,2.8709,2.9031,2.9393,2.9393,2.9827,3.0359,3.0359,3.0419,3.0629,3.1219,3.1364,3.1508,3.202,3.1665,3.1087,3.0614,3.0419,3.0389,3.0494,3.0494,3.0494,3.0494,3.0494,3.0703,3.1277,3.1364,3.1566,3.2076,3.2216,3.2287,3.2287,3.2342,3.2398,3.2398,3.2398,3.2398,3.2398,3.2398,3.2398,3.2398,3.2398,3.2398,3.2398,3.2398,3.2398,3.2398,3.2398,3.2398,3.2398,3.2398,3.2398,2.2478,2.2703,2.2852,2.2964,2.3001,2.3001,2.3001,2.3239,2.3486,2.3486,2.4337,2.5276,2.5826,2.6104,2.6414,2.6939,2.7289,2.749,2.749,2.749,2.749,2.749,2.749,2.749,2.749,2.749,2.749,2.749,2.749,2.759,2.7776,2.7901,2.8052,2.8287,2.8398,2.8509,2.8587,2.8587,2.8587,2.8587,2.8587,2.8587,2.8587,2.8587,2.8587,2.8587,2.8587,2.8587,2.8587,2.8587,2.8587,2.8587,2.8587,2.8587,2.8587,2.8587,2.8587,2.8587,2.8587,2.8587,2.8587,2.8587,2.9026,2.9504,2.9504,3.0224,3.1058,3.1058,3.1291,3.1637,3.1936,3.1992,3.2076,3.2342,3.2203,3.1936,3.1637,3.1291,3.1175,3.1493,3.1564,3.1564,3.1564,3.1564,3.1665,3.1964,3.1992,3.2104,3.237,3.2398,3.2398,3.2398,3.2398,3.2398,3.2398,3.2398,3.2398,3.2398,3.2398,3.2398,3.2398,3.2398,3.2398,3.2398,3.2398,3.2398,3.2398,3.2398,3.2398,3.2398,3.2398,3.2398,2.2478,2.259,2.2665,2.2889,2.2889,2.2889,2.2964,2.2964,2.2927,0.0,2.3449,2.4228,2.5557,2.5674,2.5861,2.6803,2.7255,2.749,2.749,2.749,2.749,2.749,2.749,2.749,2.749,2.749,2.749,2.749,2.749,2.759,2.7776,2.8,2.8164,2.83,2.8509,2.8587,2.8587,2.8587,2.8587,2.8587,2.8587,2.8587,2.8587,2.8587,2.8587,2.8587,2.8587,2.8587,2.8587,2.8587,2.8587,2.8587,2.8587,2.8587,2.8587,2.8587,2.8587,2.8587,2.8587,2.8716,2.8817,2.8817,2.9345,2.9997,2.9997,3.0822,3.1737,3.1737,3.2048,3.2398,3.2398,3.2398,3.2398,3.2398,3.2398,3.2398,3.2398,3.2048,3.1851,3.2315,3.2398,3.2398,3.2398,3.2398,3.2398,3.2398,3.2398,3.2398,3.2398,3.2398,3.2398,3.2398,3.2398,3.2398,3.2398,3.2398,3.2398,3.2398,3.2398,3.2398,3.2398,3.2398,3.2398,3.2398,3.2398,3.2398,3.2398,3.2398,3.2398,3.2398,3.2398,3.2398,2.2138,2.2252,2.2478,2.2665,2.2553,2.2515,2.2927,2.2852,2.2777,2.2964,2.3038,2.3313,2.4084,2.5369,2.6139,2.5511,2.6598,2.749,2.749,2.749,2.749,2.749,2.749,2.749,2.749,2.749,2.749,2.749,2.749,2.759,2.7776,2.8,2.8164,2.83,2.8509,2.8587,2.8587,2.8587,2.8587,2.8587,2.8587,2.8587,2.8587,2.8587,2.8587,2.8587,2.8587,2.8587,2.8587,2.8587,2.8587,2.8587,2.8587,2.8587,2.8587,2.8587,2.8587,2.8587,2.8587,2.8962,2.9442,2.9442,3.0345,3.1393,3.1393,3.1851,3.2342,3.2342,3.237,3.2398,3.2398,3.2398,3.2398,3.2398,3.2398,3.2398,3.2398,3.237,3.237,3.2398,3.2398,3.2398,3.2398,3.2398,3.2398,3.2398,3.2398,3.2398,3.2398,3.2398,3.2398,3.2398,3.2398,3.2398,3.2398,3.2398,3.2398,3.2398,3.2398,3.2398,3.2398,3.2398,3.2398,3.2398,3.2398,3.2398,3.2398,3.2398,3.2398,3.2398,3.2398,3.2398,2.2063,2.2138,2.2252,2.2478,2.244,2.244,2.259,2.2553,2.2553,2.2777,2.2815,2.2927,2.3313,2.424,2.5028,2.5264,2.6139,2.6803,2.6803,2.7209,2.749,2.749,2.749,2.749,2.749,2.749,2.749,2.749,2.749,2.759,2.7776,2.7855,2.802,2.8287,2.8365,2.8476,2.8587,2.8587,2.8587,2.8587,2.8587,2.8587,2.8587,2.8587,2.8587,2.8587,2.8587,2.8587,2.8587,2.8587,2.8587,2.8651,2.9026,2.9188,2.9219,2.967,2.9825,2.9825,2.9825,2.9964,3.0133,3.0133,3.0748,3.1508,3.1508,3.1908,3.2398,3.2398,3.2398,3.2398,3.2398,3.2398,3.2398,3.2398,3.2398,3.2398,3.2398,3.2398,3.2398,3.2398,3.2398,3.2398,3.2398,3.2398,3.2398,3.2398,3.2398,3.2398,3.2398,3.2398,3.2398,3.2398,3.2398,3.2398,3.2398,3.2398,3.2398,3.2398,3.2398,3.2398,3.2398,3.2398,3.2398,3.2398,3.2398,3.2398,3.2398,3.2398,3.2398,3.2398,3.2398,3.2398,2.1949,2.1997,2.2063,2.2252,2.2252,2.2214,2.2365,2.2365,2.2365,2.2553,2.2665,2.274,2.2889,2.3338,2.4059,2.5123,2.5931,2.6496,2.6735,2.7175,2.749,2.749,2.749,2.749,2.749,2.749,2.749,2.749,2.749,0.0,2.7689,2.7756,2.7941,2.8287,2.8365,2.8476,2.8587,2.8587,2.8587,2.8587,2.8587,2.8587,2.8587,2.8587,2.8587,2.8587,2.8587,2.8587,2.8587,2.8587,2.8587,2.8651,2.9251,2.9504,2.9566,3.0238,3.0494,3.0494,3.0494,3.0644,3.0852,3.0852,3.1262,3.1794,3.1794,3.2076,3.2398,3.2398,3.2398,3.2398,3.2398,3.2398,3.2398,3.2398,3.2398,3.2398,3.2398,3.2398,3.2398,3.2398,3.2398,3.2398,3.2398,3.2398,3.2398,3.2398,3.2398,3.2398,3.2398,3.2398,3.2398,3.2398,3.2398,3.2398,3.2398,3.2398,3.2398,3.2398,3.2398,3.2398,3.2398,3.2398,3.2398,3.2398,3.2398,3.2398,3.2398,3.2398,3.2398,3.2398,3.2398,3.2398,0.0,0.0,0.0,2.2025,2.1949,2.1921,2.2289,0.0,2.2138,2.2365,2.2553,2.2703,2.2703,2.2852,2.3508,2.5016,2.5896,2.6633,2.7323,2.7456,2.749,2.749,2.749,2.749,2.749,2.749,2.749,2.749,2.749,2.749,2.749,2.7689,2.7973,2.8287,2.8476,2.8587,2.8587,2.8587,2.8587,2.8587,2.8619,2.8619,2.8619,2.8651,2.8651,2.8651,2.8651,2.8651,2.8651,2.8619,2.8619,2.8683,2.93,2.9566,2.9628,3.0329,3.0554,3.0554,3.0554,3.097,3.1523,3.1523,3.1908,3.2398,3.2398,3.2398,3.2398,3.2398,3.2398,3.2398,3.2398,3.2398,3.2398,3.2398,3.2398,3.2398,3.2398,3.2398,3.2398,3.2398,3.2398,3.2398,3.2398,3.2398,3.2398,3.2398,3.2398,3.2398,3.2398,3.2398,3.2398,3.2398,3.2398,3.2398,3.2398,3.2398,3.2398,3.2398,3.2398,3.2398,3.2398,3.2398,3.2398,3.2398,3.2398,3.2398,3.2398,3.2398,3.2398,3.2398,3.2398,3.2398,2.1807,0.0,0.0,0.0,0.0,0.0,0.0,0.0,2.1997,2.2327,2.244,2.2553,2.2852,2.2964,2.3313,2.4276,2.5111,2.5687,2.5861,2.6837,2.749,2.749,2.749,2.749,2.749,2.749,2.749,0.0,2.749,2.749,2.749,2.7835,2.8066,2.8164,2.8425,2.8587,2.8587,2.8587,2.8587,2.8619,2.9044,2.9251,2.9282,2.9749,2.9979,2.9979,2.9979,2.9979,2.9948,2.9439,2.9251,2.9362,3.0495,3.0955,3.1014,3.1665,3.1864,3.1864,3.1864,3.1992,3.216,3.216,3.2244,3.2398,3.2398,3.2398,3.2398,3.2398,3.2398,3.2398,3.2398,3.2398,3.2398,3.2398,3.2398,3.2398,3.2398,3.2398,3.2398,3.2398,3.2398,3.2398,3.2398,3.2398,3.2398,3.2398,3.2398,3.2398,3.2398,3.2398,3.2398,3.2398,3.2398,3.2398,3.2398,3.2398,3.2398,3.2398,3.2398,3.2398,3.2398,3.2398,3.2398,3.2398,3.2398,3.2398,3.2398,3.2398,3.2398,3.2398,3.2398,3.2398,0.0,0.0,0.0,0.0,0.0,0.0,2.1807,2.1807,2.1883,0.0,2.2214,2.2365,2.2703,2.2815,2.3027,2.3559,2.4576,2.5418,2.5721,2.6483,2.7154,2.7456,2.749,2.749,2.749,2.749,2.749,2.749,2.749,2.749,2.749,2.7802,2.8,2.8112,2.836,2.8522,2.8587,2.8587,2.8748,2.8962,2.9331,2.9659,2.9919,3.0329,3.0494,3.0494,3.0494,3.0494,3.0494,3.0375,3.0163,3.0011,3.1087,3.1508,3.1566,3.216,3.2398,3.2398,3.2398,3.2398,3.2398,3.2398,3.2398,3.2398,3.2398,3.2398,3.2398,3.2398,3.2398,3.2398,3.2398,3.2398,3.2398,3.2398,3.2398,3.2398,3.2398,3.2398,3.2398,3.2398,3.2398,3.2398,3.2398,3.2398,3.2398,3.2398,3.2398,3.2398,3.2398,3.2398,3.2398,3.2398,3.2398,3.2398,3.2398,3.2398,3.2398,3.2398,3.2398,3.2398,3.2398,3.2398,3.2398,3.2398,3.2398,3.2398,3.2398,3.2398,3.2398,3.2398,3.2398,3.2398,0.0,0.0,0.0,0.0,0.0,0.0,2.1807,2.1807,2.1845,0.0,2.2101,2.2327,2.258,2.2804,2.2953,2.3038,2.4299,2.5511,2.6173,2.6414,2.6769,2.7423,2.749,2.749,2.749,2.749,2.749,2.749,2.749,2.749,2.749,2.7689,2.7888,2.8046,2.8203,2.8398,2.8554,2.8587,2.8912,2.9504,2.9566,2.995,3.0614,3.0689,3.0689,3.0689,3.0689,3.0689,3.0748,3.1349,3.1204,3.0673,3.1335,3.1595,3.1652,3.2188,3.2398,3.2398,3.2398,3.2398,3.2398,3.2398,3.2398,3.2398,3.2398,3.2398,3.2398,3.2398,3.2398,3.2398,3.2398,3.2398,3.2398,3.2398,3.2398,3.2398,3.2398,3.2398,3.2398,3.2398,3.2398,3.2398,3.2398,3.2398,3.2398,3.2398,3.2398,3.2398,3.2398,3.2398,3.2398,3.2398,3.2398,3.2398,3.2398,3.2398,3.2398,3.2398,3.2398,3.2398,3.2398,3.2398,3.2398,3.2398,3.2398,3.2398,3.2398,3.2398,3.2398,3.2398,3.2398,3.2437,0.0,0.0,0.0,0.0,0.0,0.0,2.1807,2.1807,2.2035,0.0,2.3038,2.3324,2.4107,2.4276,2.4143,2.3593,2.4371,2.5158,2.5476,2.653,2.7356,2.749,2.749,2.749,2.749,2.749,2.749,2.749,2.749,2.749,2.749,2.7689,2.7822,2.7855,2.8137,2.832,2.8365,2.8509,2.8912,2.9504,3.0042,3.0673,3.1335,3.1807,3.2048,3.2048,3.2048,3.2048,3.2048,3.216,3.1851,3.1364,3.1992,3.2216,3.2259,3.237,3.2398,3.2398,3.2398,3.2398,3.2398,3.2398,3.2398,3.2398,3.2398,3.2398,3.2398,3.2398,3.2398,3.2398,3.2398,3.2398,3.2398,3.2398,3.2398,3.2398,3.2398,3.2398,3.2398,3.2398,3.2398,3.2398,3.2398,3.2398,3.2398,3.2398,3.2398,3.2398,3.2398,3.2398,3.2398,3.2398,3.2398,3.2398,3.2398,3.2398,3.2398,3.2398,3.2398,3.2398,3.2398,3.2398,3.2398,3.2398,3.2398,3.2398,3.2398,3.2398,3.2398,3.2398,3.2398,3.2641,0.0,0.0,0.0,2.2957,0.0,0.0,0.0,2.2957,2.308,2.3596,2.3706,2.3888,2.4456,2.4564,2.4456,2.419,2.4612,2.5146,2.5639,2.6414,2.7087,2.7469,2.749,2.749,2.749,2.749,2.749,2.749,2.749,2.749,2.749,2.759,2.7689,2.7809,2.7973,2.8124,2.8287,2.8398,2.8803,2.9504,3.0178,3.0852,3.1508,3.2104,3.2398,3.2398,3.2398,3.2398,3.2398,3.2398,3.2216,3.1992,3.2272,3.2398,3.2398,3.2398,3.2398,3.2398,3.2398,3.2398,3.2398,3.2398,3.2398,3.2398,3.2398,3.2398,3.2398,3.2398,3.2398,3.2398,3.2398,3.2398,3.2398,3.2398,3.2398,3.2398,3.2398,3.2398,3.2398,3.2398,3.2398,3.2398,3.2398,3.2398,3.2398,3.2398,3.2398,3.2398,3.2398,3.2398,3.2398,3.2398,3.2398,3.2398,3.2398,3.2398,3.2398,3.2398,3.2398,3.2398,3.2398,3.2398,3.2398,3.2398,3.2668,3.2788,3.2788,3.3145,3.2986,3.241,3.2964,3.3198,0.0,0.0,0.0,0.0,0.0,2.4108,0.0,0.0,0.0,2.4301,2.4337,2.4409,0.0,0.0,0.0,0.0,0.0,0.0,0.0,2.6271,0.0,2.7423,2.749,2.749,2.749,2.749,2.749,2.749,2.749,2.749,2.749,2.749,2.7556,2.7756,2.7776,2.7941,2.8189,2.8254,2.8693,2.9487,3.0178,3.0852,3.1508,3.2104,3.2398,3.2398,3.2398,3.2398,3.2398,3.2398,3.2398,3.2398,3.2398,3.2398,3.2398,3.2398,3.2398,3.2398,3.2398,3.2398,3.2398,3.2398,3.2398,3.2398,3.2398,3.2398,3.2398,3.2398,3.2398,3.2398,3.2398,3.2398,3.2398,3.2398,3.2398,3.2398,3.2398,3.2398,3.2398,3.2398,3.2398,3.2398,3.2398,3.2398,3.2398,3.2398,3.2398,3.2398,3.2398,3.2398,3.2398,3.2398,3.2398,3.2398,3.2398,3.2398,3.2398,3.2398,3.2398,3.2398,3.2398,3.2398,3.2398,3.2398,3.2922,3.3182,3.3182,3.3937,3.3761,3.2776,3.3665,3.3903,0.0,0.0,0.0,0.0,2.4108,0.0,2.4108,0.0,2.4301,2.5016,0.0,0.0,0.0,0.0,0.0,0.0,0.0,0.0,2.5025,2.619,2.7268,2.7503,2.749,2.749,2.749,2.749,2.749,2.749,2.749,2.749,2.749,2.749,2.749,2.7523,2.7723,2.7809,2.7842,2.8157,2.8629,2.9328,3.0117,3.0852,3.1508,3.2104,3.2398,3.2398,3.2398,3.2398,3.2398,3.2398,3.2398,3.2398,3.2398,3.2398,3.2398,3.2398,3.2398,3.2398,3.2398,3.2398,3.2398,3.2398,3.2398,3.2398,3.2398,3.2398,3.2398,3.2398,3.2398,3.2398,3.2398,3.2398,3.2398,3.2398,3.2398,3.2398,3.2398,3.2398,3.2398,3.2398,3.2398,3.2398,3.2398,3.2398,3.2398,3.2398,3.2398,3.2398,3.2398,3.2398,3.2398,3.2398,3.2398,3.2398,3.2398,3.2398,3.2398,3.2398,3.2398,3.2398,3.2398,3.2398,3.2398,3.2398,3.2922,3.3182,3.3182,3.4227,3.4488,3.4012,3.4235,3.4592,0.0,0.0,0.0,0.0,0.0,0.0,2.5499,0.0,2.5581,0.0,0.0,0.0,0.0,0.0,0.0,0.0,2.5877,0.0,0.0,0.0,2.6803,0.0,0.0,0.0,2.749,2.749,2.749,2.749,2.749,2.749,2.749,2.749,2.749,2.749,2.759,2.7689,2.7809,2.839,2.8903,2.9296,3.051,3.1248,3.1508,3.2104,3.2398,3.2398,3.2398,3.2398,3.2398,3.2398,3.2398,3.2398,3.2398,3.2398,3.2398,3.2398,3.2398,3.2398,3.2398,3.2398,3.2398,3.2398,3.2398,3.2398,3.2398,3.2398,3.2398,3.2398,3.2398,3.2398,3.2398,3.2398,3.2398,3.2398,3.2398,3.2398,3.2398,3.2398,3.2398,3.2398,3.2398,3.2398,3.2398,3.2398,3.2398,3.2398,3.2398,3.2398,3.2398,3.2398,3.2398,3.2398,3.2398,3.2398,3.2398,3.2398,3.2398,3.2398,3.2398,3.2398,3.2398,3.2398,3.2398,3.2398,3.3224,3.3665,3.3665,3.4816,3.5293,3.5121,3.5184,3.5214,2.6499,0.0,0.0,0.0,0.0,0.0,0.0,0.0,0.0,0.0,0.0,0.0,0.0,0.0,0.0,0.0,0.0,2.601,0.0,2.6395,0.0,0.0,0.0,0.0,0.0,2.749,2.749,2.749,2.749,2.749,2.749,2.749,2.749,2.749,2.749,2.7556,2.7723,2.8403,2.8903,2.9219,3.0569,3.1335,3.1508,3.2104,3.2398,3.2398,3.2398,3.2398,3.2398,3.2398,3.2398,3.2398,3.2398,3.2398,3.2398,3.2398,3.2398,3.2398,3.2398,3.2398,3.2398,3.2398,3.2398,3.2398,3.2398,3.2398,3.2398,3.2398,3.2398,3.2398,3.2398,3.2398,3.2398,3.2398,3.2398,3.2398,3.2398,3.2398,3.2398,3.2398,3.2398,3.2398,3.2398,3.2398,3.2398,3.2398,3.2398,3.2398,3.2398,3.2398,3.2398,3.2398,3.2398,3.2398,3.2398,3.2398,3.2398,3.2398,3.2398,3.2398,3.2398,3.2398,3.2398,3.2398,3.3449,3.4011,3.4011,3.5178,3.5795,3.5861,3.5883,3.5739,0.0,0.0,0.0,2.6499,0.0,0.0,0.0,0.0,2.6499,0.0,0.0,0.0,0.0,0.0,0.0,0.0,0.0,0.0,0.0,0.0,0.0,0.0,0.0,0.0,0.0,2.749,2.749,2.749,2.749,2.749,2.749,2.749,2.749,2.749,2.749,2.749,2.749,2.7901,2.843,2.9034,3.0042,3.0881,3.1508,3.2104,3.2398,3.2398,3.2398,3.2398,3.2398,3.2398,3.2398,3.2398,3.2398,3.2398,3.2398,3.2398,3.2398,3.2398,3.2398,3.2398,3.2398,3.2398,3.2398,3.2398,3.2398,3.2398,3.2398,3.2398,3.2398,3.2398,3.2398,3.2398,3.2398,3.2398,3.2398,3.2398,3.2398,3.2398,3.2398,3.2398,3.2398,3.2398,3.2398,3.2398,3.2398,3.2398,3.2398,3.2398,3.2398,3.2398,3.2398,3.2398,3.2398,3.2398,3.2398,3.2398,3.2398,3.2398,3.2398,3.2398,3.2398,3.2398,3.2398,3.2398,3.3449,3.4011,3.4011,3.5068,3.5734,3.5997,3.6122,3.6182,0.0,0.0,2.6499,2.6499,0.0,0.0,0.0,0.0,0.0,0.0,0.0,0.0,0.0,0.0,0.0,0.0,0.0,0.0,0.0,0.0,0.0,0.0,0.0,0.0,0.0,0.0,2.749,2.749,2.749,2.749,2.749,2.749,2.749,2.749,2.749,2.749,2.749,2.8203,2.8917,2.9659,3.054,3.1348,3.2104,3.2315,3.2398,3.2398,3.2398,3.2398,3.2398,3.2398,3.2398,3.2398,3.2398,3.2398,3.2398,3.2398,3.2398,3.2398,3.2398,3.2398,3.2398,3.2398,3.2398,3.2398,3.2398,3.2398,3.2398,3.2398,3.2398,3.2398,3.2398,3.2398,3.2398,3.2398,3.2398,3.2398,3.2398,3.2398,3.2398,3.2398,3.2398,3.2398,3.2398,3.2398,3.2398,3.2398,3.2398,3.2398,3.2398,3.2398,3.2398,3.2398,3.2398,3.2398,3.2398,3.2398,3.2398,3.2398,3.2398,3.2574,3.2922,3.2922,3.3108,3.3449,3.4169,3.4529,3.4529,3.5339,3.5795,3.5883,3.6096,3.6229,2.6555,2.6624,0.0,2.6589,2.6624,0.0,2.6533,0.0,2.6555,0.0,0.0,0.0,0.0,0.0,0.0,0.0,0.0,0.0,0.0,2.6536,0.0,0.0,0.0,0.0,0.0,2.749,2.749,2.749,2.749,2.749,2.749,2.749,2.749,2.749,2.749,2.749,2.749,2.8352,2.9188,2.995,3.0778,3.1593,3.2342,3.237,3.2398,3.2398,3.2398,3.2398,3.2398,3.2398,3.2398,3.2398,3.2398,3.2398,3.2398,3.2398,3.2398,3.2398,3.2398,3.2398,3.2398,3.2398,3.2398,3.2398,3.2398,3.2398,3.2398,3.2398,3.2398,3.2398,3.2398,3.2398,3.2398,3.2398,3.2398,3.2398,3.2398,3.2398,3.2398,3.2398,3.2398,3.2398,3.2398,3.2425,3.2453,3.2425,3.2398,3.2398,3.2398,3.2398,3.2398,3.2398,3.2398,3.2492,3.2749,3.2776,3.2776,3.2815,3.2761,3.2933,3.3339,3.3547,3.3915,3.4527,3.4813,3.5074,3.5324,3.5701,3.5905,3.5949,3.6118,3.6251]}]]